<?xml version="1.0" encoding="UTF-8" standalone="no" ?><gpx xmlns="http://www.topografix.com/GPX/1/1" xmlns:gpxx="http://www.garmin.com/xmlschemas/GpxExtensions/v3" xmlns:wptx1="http://www.garmin.com/xmlschemas/WaypointExtension/v1" xmlns:gpxtpx="http://www.garmin.com/xmlschemas/TrackPointExtension/v1" creator="eTrex 20" version="1.1" xmlns:xsi="http://www.w3.org/2001/XMLSchema-instance" xsi:schemaLocation="http://www.topografix.com/GPX/1/1 http://www.topografix.com/GPX/1/1/gpx.xsd http://www.garmin.com/xmlschemas/GpxExtensions/v3 http://www8.garmin.com/xmlschemas/GpxExtensionsv3.xsd http://www.garmin.com/xmlschemas/WaypointExtension/v1 http://www8.garmin.com/xmlschemas/WaypointExtensionv1.xsd http://www.garmin.com/xmlschemas/TrackPointExtension/v1 http://www.garmin.com/xmlschemas/TrackPointExtensionv1.xsd"><metadata><link href="http://www.garmin.com"><text>Garmin International</text></link><time>2012-03-23T12:35:42Z</time></metadata><trk><name>23-MAR-12 14:35:38</name><extensions><gpxx:TrackExtension><gpxx:DisplayColor>Magenta</gpxx:DisplayColor></gpxx:TrackExtension></extensions><trkseg><trkpt lat="31.0826324858" lon="35.0296852738"><ele>583.18</ele><time>2012-03-23T05:36:49Z</time></trkpt><trkpt lat="31.0826484114" lon="35.0297117606"><ele>589.43</ele><time>2012-03-23T05:37:06Z</time></trkpt><trkpt lat="31.0826611519" lon="35.0297376607"><ele>592.79</ele><time>2012-03-23T05:37:28Z</time></trkpt><trkpt lat="31.0826555360" lon="35.0297291949"><ele>593.75</ele><time>2012-03-23T05:37:36Z</time></trkpt><trkpt lat="31.0826568771" lon="35.0296918117"><ele>593.27</ele><time>2012-03-23T05:37:39Z</time></trkpt><trkpt lat="31.0827934183" lon="35.0296249241"><ele>593.75</ele><time>2012-03-23T05:37:50Z</time></trkpt><trkpt lat="31.0829715338" lon="35.0295706093"><ele>593.75</ele><time>2012-03-23T05:38:02Z</time></trkpt><trkpt lat="31.0831026267" lon="35.0295597129"><ele>593.27</ele><time>2012-03-23T05:38:15Z</time></trkpt><trkpt lat="31.0831560194" lon="35.0295181386"><ele>591.83</ele><time>2012-03-23T05:38:27Z</time></trkpt><trkpt lat="31.0832080711" lon="35.0294955913"><ele>591.35</ele><time>2012-03-23T05:38:41Z</time></trkpt><trkpt lat="31.0832291935" lon="35.0294152927"><ele>591.35</ele><time>2012-03-23T05:38:46Z</time></trkpt><trkpt lat="31.0832425207" lon="35.0293552782"><ele>590.87</ele><time>2012-03-23T05:38:50Z</time></trkpt><trkpt lat="31.0832404252" lon="35.0292600598"><ele>591.83</ele><time>2012-03-23T05:38:55Z</time></trkpt><trkpt lat="31.0831150319" lon="35.0288835447"><ele>590.39</ele><time>2012-03-23T05:39:11Z</time></trkpt><trkpt lat="31.0830201488" lon="35.0286056846"><ele>589.43</ele><time>2012-03-23T05:39:17Z</time></trkpt><trkpt lat="31.0828048177" lon="35.0282007549"><ele>591.35</ele><time>2012-03-23T05:39:30Z</time></trkpt><trkpt lat="31.0826098546" lon="35.0279387366"><ele>590.39</ele><time>2012-03-23T05:39:44Z</time></trkpt><trkpt lat="31.0824669432" lon="35.0277666561"><ele>590.39</ele><time>2012-03-23T05:39:54Z</time></trkpt><trkpt lat="31.0824968666" lon="35.0276545901"><ele>590.39</ele><time>2012-03-23T05:40:02Z</time></trkpt><trkpt lat="31.0825272091" lon="35.0276086573"><ele>590.87</ele><time>2012-03-23T05:40:06Z</time></trkpt><trkpt lat="31.0825171508" lon="35.0275110081"><ele>590.39</ele><time>2012-03-23T05:40:17Z</time></trkpt><trkpt lat="31.0825531930" lon="35.0274798274"><ele>589.43</ele><time>2012-03-23T05:40:19Z</time></trkpt><trkpt lat="31.0826721322" lon="35.0274608843"><ele>589.91</ele><time>2012-03-23T05:40:25Z</time></trkpt><trkpt lat="31.0827470664" lon="35.0274713617"><ele>590.39</ele><time>2012-03-23T05:40:29Z</time></trkpt><trkpt lat="31.0829089209" lon="35.0274427794"><ele>592.31</ele><time>2012-03-23T05:40:40Z</time></trkpt><trkpt lat="31.0829846095" lon="35.0274178013"><ele>593.27</ele><time>2012-03-23T05:40:45Z</time></trkpt><trkpt lat="31.0830487311" lon="35.0273929909"><ele>594.23</ele><time>2012-03-23T05:40:49Z</time></trkpt><trkpt lat="31.0833348893" lon="35.0271992851"><ele>595.19</ele><time>2012-03-23T05:41:08Z</time></trkpt><trkpt lat="31.0835305229" lon="35.0269782543"><ele>595.19</ele><time>2012-03-23T05:41:22Z</time></trkpt><trkpt lat="31.0836393200" lon="35.0267475843"><ele>598.56</ele><time>2012-03-23T05:41:35Z</time></trkpt><trkpt lat="31.0836564191" lon="35.0265102088"><ele>599.52</ele><time>2012-03-23T05:41:51Z</time></trkpt><trkpt lat="31.0836542398" lon="35.0264982227"><ele>599.52</ele><time>2012-03-23T05:41:52Z</time></trkpt><trkpt lat="31.0836635437" lon="35.0264372863"><ele>600.00</ele><time>2012-03-23T05:41:56Z</time></trkpt><trkpt lat="31.0837391485" lon="35.0261750165"><ele>603.85</ele><time>2012-03-23T05:42:15Z</time></trkpt><trkpt lat="31.0838156752" lon="35.0259259902"><ele>608.17</ele><time>2012-03-23T05:42:33Z</time></trkpt><trkpt lat="31.0838744324" lon="35.0257011876"><ele>611.54</ele><time>2012-03-23T05:42:50Z</time></trkpt><trkpt lat="31.0839035176" lon="35.0255206414"><ele>613.46</ele><time>2012-03-23T05:43:04Z</time></trkpt><trkpt lat="31.0839043558" lon="35.0254821684"><ele>614.42</ele><time>2012-03-23T05:43:07Z</time></trkpt><trkpt lat="31.0838974826" lon="35.0254396722"><ele>615.38</ele><time>2012-03-23T05:43:11Z</time></trkpt><trkpt lat="31.0839067865" lon="35.0253403466"><ele>616.82</ele><time>2012-03-23T05:43:19Z</time></trkpt><trkpt lat="31.0839123186" lon="35.0252520852"><ele>617.30</ele><time>2012-03-23T05:43:25Z</time></trkpt><trkpt lat="31.0839432478" lon="35.0250629894"><ele>619.71</ele><time>2012-03-23T05:43:40Z</time></trkpt><trkpt lat="31.0840003286" lon="35.0248439703"><ele>623.55</ele><time>2012-03-23T05:43:58Z</time></trkpt><trkpt lat="31.0840576608" lon="35.0247506797"><ele>624.51</ele><time>2012-03-23T05:44:08Z</time></trkpt><trkpt lat="31.0841296613" lon="35.0246250350"><ele>625.96</ele><time>2012-03-23T05:44:20Z</time></trkpt><trkpt lat="31.0841750912" lon="35.0245288108"><ele>627.40</ele><time>2012-03-23T05:44:29Z</time></trkpt><trkpt lat="31.0842340998" lon="35.0244439859"><ele>628.84</ele><time>2012-03-23T05:44:42Z</time></trkpt><trkpt lat="31.0842485167" lon="35.0244131405"><ele>629.32</ele><time>2012-03-23T05:44:46Z</time></trkpt><trkpt lat="31.0843070224" lon="35.0242921896"><ele>629.80</ele><time>2012-03-23T05:44:56Z</time></trkpt><trkpt lat="31.0843455791" lon="35.0242203567"><ele>631.24</ele><time>2012-03-23T05:45:07Z</time></trkpt><trkpt lat="31.0843438189" lon="35.0242199376"><ele>630.76</ele><time>2012-03-23T05:45:28Z</time></trkpt><trkpt lat="31.0843510274" lon="35.0241971388"><ele>630.76</ele><time>2012-03-23T05:45:30Z</time></trkpt><trkpt lat="31.0843586549" lon="35.0241449196"><ele>631.24</ele><time>2012-03-23T05:45:33Z</time></trkpt><trkpt lat="31.0843915958" lon="35.0240721647"><ele>632.20</ele><time>2012-03-23T05:45:44Z</time></trkpt><trkpt lat="31.0844219383" lon="35.0240388885"><ele>633.65</ele><time>2012-03-23T05:45:56Z</time></trkpt><trkpt lat="31.0844212677" lon="35.0240385532"><ele>633.65</ele><time>2012-03-23T05:45:57Z</time></trkpt><trkpt lat="31.0844385345" lon="35.0239994098"><ele>633.65</ele><time>2012-03-23T05:46:01Z</time></trkpt><trkpt lat="31.0844746605" lon="35.0239160936"><ele>634.61</ele><time>2012-03-23T05:46:07Z</time></trkpt><trkpt lat="31.0844988842" lon="35.0238428358"><ele>635.57</ele><time>2012-03-23T05:46:12Z</time></trkpt><trkpt lat="31.0845221020" lon="35.0237881020"><ele>637.49</ele><time>2012-03-23T05:46:16Z</time></trkpt><trkpt lat="31.0845650174" lon="35.0237368047"><ele>637.49</ele><time>2012-03-23T05:46:27Z</time></trkpt><trkpt lat="31.0846199188" lon="35.0236390717"><ele>638.45</ele><time>2012-03-23T05:46:43Z</time></trkpt><trkpt lat="31.0846450645" lon="35.0235531572"><ele>639.89</ele><time>2012-03-23T05:46:58Z</time></trkpt><trkpt lat="31.0847093537" lon="35.0234771334"><ele>643.26</ele><time>2012-03-23T05:47:15Z</time></trkpt><trkpt lat="31.0847740620" lon="35.0234223995"><ele>645.66</ele><time>2012-03-23T05:47:29Z</time></trkpt><trkpt lat="31.0848490801" lon="35.0233452022"><ele>649.03</ele><time>2012-03-23T05:47:47Z</time></trkpt><trkpt lat="31.0849082563" lon="35.0233042147"><ele>650.95</ele><time>2012-03-23T05:48:01Z</time></trkpt><trkpt lat="31.0849708691" lon="35.0232576951"><ele>652.87</ele><time>2012-03-23T05:48:16Z</time></trkpt><trkpt lat="31.0850420315" lon="35.0232013687"><ele>653.35</ele><time>2012-03-23T05:48:32Z</time></trkpt><trkpt lat="31.0851461347" lon="35.0231192261"><ele>656.24</ele><time>2012-03-23T05:48:50Z</time></trkpt><trkpt lat="31.0852443706" lon="35.0230568647"><ele>658.16</ele><time>2012-03-23T05:49:05Z</time></trkpt><trkpt lat="31.0853572749" lon="35.0230022985"><ele>660.56</ele><time>2012-03-23T05:49:22Z</time></trkpt><trkpt lat="31.0854575224" lon="35.0229318067"><ele>662.49</ele><time>2012-03-23T05:49:39Z</time></trkpt><trkpt lat="31.0854550079" lon="35.0229315553"><ele>662.97</ele><time>2012-03-23T05:50:02Z</time></trkpt><trkpt lat="31.0854560137" lon="35.0229324773"><ele>662.49</ele><time>2012-03-23T05:50:30Z</time></trkpt><trkpt lat="31.0854557622" lon="35.0229239278"><ele>662.49</ele><time>2012-03-23T05:50:54Z</time></trkpt><trkpt lat="31.0854560975" lon="35.0229230057"><ele>662.49</ele><time>2012-03-23T05:51:01Z</time></trkpt><trkpt lat="31.0854959115" lon="35.0229831040"><ele>662.01</ele><time>2012-03-23T05:51:05Z</time></trkpt><trkpt lat="31.0855083168" lon="35.0230047293"><ele>661.52</ele><time>2012-03-23T05:51:06Z</time></trkpt><trkpt lat="31.0855207220" lon="35.0230280310"><ele>661.52</ele><time>2012-03-23T05:51:07Z</time></trkpt><trkpt lat="31.0855358094" lon="35.0230526738"><ele>661.52</ele><time>2012-03-23T05:51:08Z</time></trkpt><trkpt lat="31.0855540819" lon="35.0230795797"><ele>661.04</ele><time>2012-03-23T05:51:09Z</time></trkpt><trkpt lat="31.0858242307" lon="35.0233008619"><ele>658.64</ele><time>2012-03-23T05:51:19Z</time></trkpt><trkpt lat="31.0860090517" lon="35.0234707631"><ele>659.60</ele><time>2012-03-23T05:51:30Z</time></trkpt><trkpt lat="31.0861688107" lon="35.0236627925"><ele>661.04</ele><time>2012-03-23T05:51:43Z</time></trkpt><trkpt lat="31.0863726586" lon="35.0238291733"><ele>662.97</ele><time>2012-03-23T05:51:59Z</time></trkpt><trkpt lat="31.0864330921" lon="35.0238550734"><ele>663.45</ele><time>2012-03-23T05:52:12Z</time></trkpt><trkpt lat="31.0864279792" lon="35.0238553248"><ele>663.45</ele><time>2012-03-23T05:52:37Z</time></trkpt><trkpt lat="31.0864256322" lon="35.0238535646"><ele>662.49</ele><time>2012-03-23T05:53:06Z</time></trkpt><trkpt lat="31.0864279792" lon="35.0238495413"><ele>662.49</ele><time>2012-03-23T05:53:40Z</time></trkpt><trkpt lat="31.0864267219" lon="35.0238477811"><ele>662.49</ele><time>2012-03-23T05:54:10Z</time></trkpt><trkpt lat="31.0864275601" lon="35.0238488708"><ele>662.49</ele><time>2012-03-23T05:54:38Z</time></trkpt><trkpt lat="31.0864291526" lon="35.0238459371"><ele>662.01</ele><time>2012-03-23T05:55:13Z</time></trkpt><trkpt lat="31.0864266381" lon="35.0238469429"><ele>662.01</ele><time>2012-03-23T05:55:48Z</time></trkpt><trkpt lat="31.0865938570" lon="35.0238365494"><ele>661.04</ele><time>2012-03-23T05:56:04Z</time></trkpt><trkpt lat="31.0869576316" lon="35.0237727631"><ele>657.20</ele><time>2012-03-23T05:56:14Z</time></trkpt><trkpt lat="31.0870948434" lon="35.0237497967"><ele>656.24</ele><time>2012-03-23T05:56:17Z</time></trkpt><trkpt lat="31.0871840268" lon="35.0237585977"><ele>655.76</ele><time>2012-03-23T05:56:19Z</time></trkpt><trkpt lat="31.0872266069" lon="35.0237626210"><ele>655.76</ele><time>2012-03-23T05:56:20Z</time></trkpt><trkpt lat="31.0876022838" lon="35.0238569174"><ele>654.31</ele><time>2012-03-23T05:56:31Z</time></trkpt><trkpt lat="31.0879029427" lon="35.0239454303"><ele>655.28</ele><time>2012-03-23T05:56:42Z</time></trkpt><trkpt lat="31.0881345347" lon="35.0242534652"><ele>656.72</ele><time>2012-03-23T05:56:55Z</time></trkpt><trkpt lat="31.0883562360" lon="35.0244736578"><ele>659.60</ele><time>2012-03-23T05:57:08Z</time></trkpt><trkpt lat="31.0884846468" lon="35.0247360114"><ele>662.01</ele><time>2012-03-23T05:57:21Z</time></trkpt><trkpt lat="31.0884958785" lon="35.0247511826"><ele>662.49</ele><time>2012-03-23T05:57:22Z</time></trkpt><trkpt lat="31.0885080323" lon="35.0247656833"><ele>662.49</ele><time>2012-03-23T05:57:23Z</time></trkpt><trkpt lat="31.0887169931" lon="35.0249819364"><ele>664.89</ele><time>2012-03-23T05:57:39Z</time></trkpt><trkpt lat="31.0889629181" lon="35.0251639076"><ele>666.33</ele><time>2012-03-23T05:57:55Z</time></trkpt><trkpt lat="31.0892135371" lon="35.0253588706"><ele>668.25</ele><time>2012-03-23T05:58:11Z</time></trkpt><trkpt lat="31.0893908143" lon="35.0255892891"><ele>668.73</ele><time>2012-03-23T05:58:25Z</time></trkpt><trkpt lat="31.0894164629" lon="35.0256328750"><ele>669.22</ele><time>2012-03-23T05:58:28Z</time></trkpt><trkpt lat="31.0896260943" lon="35.0259126630"><ele>670.18</ele><time>2012-03-23T05:58:44Z</time></trkpt><trkpt lat="31.0896462947" lon="35.0259434246"><ele>670.18</ele><time>2012-03-23T05:58:46Z</time></trkpt><trkpt lat="31.0896605439" lon="35.0259557460"><ele>670.18</ele><time>2012-03-23T05:58:47Z</time></trkpt><trkpt lat="31.0896757152" lon="35.0259684864"><ele>670.66</ele><time>2012-03-23T05:58:48Z</time></trkpt><trkpt lat="31.0896910541" lon="35.0259841606"><ele>670.66</ele><time>2012-03-23T05:58:49Z</time></trkpt><trkpt lat="31.0897089913" lon="35.0260008406"><ele>670.66</ele><time>2012-03-23T05:58:50Z</time></trkpt><trkpt lat="31.0897283535" lon="35.0260195322"><ele>670.66</ele><time>2012-03-23T05:58:51Z</time></trkpt><trkpt lat="31.0897433572" lon="35.0260414928"><ele>670.66</ele><time>2012-03-23T05:58:52Z</time></trkpt><trkpt lat="31.0897566844" lon="35.0260624476"><ele>670.66</ele><time>2012-03-23T05:58:53Z</time></trkpt><trkpt lat="31.0897704307" lon="35.0260823127"><ele>670.66</ele><time>2012-03-23T05:58:54Z</time></trkpt><trkpt lat="31.0899896175" lon="35.0263399724"><ele>671.14</ele><time>2012-03-23T05:59:08Z</time></trkpt><trkpt lat="31.0902088042" lon="35.0266086962"><ele>671.62</ele><time>2012-03-23T05:59:22Z</time></trkpt><trkpt lat="31.0903567448" lon="35.0269418769"><ele>672.10</ele><time>2012-03-23T05:59:36Z</time></trkpt><trkpt lat="31.0904774442" lon="35.0273029692"><ele>671.14</ele><time>2012-03-23T05:59:53Z</time></trkpt><trkpt lat="31.0905798711" lon="35.0275853556"><ele>671.14</ele><time>2012-03-23T06:00:07Z</time></trkpt><trkpt lat="31.0906869080" lon="35.0279092323"><ele>671.14</ele><time>2012-03-23T06:00:21Z</time></trkpt><trkpt lat="31.0906921048" lon="35.0279371440"><ele>671.14</ele><time>2012-03-23T06:00:22Z</time></trkpt><trkpt lat="31.0907797795" lon="35.0282264035"><ele>671.62</ele><time>2012-03-23T06:00:34Z</time></trkpt><trkpt lat="31.0908740759" lon="35.0285134837"><ele>671.62</ele><time>2012-03-23T06:00:46Z</time></trkpt><trkpt lat="31.0909490939" lon="35.0288770068"><ele>670.66</ele><time>2012-03-23T06:00:58Z</time></trkpt><trkpt lat="31.0910234414" lon="35.0292898994"><ele>669.22</ele><time>2012-03-23T06:01:07Z</time></trkpt><trkpt lat="31.0911136307" lon="35.0296026282"><ele>667.77</ele><time>2012-03-23T06:01:13Z</time></trkpt><trkpt lat="31.0912033170" lon="35.0297592860"><ele>666.81</ele><time>2012-03-23T06:01:16Z</time></trkpt><trkpt lat="31.0915544350" lon="35.0302312709"><ele>662.01</ele><time>2012-03-23T06:01:25Z</time></trkpt><trkpt lat="31.0918082390" lon="35.0306000747"><ele>660.56</ele><time>2012-03-23T06:01:34Z</time></trkpt><trkpt lat="31.0918262601" lon="35.0306426547"><ele>660.56</ele><time>2012-03-23T06:01:35Z</time></trkpt><trkpt lat="31.0919385776" lon="35.0310422201"><ele>660.08</ele><time>2012-03-23T06:01:47Z</time></trkpt><trkpt lat="31.0920009390" lon="35.0315094274"><ele>659.12</ele><time>2012-03-23T06:02:00Z</time></trkpt><trkpt lat="31.0919775534" lon="35.0319849327"><ele>658.64</ele><time>2012-03-23T06:02:13Z</time></trkpt><trkpt lat="31.0919396672" lon="35.0323346257"><ele>658.16</ele><time>2012-03-23T06:02:22Z</time></trkpt><trkpt lat="31.0919489712" lon="35.0323811453"><ele>658.16</ele><time>2012-03-23T06:02:23Z</time></trkpt><trkpt lat="31.0919575207" lon="35.0324317720"><ele>658.16</ele><time>2012-03-23T06:02:24Z</time></trkpt><trkpt lat="31.0919628851" lon="35.0324863382"><ele>657.68</ele><time>2012-03-23T06:02:25Z</time></trkpt><trkpt lat="31.0919658188" lon="35.0325407367"><ele>657.68</ele><time>2012-03-23T06:02:26Z</time></trkpt><trkpt lat="31.0919874441" lon="35.0330241211"><ele>657.68</ele><time>2012-03-23T06:02:36Z</time></trkpt><trkpt lat="31.0919982567" lon="35.0330706406"><ele>657.68</ele><time>2012-03-23T06:02:37Z</time></trkpt><trkpt lat="31.0920113325" lon="35.0331145618"><ele>657.68</ele><time>2012-03-23T06:02:38Z</time></trkpt><trkpt lat="31.0920244921" lon="35.0331588183"><ele>657.68</ele><time>2012-03-23T06:02:39Z</time></trkpt><trkpt lat="31.0920355562" lon="35.0332050864"><ele>657.68</ele><time>2012-03-23T06:02:40Z</time></trkpt><trkpt lat="31.0920456983" lon="35.0332526118"><ele>657.68</ele><time>2012-03-23T06:02:41Z</time></trkpt><trkpt lat="31.0920860153" lon="35.0336541049"><ele>658.64</ele><time>2012-03-23T06:02:51Z</time></trkpt><trkpt lat="31.0922429245" lon="35.0342521537"><ele>657.20</ele><time>2012-03-23T06:03:06Z</time></trkpt><trkpt lat="31.0922658071" lon="35.0344042014"><ele>657.20</ele><time>2012-03-23T06:03:10Z</time></trkpt><trkpt lat="31.0922883544" lon="35.0346449297"><ele>656.24</ele><time>2012-03-23T06:03:15Z</time></trkpt><trkpt lat="31.0923247319" lon="35.0347990729"><ele>656.24</ele><time>2012-03-23T06:03:18Z</time></trkpt><trkpt lat="31.0924272425" lon="35.0350568164"><ele>655.76</ele><time>2012-03-23T06:03:23Z</time></trkpt><trkpt lat="31.0925166775" lon="35.0353955291"><ele>653.83</ele><time>2012-03-23T06:03:28Z</time></trkpt><trkpt lat="31.0925196949" lon="35.0360219087"><ele>652.39</ele><time>2012-03-23T06:03:38Z</time></trkpt><trkpt lat="31.0925817210" lon="35.0364671554"><ele>652.39</ele><time>2012-03-23T06:03:46Z</time></trkpt><trkpt lat="31.0926500335" lon="35.0372878276"><ele>651.91</ele><time>2012-03-23T06:04:01Z</time></trkpt><trkpt lat="31.0926537216" lon="35.0373401307"><ele>651.91</ele><time>2012-03-23T06:04:02Z</time></trkpt><trkpt lat="31.0924629495" lon="35.0380549394"><ele>652.87</ele><time>2012-03-23T06:04:17Z</time></trkpt><trkpt lat="31.0923163500" lon="35.0383261777"><ele>652.39</ele><time>2012-03-23T06:04:29Z</time></trkpt><trkpt lat="31.0923461057" lon="35.0384024531"><ele>652.39</ele><time>2012-03-23T06:04:34Z</time></trkpt><trkpt lat="31.0925482772" lon="35.0385187101"><ele>649.51</ele><time>2012-03-23T06:04:47Z</time></trkpt><trkpt lat="31.0927853175" lon="35.0387290120"><ele>643.26</ele><time>2012-03-23T06:04:58Z</time></trkpt><trkpt lat="31.0928050987" lon="35.0388719235"><ele>640.38</ele><time>2012-03-23T06:05:02Z</time></trkpt><trkpt lat="31.0928427335" lon="35.0390084647"><ele>637.97</ele><time>2012-03-23T06:05:06Z</time></trkpt><trkpt lat="31.0929770116" lon="35.0394553039"><ele>631.24</ele><time>2012-03-23T06:05:18Z</time></trkpt><trkpt lat="31.0931122955" lon="35.0398635026"><ele>623.55</ele><time>2012-03-23T06:05:30Z</time></trkpt><trkpt lat="31.0932859685" lon="35.0400726311"><ele>620.19</ele><time>2012-03-23T06:05:35Z</time></trkpt><trkpt lat="31.0935323965" lon="35.0403179694"><ele>618.75</ele><time>2012-03-23T06:05:40Z</time></trkpt><trkpt lat="31.0937179718" lon="35.0404801592"><ele>621.63</ele><time>2012-03-23T06:05:48Z</time></trkpt><trkpt lat="31.0939306207" lon="35.0406624656"><ele>624.51</ele><time>2012-03-23T06:06:03Z</time></trkpt><trkpt lat="31.0941368993" lon="35.0408379827"><ele>627.40</ele><time>2012-03-23T06:06:18Z</time></trkpt><trkpt lat="31.0943592712" lon="35.0410124101"><ele>630.28</ele><time>2012-03-23T06:06:34Z</time></trkpt><trkpt lat="31.0943701677" lon="35.0410224684"><ele>630.76</ele><time>2012-03-23T06:06:35Z</time></trkpt><trkpt lat="31.0943813156" lon="35.0410340354"><ele>631.24</ele><time>2012-03-23T06:06:36Z</time></trkpt><trkpt lat="31.0943936370" lon="35.0410425011"><ele>631.24</ele><time>2012-03-23T06:06:37Z</time></trkpt><trkpt lat="31.0944054555" lon="35.0410505477"><ele>631.72</ele><time>2012-03-23T06:06:38Z</time></trkpt><trkpt lat="31.0944163520" lon="35.0410585944"><ele>631.72</ele><time>2012-03-23T06:06:39Z</time></trkpt><trkpt lat="31.0944270808" lon="35.0410656352"><ele>631.72</ele><time>2012-03-23T06:06:40Z</time></trkpt><trkpt lat="31.0944389831" lon="35.0410727598"><ele>632.20</ele><time>2012-03-23T06:06:41Z</time></trkpt><trkpt lat="31.0944515560" lon="35.0410796329"><ele>632.20</ele><time>2012-03-23T06:06:42Z</time></trkpt><trkpt lat="31.0944647156" lon="35.0410858355"><ele>632.20</ele><time>2012-03-23T06:06:43Z</time></trkpt><trkpt lat="31.0944761150" lon="35.0410951395"><ele>632.20</ele><time>2012-03-23T06:06:44Z</time></trkpt><trkpt lat="31.0944873467" lon="35.0411043596"><ele>632.20</ele><time>2012-03-23T06:06:45Z</time></trkpt><trkpt lat="31.0944989976" lon="35.0411123224"><ele>632.20</ele><time>2012-03-23T06:06:46Z</time></trkpt><trkpt lat="31.0945141688" lon="35.0411153398"><ele>632.68</ele><time>2012-03-23T06:06:47Z</time></trkpt><trkpt lat="31.0945247300" lon="35.0411226321"><ele>633.17</ele><time>2012-03-23T06:06:48Z</time></trkpt><trkpt lat="31.0945357941" lon="35.0411295891"><ele>633.17</ele><time>2012-03-23T06:06:49Z</time></trkpt><trkpt lat="31.0945463553" lon="35.0411393959"><ele>633.17</ele><time>2012-03-23T06:06:50Z</time></trkpt><trkpt lat="31.0945569165" lon="35.0411502086"><ele>633.17</ele><time>2012-03-23T06:06:51Z</time></trkpt><trkpt lat="31.0945858341" lon="35.0411791261"><ele>633.17</ele><time>2012-03-23T06:06:54Z</time></trkpt><trkpt lat="31.0945953894" lon="35.0411875919"><ele>633.17</ele><time>2012-03-23T06:06:55Z</time></trkpt><trkpt lat="31.0946041066" lon="35.0411995780"><ele>633.17</ele><time>2012-03-23T06:06:56Z</time></trkpt><trkpt lat="31.0946155898" lon="35.0412108935"><ele>633.65</ele><time>2012-03-23T06:06:57Z</time></trkpt><trkpt lat="31.0946248099" lon="35.0412223767"><ele>633.65</ele><time>2012-03-23T06:06:58Z</time></trkpt><trkpt lat="31.0946326889" lon="35.0412362069"><ele>634.13</ele><time>2012-03-23T06:06:59Z</time></trkpt><trkpt lat="31.0946392268" lon="35.0412497856"><ele>634.13</ele><time>2012-03-23T06:07:00Z</time></trkpt><trkpt lat="31.0946466029" lon="35.0412632804"><ele>634.61</ele><time>2012-03-23T06:07:01Z</time></trkpt><trkpt lat="31.0947181005" lon="35.0413695630"><ele>636.53</ele><time>2012-03-23T06:07:10Z</time></trkpt><trkpt lat="31.0947259795" lon="35.0413796213"><ele>636.53</ele><time>2012-03-23T06:07:11Z</time></trkpt><trkpt lat="31.0947335232" lon="35.0413931161"><ele>637.01</ele><time>2012-03-23T06:07:12Z</time></trkpt><trkpt lat="31.0948766861" lon="35.0415843911"><ele>638.45</ele><time>2012-03-23T06:07:29Z</time></trkpt><trkpt lat="31.0949386284" lon="35.0416838843"><ele>639.41</ele><time>2012-03-23T06:07:37Z</time></trkpt><trkpt lat="31.0949441604" lon="35.0416990556"><ele>639.41</ele><time>2012-03-23T06:07:38Z</time></trkpt><trkpt lat="31.0949520394" lon="35.0417158194"><ele>639.41</ele><time>2012-03-23T06:07:39Z</time></trkpt><trkpt lat="31.0949609242" lon="35.0417306554"><ele>639.89</ele><time>2012-03-23T06:07:40Z</time></trkpt><trkpt lat="31.0949675459" lon="35.0417426415"><ele>639.89</ele><time>2012-03-23T06:07:41Z</time></trkpt><trkpt lat="31.0949745029" lon="35.0417557172"><ele>639.89</ele><time>2012-03-23T06:07:42Z</time></trkpt><trkpt lat="31.0949820466" lon="35.0417722296"><ele>639.89</ele><time>2012-03-23T06:07:43Z</time></trkpt><trkpt lat="31.0949870758" lon="35.0417915080"><ele>639.89</ele><time>2012-03-23T06:07:44Z</time></trkpt><trkpt lat="31.0949945357" lon="35.0418098643"><ele>639.89</ele><time>2012-03-23T06:07:45Z</time></trkpt><trkpt lat="31.0949983913" lon="35.0418300647"><ele>639.89</ele><time>2012-03-23T06:07:46Z</time></trkpt><trkpt lat="31.0949987266" lon="35.0418523606"><ele>639.89</ele><time>2012-03-23T06:07:47Z</time></trkpt><trkpt lat="31.0950180050" lon="35.0419712998"><ele>639.89</ele><time>2012-03-23T06:07:54Z</time></trkpt><trkpt lat="31.0950238723" lon="35.0419862196"><ele>639.89</ele><time>2012-03-23T06:07:55Z</time></trkpt><trkpt lat="31.0950312484" lon="35.0420035701"><ele>639.89</ele><time>2012-03-23T06:07:56Z</time></trkpt><trkpt lat="31.0950417258" lon="35.0420245249"><ele>639.89</ele><time>2012-03-23T06:07:57Z</time></trkpt><trkpt lat="31.0950506944" lon="35.0420475751"><ele>639.89</ele><time>2012-03-23T06:07:58Z</time></trkpt><trkpt lat="31.0950586572" lon="35.0420695357"><ele>639.89</ele><time>2012-03-23T06:07:59Z</time></trkpt><trkpt lat="31.0950682126" lon="35.0420906581"><ele>639.89</ele><time>2012-03-23T06:08:00Z</time></trkpt><trkpt lat="31.0950770136" lon="35.0421090983"><ele>639.41</ele><time>2012-03-23T06:08:01Z</time></trkpt><trkpt lat="31.0950895026" lon="35.0421270356"><ele>639.41</ele><time>2012-03-23T06:08:02Z</time></trkpt><trkpt lat="31.0952740721" lon="35.0424316339"><ele>640.86</ele><time>2012-03-23T06:08:19Z</time></trkpt><trkpt lat="31.0954208393" lon="35.0426390022"><ele>643.74</ele><time>2012-03-23T06:08:33Z</time></trkpt><trkpt lat="31.0956879705" lon="35.0428062212"><ele>644.70</ele><time>2012-03-23T06:08:51Z</time></trkpt><trkpt lat="31.0959128570" lon="35.0428819936"><ele>644.70</ele><time>2012-03-23T06:09:04Z</time></trkpt><trkpt lat="31.0961838439" lon="35.0430510566"><ele>646.14</ele><time>2012-03-23T06:09:20Z</time></trkpt><trkpt lat="31.0963829979" lon="35.0432875939"><ele>646.14</ele><time>2012-03-23T06:09:32Z</time></trkpt><trkpt lat="31.0966655519" lon="35.0432257354"><ele>643.74</ele><time>2012-03-23T06:09:42Z</time></trkpt><trkpt lat="31.0969147459" lon="35.0431192853"><ele>641.34</ele><time>2012-03-23T06:09:49Z</time></trkpt><trkpt lat="31.0969645344" lon="35.0431131665"><ele>640.86</ele><time>2012-03-23T06:09:50Z</time></trkpt><trkpt lat="31.0970165022" lon="35.0431153458"><ele>640.38</ele><time>2012-03-23T06:09:51Z</time></trkpt><trkpt lat="31.0971198510" lon="35.0431399886"><ele>639.41</ele><time>2012-03-23T06:09:53Z</time></trkpt><trkpt lat="31.0971692204" lon="35.0431680679"><ele>638.93</ele><time>2012-03-23T06:09:54Z</time></trkpt><trkpt lat="31.0974004772" lon="35.0433504581"><ele>639.89</ele><time>2012-03-23T06:10:03Z</time></trkpt><trkpt lat="31.0976289678" lon="35.0435815472"><ele>642.30</ele><time>2012-03-23T06:10:19Z</time></trkpt><trkpt lat="31.0978635773" lon="35.0437715650"><ele>645.18</ele><time>2012-03-23T06:10:34Z</time></trkpt><trkpt lat="31.0980464704" lon="35.0439868122"><ele>647.59</ele><time>2012-03-23T06:10:50Z</time></trkpt><trkpt lat="31.0982769728" lon="35.0442662649"><ele>647.59</ele><time>2012-03-23T06:11:08Z</time></trkpt><trkpt lat="31.0985666513" lon="35.0443484075"><ele>647.59</ele><time>2012-03-23T06:11:22Z</time></trkpt><trkpt lat="31.0988351237" lon="35.0443499163"><ele>648.55</ele><time>2012-03-23T06:11:37Z</time></trkpt><trkpt lat="31.0991416499" lon="35.0444250181"><ele>649.03</ele><time>2012-03-23T06:11:52Z</time></trkpt><trkpt lat="31.0991968028" lon="35.0444428716"><ele>649.03</ele><time>2012-03-23T06:11:55Z</time></trkpt><trkpt lat="31.0992142372" lon="35.0444530975"><ele>649.03</ele><time>2012-03-23T06:11:56Z</time></trkpt><trkpt lat="31.0992294084" lon="35.0444630720"><ele>649.03</ele><time>2012-03-23T06:11:57Z</time></trkpt><trkpt lat="31.0992441606" lon="35.0444707833"><ele>649.03</ele><time>2012-03-23T06:11:58Z</time></trkpt><trkpt lat="31.0992600862" lon="35.0444790814"><ele>649.03</ele><time>2012-03-23T06:11:59Z</time></trkpt><trkpt lat="31.0994454939" lon="35.0446106773"><ele>650.47</ele><time>2012-03-23T06:12:12Z</time></trkpt><trkpt lat="31.0996751580" lon="35.0446810853"><ele>652.39</ele><time>2012-03-23T06:12:28Z</time></trkpt><trkpt lat="31.0996915027" lon="35.0446804147"><ele>651.91</ele><time>2012-03-23T06:12:29Z</time></trkpt><trkpt lat="31.0998432990" lon="35.0446890481"><ele>652.87</ele><time>2012-03-23T06:12:40Z</time></trkpt><trkpt lat="31.0998583026" lon="35.0446911436"><ele>653.35</ele><time>2012-03-23T06:12:41Z</time></trkpt><trkpt lat="31.0998737253" lon="35.0446928199"><ele>653.35</ele><time>2012-03-23T06:12:42Z</time></trkpt><trkpt lat="31.0998888966" lon="35.0446968433"><ele>653.83</ele><time>2012-03-23T06:12:43Z</time></trkpt><trkpt lat="31.0999044869" lon="35.0447017048"><ele>653.83</ele><time>2012-03-23T06:12:44Z</time></trkpt><trkpt lat="31.0999187361" lon="35.0447100028"><ele>654.31</ele><time>2012-03-23T06:12:45Z</time></trkpt><trkpt lat="31.0999315605" lon="35.0447185524"><ele>654.31</ele><time>2012-03-23T06:12:46Z</time></trkpt><trkpt lat="31.1001131963" lon="35.0447177980"><ele>655.28</ele><time>2012-03-23T06:13:00Z</time></trkpt><trkpt lat="31.1001579557" lon="35.0447043870"><ele>655.28</ele><time>2012-03-23T06:13:03Z</time></trkpt><trkpt lat="31.1001739651" lon="35.0447033811"><ele>655.76</ele><time>2012-03-23T06:13:04Z</time></trkpt><trkpt lat="31.1001888011" lon="35.0447006151"><ele>655.76</ele><time>2012-03-23T06:13:05Z</time></trkpt><trkpt lat="31.1002037209" lon="35.0446981844"><ele>655.76</ele><time>2012-03-23T06:13:06Z</time></trkpt><trkpt lat="31.1002184730" lon="35.0446979329"><ele>655.76</ele><time>2012-03-23T06:13:07Z</time></trkpt><trkpt lat="31.1002318002" lon="35.0447027944"><ele>655.76</ele><time>2012-03-23T06:13:08Z</time></trkpt><trkpt lat="31.1002446245" lon="35.0447068177"><ele>656.24</ele><time>2012-03-23T06:13:09Z</time></trkpt><trkpt lat="31.1002571974" lon="35.0447104219"><ele>656.24</ele><time>2012-03-23T06:13:10Z</time></trkpt><trkpt lat="31.1002686806" lon="35.0447151158"><ele>656.72</ele><time>2012-03-23T06:13:11Z</time></trkpt><trkpt lat="31.1004501488" lon="35.0448401738"><ele>658.64</ele><time>2012-03-23T06:13:28Z</time></trkpt><trkpt lat="31.1005005240" lon="35.0448471308"><ele>659.12</ele><time>2012-03-23T06:13:32Z</time></trkpt><trkpt lat="31.1005130969" lon="35.0448476337"><ele>659.12</ele><time>2012-03-23T06:13:33Z</time></trkpt><trkpt lat="31.1005287711" lon="35.0448493939"><ele>659.12</ele><time>2012-03-23T06:13:34Z</time></trkpt><trkpt lat="31.1005441938" lon="35.0448550098"><ele>659.60</ele><time>2012-03-23T06:13:35Z</time></trkpt><trkpt lat="31.1005596165" lon="35.0448610447"><ele>659.60</ele><time>2012-03-23T06:13:36Z</time></trkpt><trkpt lat="31.1005741172" lon="35.0448631402"><ele>659.60</ele><time>2012-03-23T06:13:37Z</time></trkpt><trkpt lat="31.1005893722" lon="35.0448640622"><ele>659.60</ele><time>2012-03-23T06:13:38Z</time></trkpt><trkpt lat="31.1006346345" lon="35.0448749587"><ele>660.08</ele><time>2012-03-23T06:13:41Z</time></trkpt><trkpt lat="31.1006482970" lon="35.0448824186"><ele>660.08</ele><time>2012-03-23T06:13:42Z</time></trkpt><trkpt lat="31.1006621271" lon="35.0448872801"><ele>660.56</ele><time>2012-03-23T06:13:43Z</time></trkpt><trkpt lat="31.1006759573" lon="35.0448933151"><ele>660.08</ele><time>2012-03-23T06:13:44Z</time></trkpt><trkpt lat="31.1006901227" lon="35.0448992662"><ele>660.08</ele><time>2012-03-23T06:13:45Z</time></trkpt><trkpt lat="31.1007026117" lon="35.0449064746"><ele>660.56</ele><time>2012-03-23T06:13:46Z</time></trkpt><trkpt lat="31.1007152684" lon="35.0449168682"><ele>660.56</ele><time>2012-03-23T06:13:47Z</time></trkpt><trkpt lat="31.1007297691" lon="35.0449260045"><ele>660.56</ele><time>2012-03-23T06:13:48Z</time></trkpt><trkpt lat="31.1009451002" lon="35.0450250786"><ele>661.04</ele><time>2012-03-23T06:14:03Z</time></trkpt><trkpt lat="31.1011083797" lon="35.0451442692"><ele>661.52</ele><time>2012-03-23T06:14:13Z</time></trkpt><trkpt lat="31.1012981459" lon="35.0452967361"><ele>662.97</ele><time>2012-03-23T06:14:27Z</time></trkpt><trkpt lat="31.1014719028" lon="35.0454888493"><ele>664.89</ele><time>2012-03-23T06:14:43Z</time></trkpt><trkpt lat="31.1015956197" lon="35.0456236303"><ele>665.37</ele><time>2012-03-23T06:14:54Z</time></trkpt><trkpt lat="31.1016035825" lon="35.0456316769"><ele>665.37</ele><time>2012-03-23T06:14:55Z</time></trkpt><trkpt lat="31.1016121320" lon="35.0456390530"><ele>665.37</ele><time>2012-03-23T06:14:56Z</time></trkpt><trkpt lat="31.1016164068" lon="35.0456537213"><ele>665.37</ele><time>2012-03-23T06:14:57Z</time></trkpt><trkpt lat="31.1016212683" lon="35.0456714910"><ele>664.89</ele><time>2012-03-23T06:14:58Z</time></trkpt><trkpt lat="31.1016288958" lon="35.0456876680"><ele>664.89</ele><time>2012-03-23T06:14:59Z</time></trkpt><trkpt lat="31.1016403791" lon="35.0456983130"><ele>664.89</ele><time>2012-03-23T06:15:00Z</time></trkpt><trkpt lat="31.1018141359" lon="35.0459067710"><ele>665.37</ele><time>2012-03-23T06:15:16Z</time></trkpt><trkpt lat="31.1019626632" lon="35.0460879877"><ele>667.29</ele><time>2012-03-23T06:15:29Z</time></trkpt><trkpt lat="31.1021304689" lon="35.0462966971"><ele>667.77</ele><time>2012-03-23T06:15:44Z</time></trkpt><trkpt lat="31.1021370906" lon="35.0463122874"><ele>667.77</ele><time>2012-03-23T06:15:45Z</time></trkpt><trkpt lat="31.1021434609" lon="35.0463287160"><ele>667.77</ele><time>2012-03-23T06:15:46Z</time></trkpt><trkpt lat="31.1021514237" lon="35.0463469047"><ele>667.77</ele><time>2012-03-23T06:15:47Z</time></trkpt><trkpt lat="31.1021574587" lon="35.0463669375"><ele>667.77</ele><time>2012-03-23T06:15:48Z</time></trkpt><trkpt lat="31.1021594703" lon="35.0463871378"><ele>667.77</ele><time>2012-03-23T06:15:49Z</time></trkpt><trkpt lat="31.1021620687" lon="35.0464045722"><ele>667.77</ele><time>2012-03-23T06:15:50Z</time></trkpt><trkpt lat="31.1021641642" lon="35.0464245211"><ele>668.25</ele><time>2012-03-23T06:15:51Z</time></trkpt><trkpt lat="31.1021613143" lon="35.0464461464"><ele>668.25</ele><time>2012-03-23T06:15:52Z</time></trkpt><trkpt lat="31.1021605600" lon="35.0464676879"><ele>667.77</ele><time>2012-03-23T06:15:53Z</time></trkpt><trkpt lat="31.1021437123" lon="35.0467464700"><ele>667.77</ele><time>2012-03-23T06:16:05Z</time></trkpt><trkpt lat="31.1021189857" lon="35.0470361486"><ele>667.29</ele><time>2012-03-23T06:16:18Z</time></trkpt><trkpt lat="31.1020347476" lon="35.0473834947"><ele>666.33</ele><time>2012-03-23T06:16:32Z</time></trkpt><trkpt lat="31.1019043252" lon="35.0478197727"><ele>664.89</ele><time>2012-03-23T06:16:44Z</time></trkpt><trkpt lat="31.1018372700" lon="35.0482275523"><ele>663.93</ele><time>2012-03-23T06:16:53Z</time></trkpt><trkpt lat="31.1018351745" lon="35.0482748263"><ele>663.93</ele><time>2012-03-23T06:16:54Z</time></trkpt><trkpt lat="31.1018417124" lon="35.0485634990"><ele>662.49</ele><time>2012-03-23T06:17:00Z</time></trkpt><trkpt lat="31.1018517707" lon="35.0486127008"><ele>662.49</ele><time>2012-03-23T06:17:01Z</time></trkpt><trkpt lat="31.1018597335" lon="35.0486618187"><ele>662.49</ele><time>2012-03-23T06:17:02Z</time></trkpt><trkpt lat="31.1018615775" lon="35.0487096794"><ele>662.01</ele><time>2012-03-23T06:17:03Z</time></trkpt><trkpt lat="31.1018600687" lon="35.0487542711"><ele>662.01</ele><time>2012-03-23T06:17:04Z</time></trkpt><trkpt lat="31.1018663552" lon="35.0491369050"><ele>662.97</ele><time>2012-03-23T06:17:16Z</time></trkpt><trkpt lat="31.1019503418" lon="35.0495428406"><ele>665.85</ele><time>2012-03-23T06:17:31Z</time></trkpt><trkpt lat="31.1020331550" lon="35.0497870892"><ele>668.25</ele><time>2012-03-23T06:17:44Z</time></trkpt><trkpt lat="31.1021209136" lon="35.0500994828"><ele>669.70</ele><time>2012-03-23T06:18:00Z</time></trkpt><trkpt lat="31.1021695286" lon="35.0504837930"><ele>670.18</ele><time>2012-03-23T06:18:17Z</time></trkpt><trkpt lat="31.1021548603" lon="35.0508053228"><ele>669.22</ele><time>2012-03-23T06:18:29Z</time></trkpt><trkpt lat="31.1021396890" lon="35.0512345601"><ele>667.77</ele><time>2012-03-23T06:18:42Z</time></trkpt><trkpt lat="31.1021337379" lon="35.0519038551"><ele>665.85</ele><time>2012-03-23T06:19:00Z</time></trkpt><trkpt lat="31.1021249369" lon="35.0523546338"><ele>666.33</ele><time>2012-03-23T06:19:15Z</time></trkpt><trkpt lat="31.1021397728" lon="35.0529073365"><ele>665.37</ele><time>2012-03-23T06:19:31Z</time></trkpt><trkpt lat="31.1022329796" lon="35.0536861829"><ele>661.52</ele><time>2012-03-23T06:19:47Z</time></trkpt><trkpt lat="31.1024349835" lon="35.0543598365"><ele>659.12</ele><time>2012-03-23T06:19:59Z</time></trkpt><trkpt lat="31.1024622247" lon="35.0544060208"><ele>659.12</ele><time>2012-03-23T06:20:00Z</time></trkpt><trkpt lat="31.1027767137" lon="35.0549221784"><ele>659.60</ele><time>2012-03-23T06:20:14Z</time></trkpt><trkpt lat="31.1030412465" lon="35.0554965902"><ele>661.04</ele><time>2012-03-23T06:20:29Z</time></trkpt><trkpt lat="31.1032998282" lon="35.0559942238"><ele>664.41</ele><time>2012-03-23T06:20:42Z</time></trkpt><trkpt lat="31.1035500281" lon="35.0564646162"><ele>664.89</ele><time>2012-03-23T06:20:57Z</time></trkpt><trkpt lat="31.1036698055" lon="35.0567020755"><ele>663.45</ele><time>2012-03-23T06:21:03Z</time></trkpt><trkpt lat="31.1037036683" lon="35.0568047538"><ele>662.97</ele><time>2012-03-23T06:21:05Z</time></trkpt><trkpt lat="31.1037305743" lon="35.0568508543"><ele>662.97</ele><time>2012-03-23T06:21:06Z</time></trkpt><trkpt lat="31.1037645210" lon="35.0568929315"><ele>662.49</ele><time>2012-03-23T06:21:07Z</time></trkpt><trkpt lat="31.1039197538" lon="35.0570640899"><ele>661.52</ele><time>2012-03-23T06:21:11Z</time></trkpt><trkpt lat="31.1039640103" lon="35.0570933428"><ele>661.04</ele><time>2012-03-23T06:21:12Z</time></trkpt><trkpt lat="31.1043568701" lon="35.0572974421"><ele>662.01</ele><time>2012-03-23T06:21:22Z</time></trkpt><trkpt lat="31.1049194634" lon="35.0574634038"><ele>664.41</ele><time>2012-03-23T06:21:38Z</time></trkpt><trkpt lat="31.1052584276" lon="35.0574883819"><ele>664.89</ele><time>2012-03-23T06:21:52Z</time></trkpt><trkpt lat="31.1056655366" lon="35.0574736297"><ele>663.93</ele><time>2012-03-23T06:22:09Z</time></trkpt><trkpt lat="31.1058044247" lon="35.0574566144"><ele>663.93</ele><time>2012-03-23T06:22:16Z</time></trkpt><trkpt lat="31.1058181711" lon="35.0574600510"><ele>663.93</ele><time>2012-03-23T06:22:17Z</time></trkpt><trkpt lat="31.1058292352" lon="35.0574590452"><ele>663.45</ele><time>2012-03-23T06:22:30Z</time></trkpt><trkpt lat="31.1058284808" lon="35.0574657507"><ele>663.45</ele><time>2012-03-23T06:22:50Z</time></trkpt><trkpt lat="31.1058340129" lon="35.0574601348"><ele>664.41</ele><time>2012-03-23T06:23:26Z</time></trkpt><trkpt lat="31.1058362760" lon="35.0574559439"><ele>664.89</ele><time>2012-03-23T06:24:01Z</time></trkpt><trkpt lat="31.1058384553" lon="35.0574572850"><ele>663.93</ele><time>2012-03-23T06:24:40Z</time></trkpt><trkpt lat="31.1058353540" lon="35.0574516691"><ele>663.45</ele><time>2012-03-23T06:25:17Z</time></trkpt><trkpt lat="31.1058350187" lon="35.0574487355"><ele>662.97</ele><time>2012-03-23T06:25:45Z</time></trkpt><trkpt lat="31.1058368627" lon="35.0574460533"><ele>662.97</ele><time>2012-03-23T06:26:19Z</time></trkpt><trkpt lat="31.1058392096" lon="35.0574499089"><ele>662.97</ele><time>2012-03-23T06:26:49Z</time></trkpt><trkpt lat="31.1058404669" lon="35.0574510824"><ele>662.97</ele><time>2012-03-23T06:27:11Z</time></trkpt><trkpt lat="31.1058423948" lon="35.0574531779"><ele>662.49</ele><time>2012-03-23T06:27:34Z</time></trkpt><trkpt lat="31.1058428138" lon="35.0574537646"><ele>662.49</ele><time>2012-03-23T06:27:52Z</time></trkpt><trkpt lat="31.1058555543" lon="35.0574492384"><ele>662.49</ele><time>2012-03-23T06:27:53Z</time></trkpt><trkpt lat="31.1058693007" lon="35.0574454665"><ele>662.01</ele><time>2012-03-23T06:27:54Z</time></trkpt><trkpt lat="31.1061648466" lon="35.0573699456"><ele>661.52</ele><time>2012-03-23T06:28:05Z</time></trkpt><trkpt lat="31.1063553672" lon="35.0572982803"><ele>660.56</ele><time>2012-03-23T06:28:10Z</time></trkpt><trkpt lat="31.1063947622" lon="35.0572773255"><ele>660.08</ele><time>2012-03-23T06:28:11Z</time></trkpt><trkpt lat="31.1070492212" lon="35.0569068454"><ele>653.83</ele><time>2012-03-23T06:28:24Z</time></trkpt><trkpt lat="31.1080486793" lon="35.0566017441"><ele>648.55</ele><time>2012-03-23T06:28:36Z</time></trkpt><trkpt lat="31.1084041558" lon="35.0564473495"><ele>651.43</ele><time>2012-03-23T06:28:44Z</time></trkpt><trkpt lat="31.1087351572" lon="35.0562026817"><ele>654.80</ele><time>2012-03-23T06:28:58Z</time></trkpt><trkpt lat="31.1091239098" lon="35.0558854267"><ele>659.12</ele><time>2012-03-23T06:29:17Z</time></trkpt><trkpt lat="31.1094783805" lon="35.0556674972"><ele>661.04</ele><time>2012-03-23T06:29:32Z</time></trkpt><trkpt lat="31.1098191049" lon="35.0554950815"><ele>663.93</ele><time>2012-03-23T06:29:47Z</time></trkpt><trkpt lat="31.1101640202" lon="35.0553421956"><ele>666.33</ele><time>2012-03-23T06:30:02Z</time></trkpt><trkpt lat="31.1105615739" lon="35.0553036388"><ele>664.89</ele><time>2012-03-23T06:30:15Z</time></trkpt><trkpt lat="31.1107007973" lon="35.0553485658"><ele>663.93</ele><time>2012-03-23T06:30:18Z</time></trkpt><trkpt lat="31.1107491609" lon="35.0553753041"><ele>663.45</ele><time>2012-03-23T06:30:19Z</time></trkpt><trkpt lat="31.1113509815" lon="35.0558493845"><ele>660.08</ele><time>2012-03-23T06:30:30Z</time></trkpt><trkpt lat="31.1115133390" lon="35.0560366362"><ele>660.56</ele><time>2012-03-23T06:30:35Z</time></trkpt><trkpt lat="31.1118740961" lon="35.0566340983"><ele>661.04</ele><time>2012-03-23T06:30:51Z</time></trkpt><trkpt lat="31.1119526345" lon="35.0569390319"><ele>660.08</ele><time>2012-03-23T06:30:56Z</time></trkpt><trkpt lat="31.1119652074" lon="35.0570662692"><ele>660.08</ele><time>2012-03-23T06:30:58Z</time></trkpt><trkpt lat="31.1119668838" lon="35.0571278762"><ele>660.08</ele><time>2012-03-23T06:30:59Z</time></trkpt><trkpt lat="31.1118774489" lon="35.0580463652"><ele>656.72</ele><time>2012-03-23T06:31:13Z</time></trkpt><trkpt lat="31.1118813884" lon="35.0582352933"><ele>655.28</ele><time>2012-03-23T06:31:15Z</time></trkpt><trkpt lat="31.1118753534" lon="35.0583352894"><ele>654.80</ele><time>2012-03-23T06:31:16Z</time></trkpt><trkpt lat="31.1118647922" lon="35.0584388897"><ele>653.83</ele><time>2012-03-23T06:31:17Z</time></trkpt><trkpt lat="31.1118473578" lon="35.0585445855"><ele>652.87</ele><time>2012-03-23T06:31:18Z</time></trkpt><trkpt lat="31.1118246429" lon="35.0586542208"><ele>652.39</ele><time>2012-03-23T06:31:19Z</time></trkpt><trkpt lat="31.1117045302" lon="35.0592614897"><ele>647.59</ele><time>2012-03-23T06:31:24Z</time></trkpt><trkpt lat="31.1117029376" lon="35.0596435368"><ele>645.66</ele><time>2012-03-23T06:31:27Z</time></trkpt><trkpt lat="31.1117234733" lon="35.0597644038"><ele>645.18</ele><time>2012-03-23T06:31:28Z</time></trkpt><trkpt lat="31.1117563304" lon="35.0598778948"><ele>644.70</ele><time>2012-03-23T06:31:29Z</time></trkpt><trkpt lat="31.1117984913" lon="35.0599843450"><ele>644.22</ele><time>2012-03-23T06:31:30Z</time></trkpt><trkpt lat="31.1118444242" lon="35.0600848440"><ele>644.22</ele><time>2012-03-23T06:31:31Z</time></trkpt><trkpt lat="31.1124754976" lon="35.0611914229"><ele>638.93</ele><time>2012-03-23T06:31:44Z</time></trkpt><trkpt lat="31.1128610652" lon="35.0617430359"><ele>636.05</ele><time>2012-03-23T06:31:51Z</time></trkpt><trkpt lat="31.1129028909" lon="35.0618135277"><ele>636.53</ele><time>2012-03-23T06:31:52Z</time></trkpt><trkpt lat="31.1129691917" lon="35.0619369932"><ele>637.01</ele><time>2012-03-23T06:31:54Z</time></trkpt><trkpt lat="31.1129888892" lon="35.0619910564"><ele>637.49</ele><time>2012-03-23T06:31:55Z</time></trkpt><trkpt lat="31.1131215747" lon="35.0624399073"><ele>642.30</ele><time>2012-03-23T06:32:07Z</time></trkpt><trkpt lat="31.1131910607" lon="35.0628849864"><ele>647.10</ele><time>2012-03-23T06:32:22Z</time></trkpt><trkpt lat="31.1134314537" lon="35.0633279700"><ele>648.07</ele><time>2012-03-23T06:32:41Z</time></trkpt><trkpt lat="31.1137219705" lon="35.0634886511"><ele>649.51</ele><time>2012-03-23T06:32:55Z</time></trkpt><trkpt lat="31.1140807159" lon="35.0635141321"><ele>650.95</ele><time>2012-03-23T06:33:11Z</time></trkpt><trkpt lat="31.1143660359" lon="35.0635333266"><ele>650.95</ele><time>2012-03-23T06:33:21Z</time></trkpt><trkpt lat="31.1148531083" lon="35.0637142919"><ele>650.95</ele><time>2012-03-23T06:33:35Z</time></trkpt><trkpt lat="31.1153422762" lon="35.0638901442"><ele>653.35</ele><time>2012-03-23T06:33:50Z</time></trkpt><trkpt lat="31.1157436017" lon="35.0642619655"><ele>653.35</ele><time>2012-03-23T06:34:06Z</time></trkpt><trkpt lat="31.1161901057" lon="35.0650793687"><ele>650.47</ele><time>2012-03-23T06:34:22Z</time></trkpt><trkpt lat="31.1163613480" lon="35.0653325021"><ele>649.99</ele><time>2012-03-23T06:34:27Z</time></trkpt><trkpt lat="31.1166758370" lon="35.0658355001"><ele>649.51</ele><time>2012-03-23T06:34:40Z</time></trkpt><trkpt lat="31.1170405336" lon="35.0664886180"><ele>647.10</ele><time>2012-03-23T06:34:53Z</time></trkpt><trkpt lat="31.1172331497" lon="35.0667447690"><ele>646.14</ele><time>2012-03-23T06:34:58Z</time></trkpt><trkpt lat="31.1179451086" lon="35.0672570709"><ele>639.89</ele><time>2012-03-23T06:35:13Z</time></trkpt><trkpt lat="31.1181533150" lon="35.0674087834"><ele>637.49</ele><time>2012-03-23T06:35:16Z</time></trkpt><trkpt lat="31.1188519467" lon="35.0683066528"><ele>629.32</ele><time>2012-03-23T06:35:27Z</time></trkpt><trkpt lat="31.1193290446" lon="35.0695057679"><ele>624.03</ele><time>2012-03-23T06:35:39Z</time></trkpt><trkpt lat="31.1192016397" lon="35.0707448646"><ele>617.30</ele><time>2012-03-23T06:35:50Z</time></trkpt><trkpt lat="31.1192068364" lon="35.0722018909"><ele>606.73</ele><time>2012-03-23T06:36:01Z</time></trkpt><trkpt lat="31.1192281265" lon="35.0725189783"><ele>605.29</ele><time>2012-03-23T06:36:07Z</time></trkpt><trkpt lat="31.1192390230" lon="35.0725635700"><ele>605.29</ele><time>2012-03-23T06:36:08Z</time></trkpt><trkpt lat="31.1192547809" lon="35.0726092514"><ele>604.81</ele><time>2012-03-23T06:36:09Z</time></trkpt><trkpt lat="31.1195824295" lon="35.0732233096"><ele>603.36</ele><time>2012-03-23T06:36:24Z</time></trkpt><trkpt lat="31.1196286138" lon="35.0733140856"><ele>603.85</ele><time>2012-03-23T06:36:28Z</time></trkpt><trkpt lat="31.1195950024" lon="35.0734473579"><ele>605.29</ele><time>2012-03-23T06:36:36Z</time></trkpt><trkpt lat="31.1194898933" lon="35.0737561472"><ele>606.25</ele><time>2012-03-23T06:36:51Z</time></trkpt><trkpt lat="31.1192597263" lon="35.0740108732"><ele>607.69</ele><time>2012-03-23T06:37:06Z</time></trkpt><trkpt lat="31.1189280543" lon="35.0742321555"><ele>608.17</ele><time>2012-03-23T06:37:22Z</time></trkpt><trkpt lat="31.1185889225" lon="35.0744622387"><ele>608.65</ele><time>2012-03-23T06:37:41Z</time></trkpt><trkpt lat="31.1184535548" lon="35.0745639112"><ele>608.65</ele><time>2012-03-23T06:37:55Z</time></trkpt><trkpt lat="31.1184392218" lon="35.0745949242"><ele>609.61</ele><time>2012-03-23T06:38:13Z</time></trkpt><trkpt lat="31.1184385512" lon="35.0745980255"><ele>610.09</ele><time>2012-03-23T06:39:00Z</time></trkpt><trkpt lat="31.1184431612" lon="35.0745984446"><ele>611.06</ele><time>2012-03-23T06:39:32Z</time></trkpt><trkpt lat="31.1184486095" lon="35.0745944213"><ele>612.50</ele><time>2012-03-23T06:40:18Z</time></trkpt><trkpt lat="31.1184434965" lon="35.0745989475"><ele>612.98</ele><time>2012-03-23T06:41:04Z</time></trkpt><trkpt lat="31.1184353661" lon="35.0745970197"><ele>612.98</ele><time>2012-03-23T06:41:40Z</time></trkpt><trkpt lat="31.1184344441" lon="35.0745946728"><ele>611.54</ele><time>2012-03-23T06:42:17Z</time></trkpt><trkpt lat="31.1184323486" lon="35.0745960977"><ele>610.57</ele><time>2012-03-23T06:42:59Z</time></trkpt><trkpt lat="31.1184332706" lon="35.0745948404"><ele>610.09</ele><time>2012-03-23T06:43:33Z</time></trkpt><trkpt lat="31.1184303369" lon="35.0745948404"><ele>610.09</ele><time>2012-03-23T06:44:07Z</time></trkpt><trkpt lat="31.1184327677" lon="35.0745887216"><ele>611.06</ele><time>2012-03-23T06:44:41Z</time></trkpt><trkpt lat="31.1184340250" lon="35.0745855365"><ele>611.54</ele><time>2012-03-23T06:45:22Z</time></trkpt><trkpt lat="31.1184298340" lon="35.0745883025"><ele>611.54</ele><time>2012-03-23T06:46:09Z</time></trkpt><trkpt lat="31.1184257269" lon="35.0745945890"><ele>611.06</ele><time>2012-03-23T06:46:52Z</time></trkpt><trkpt lat="31.1184295826" lon="35.0745899789"><ele>610.57</ele><time>2012-03-23T06:47:32Z</time></trkpt><trkpt lat="31.1184326001" lon="35.0745841116"><ele>610.57</ele><time>2012-03-23T06:48:07Z</time></trkpt><trkpt lat="31.1184329353" lon="35.0745865423"><ele>610.57</ele><time>2012-03-23T06:48:42Z</time></trkpt><trkpt lat="31.1184052750" lon="35.0746178068"><ele>611.54</ele><time>2012-03-23T06:48:59Z</time></trkpt><trkpt lat="31.1181959789" lon="35.0747787394"><ele>613.46</ele><time>2012-03-23T06:49:14Z</time></trkpt><trkpt lat="31.1179847550" lon="35.0749602076"><ele>614.90</ele><time>2012-03-23T06:49:29Z</time></trkpt><trkpt lat="31.1178146861" lon="35.0751486327"><ele>616.82</ele><time>2012-03-23T06:49:43Z</time></trkpt><trkpt lat="31.1176720262" lon="35.0753555819"><ele>619.71</ele><time>2012-03-23T06:49:59Z</time></trkpt><trkpt lat="31.1175593734" lon="35.0755255669"><ele>621.63</ele><time>2012-03-23T06:50:13Z</time></trkpt><trkpt lat="31.1174430326" lon="35.0757337734"><ele>624.03</ele><time>2012-03-23T06:50:31Z</time></trkpt><trkpt lat="31.1174138635" lon="35.0758133177"><ele>624.99</ele><time>2012-03-23T06:50:37Z</time></trkpt><trkpt lat="31.1173152924" lon="35.0759971328"><ele>628.36</ele><time>2012-03-23T06:50:53Z</time></trkpt><trkpt lat="31.1172196548" lon="35.0761622563"><ele>629.80</ele><time>2012-03-23T06:51:06Z</time></trkpt><trkpt lat="31.1171196587" lon="35.0763763301"><ele>632.20</ele><time>2012-03-23T06:51:22Z</time></trkpt><trkpt lat="31.1171036493" lon="35.0764161441"><ele>632.68</ele><time>2012-03-23T06:51:25Z</time></trkpt><trkpt lat="31.1170532741" lon="35.0766344927"><ele>634.61</ele><time>2012-03-23T06:51:40Z</time></trkpt><trkpt lat="31.1170282122" lon="35.0768470578"><ele>636.05</ele><time>2012-03-23T06:51:52Z</time></trkpt><trkpt lat="31.1169018131" lon="35.0771865249"><ele>635.09</ele><time>2012-03-23T06:52:04Z</time></trkpt><trkpt lat="31.1167065986" lon="35.0776585937"><ele>633.17</ele><time>2012-03-23T06:52:14Z</time></trkpt><trkpt lat="31.1163675506" lon="35.0785456505"><ele>631.24</ele><time>2012-03-23T06:52:30Z</time></trkpt><trkpt lat="31.1163041834" lon="35.0787003804"><ele>630.76</ele><time>2012-03-23T06:52:33Z</time></trkpt><trkpt lat="31.1160026863" lon="35.0792322960"><ele>630.28</ele><time>2012-03-23T06:52:46Z</time></trkpt><trkpt lat="31.1158818193" lon="35.0796109904"><ele>631.72</ele><time>2012-03-23T06:52:59Z</time></trkpt><trkpt lat="31.1157877743" lon="35.0799595099"><ele>634.61</ele><time>2012-03-23T06:53:13Z</time></trkpt><trkpt lat="31.1156611238" lon="35.0803637691"><ele>637.49</ele><time>2012-03-23T06:53:31Z</time></trkpt><trkpt lat="31.1155540030" lon="35.0807241071"><ele>637.97</ele><time>2012-03-23T06:53:46Z</time></trkpt><trkpt lat="31.1154729500" lon="35.0810620654"><ele>639.41</ele><time>2012-03-23T06:54:02Z</time></trkpt><trkpt lat="31.1153916456" lon="35.0813533366"><ele>641.34</ele><time>2012-03-23T06:54:17Z</time></trkpt><trkpt lat="31.1152559426" lon="35.0816367287"><ele>642.78</ele><time>2012-03-23T06:54:34Z</time></trkpt><trkpt lat="31.1150453892" lon="35.0818137545"><ele>643.74</ele><time>2012-03-23T06:54:50Z</time></trkpt><trkpt lat="31.1147776712" lon="35.0818498805"><ele>643.26</ele><time>2012-03-23T06:55:04Z</time></trkpt><trkpt lat="31.1144651938" lon="35.0819556601"><ele>643.26</ele><time>2012-03-23T06:55:17Z</time></trkpt><trkpt lat="31.1142172571" lon="35.0821829773"><ele>643.26</ele><time>2012-03-23T06:55:29Z</time></trkpt><trkpt lat="31.1138352100" lon="35.0823500287"><ele>640.38</ele><time>2012-03-23T06:55:42Z</time></trkpt><trkpt lat="31.1133538373" lon="35.0823680498"><ele>633.65</ele><time>2012-03-23T06:55:52Z</time></trkpt><trkpt lat="31.1132371612" lon="35.0824127253"><ele>632.68</ele><time>2012-03-23T06:55:54Z</time></trkpt><trkpt lat="31.1127631646" lon="35.0826183334"><ele>630.76</ele><time>2012-03-23T06:56:02Z</time></trkpt><trkpt lat="31.1127251945" lon="35.0826288108"><ele>630.76</ele><time>2012-03-23T06:56:03Z</time></trkpt><trkpt lat="31.1123561393" lon="35.0827662740"><ele>634.13</ele><time>2012-03-23T06:56:17Z</time></trkpt><trkpt lat="31.1120274011" lon="35.0828997139"><ele>636.53</ele><time>2012-03-23T06:56:31Z</time></trkpt><trkpt lat="31.1115931347" lon="35.0830614846"><ele>636.53</ele><time>2012-03-23T06:56:49Z</time></trkpt><trkpt lat="31.1113797314" lon="35.0833228324"><ele>635.09</ele><time>2012-03-23T06:56:59Z</time></trkpt><trkpt lat="31.1113220640" lon="35.0835317094"><ele>633.17</ele><time>2012-03-23T06:57:03Z</time></trkpt><trkpt lat="31.1112743709" lon="35.0842971448"><ele>626.44</ele><time>2012-03-23T06:57:13Z</time></trkpt><trkpt lat="31.1113171186" lon="35.0849593151"><ele>620.19</ele><time>2012-03-23T06:57:22Z</time></trkpt><trkpt lat="31.1113560107" lon="35.0851279590"><ele>618.75</ele><time>2012-03-23T06:57:25Z</time></trkpt><trkpt lat="31.1113883648" lon="35.0851736404"><ele>618.26</ele><time>2012-03-23T06:57:26Z</time></trkpt><trkpt lat="31.1114361417" lon="35.0852038153"><ele>617.30</ele><time>2012-03-23T06:57:27Z</time></trkpt><trkpt lat="31.1114898697" lon="35.0852200761"><ele>616.82</ele><time>2012-03-23T06:57:28Z</time></trkpt><trkpt lat="31.1115425080" lon="35.0852349121"><ele>616.34</ele><time>2012-03-23T06:57:29Z</time></trkpt><trkpt lat="31.1115917936" lon="35.0852481555"><ele>616.34</ele><time>2012-03-23T06:57:30Z</time></trkpt><trkpt lat="31.1116375588" lon="35.0852574594"><ele>616.34</ele><time>2012-03-23T06:57:31Z</time></trkpt><trkpt lat="31.1119236331" lon="35.0853135344"><ele>616.82</ele><time>2012-03-23T06:57:42Z</time></trkpt><trkpt lat="31.1120689753" lon="35.0853976049"><ele>615.38</ele><time>2012-03-23T06:57:49Z</time></trkpt><trkpt lat="31.1121301632" lon="35.0854942482"><ele>613.46</ele><time>2012-03-23T06:57:51Z</time></trkpt><trkpt lat="31.1121586617" lon="35.0855545141"><ele>612.98</ele><time>2012-03-23T06:57:52Z</time></trkpt><trkpt lat="31.1121732462" lon="35.0856171269"><ele>612.98</ele><time>2012-03-23T06:57:53Z</time></trkpt><trkpt lat="31.1121684685" lon="35.0856745429"><ele>612.98</ele><time>2012-03-23T06:57:54Z</time></trkpt><trkpt lat="31.1121564824" lon="35.0857200567"><ele>613.46</ele><time>2012-03-23T06:57:55Z</time></trkpt><trkpt lat="31.1121478491" lon="35.0857519917"><ele>613.46</ele><time>2012-03-23T06:57:56Z</time></trkpt><trkpt lat="31.1121436581" lon="35.0857783947"><ele>613.94</ele><time>2012-03-23T06:57:57Z</time></trkpt><trkpt lat="31.1121436581" lon="35.0858040433"><ele>613.94</ele><time>2012-03-23T06:57:58Z</time></trkpt><trkpt lat="31.1122350208" lon="35.0860761199"><ele>614.90</ele><time>2012-03-23T06:58:09Z</time></trkpt><trkpt lat="31.1124011502" lon="35.0864222925"><ele>612.98</ele><time>2012-03-23T06:58:19Z</time></trkpt><trkpt lat="31.1124484241" lon="35.0865325984"><ele>612.98</ele><time>2012-03-23T06:58:21Z</time></trkpt><trkpt lat="31.1125213467" lon="35.0868122187"><ele>615.38</ele><time>2012-03-23T06:58:30Z</time></trkpt><trkpt lat="31.1125321593" lon="35.0869151484"><ele>615.86</ele><time>2012-03-23T06:58:34Z</time></trkpt><trkpt lat="31.1123421416" lon="35.0871212594"><ele>612.02</ele><time>2012-03-23T06:58:44Z</time></trkpt><trkpt lat="31.1122430675" lon="35.0874904823"><ele>610.09</ele><time>2012-03-23T06:58:54Z</time></trkpt><trkpt lat="31.1122838873" lon="35.0878393371"><ele>611.06</ele><time>2012-03-23T06:59:06Z</time></trkpt><trkpt lat="31.1124749947" lon="35.0880877767"><ele>609.61</ele><time>2012-03-23T06:59:18Z</time></trkpt><trkpt lat="31.1126226000" lon="35.0883596856"><ele>608.65</ele><time>2012-03-23T06:59:31Z</time></trkpt><trkpt lat="31.1127272900" lon="35.0886057783"><ele>608.65</ele><time>2012-03-23T06:59:43Z</time></trkpt><trkpt lat="31.1128924135" lon="35.0888569839"><ele>607.69</ele><time>2012-03-23T06:59:55Z</time></trkpt><trkpt lat="31.1130005401" lon="35.0890079420"><ele>610.09</ele><time>2012-03-23T07:00:08Z</time></trkpt><trkpt lat="31.1130162142" lon="35.0890206825"><ele>610.57</ele><time>2012-03-23T07:00:09Z</time></trkpt><trkpt lat="31.1130254343" lon="35.0890314952"><ele>610.57</ele><time>2012-03-23T07:00:10Z</time></trkpt><trkpt lat="31.1130364146" lon="35.0890418887"><ele>611.06</ele><time>2012-03-23T07:00:11Z</time></trkpt><trkpt lat="31.1130494066" lon="35.0890524499"><ele>611.06</ele><time>2012-03-23T07:00:12Z</time></trkpt><trkpt lat="31.1130598001" lon="35.0890643522"><ele>611.54</ele><time>2012-03-23T07:00:13Z</time></trkpt><trkpt lat="31.1131276097" lon="35.0891394541"><ele>612.98</ele><time>2012-03-23T07:00:19Z</time></trkpt><trkpt lat="31.1131357402" lon="35.0891539548"><ele>613.46</ele><time>2012-03-23T07:00:20Z</time></trkpt><trkpt lat="31.1131449603" lon="35.0891701318"><ele>613.94</ele><time>2012-03-23T07:00:21Z</time></trkpt><trkpt lat="31.1131537613" lon="35.0891843811"><ele>614.42</ele><time>2012-03-23T07:00:22Z</time></trkpt><trkpt lat="31.1131628975" lon="35.0891981274"><ele>614.42</ele><time>2012-03-23T07:00:23Z</time></trkpt><trkpt lat="31.1131716147" lon="35.0892117061"><ele>614.90</ele><time>2012-03-23T07:00:24Z</time></trkpt><trkpt lat="31.1132776458" lon="35.0893760752"><ele>618.75</ele><time>2012-03-23T07:00:36Z</time></trkpt><trkpt lat="31.1134346388" lon="35.0895475689"><ele>621.63</ele><time>2012-03-23T07:00:52Z</time></trkpt><trkpt lat="31.1135374848" lon="35.0896612275"><ele>625.47</ele><time>2012-03-23T07:01:02Z</time></trkpt><trkpt lat="31.1135447770" lon="35.0896722917"><ele>625.96</ele><time>2012-03-23T07:01:03Z</time></trkpt><trkpt lat="31.1135536619" lon="35.0896807574"><ele>625.96</ele><time>2012-03-23T07:01:04Z</time></trkpt><trkpt lat="31.1135949008" lon="35.0897287857"><ele>627.40</ele><time>2012-03-23T07:01:09Z</time></trkpt><trkpt lat="31.1136037856" lon="35.0897458009"><ele>628.36</ele><time>2012-03-23T07:01:23Z</time></trkpt><trkpt lat="31.1136073899" lon="35.0897576194"><ele>628.36</ele><time>2012-03-23T07:01:32Z</time></trkpt><trkpt lat="31.1136118323" lon="35.0897851121"><ele>628.36</ele><time>2012-03-23T07:01:33Z</time></trkpt><trkpt lat="31.1136187892" lon="35.0898227468"><ele>627.88</ele><time>2012-03-23T07:01:34Z</time></trkpt><trkpt lat="31.1136680748" lon="35.0900871959"><ele>626.44</ele><time>2012-03-23T07:01:42Z</time></trkpt><trkpt lat="31.1136829108" lon="35.0901191309"><ele>625.96</ele><time>2012-03-23T07:01:45Z</time></trkpt><trkpt lat="31.1136896163" lon="35.0901431032"><ele>625.47</ele><time>2012-03-23T07:01:46Z</time></trkpt><trkpt lat="31.1137092300" lon="35.0905082189"><ele>622.11</ele><time>2012-03-23T07:01:56Z</time></trkpt><trkpt lat="31.1137311906" lon="35.0906803831"><ele>620.67</ele><time>2012-03-23T07:01:59Z</time></trkpt><trkpt lat="31.1137523130" lon="35.0907341111"><ele>620.67</ele><time>2012-03-23T07:02:00Z</time></trkpt><trkpt lat="31.1137798894" lon="35.0907762721"><ele>620.19</ele><time>2012-03-23T07:02:01Z</time></trkpt><trkpt lat="31.1137991678" lon="35.0908130687"><ele>620.19</ele><time>2012-03-23T07:02:02Z</time></trkpt><trkpt lat="31.1138092261" lon="35.0908475183"><ele>620.19</ele><time>2012-03-23T07:02:03Z</time></trkpt><trkpt lat="31.1138120759" lon="35.0908823032"><ele>620.19</ele><time>2012-03-23T07:02:04Z</time></trkpt><trkpt lat="31.1138904467" lon="35.0911589060"><ele>619.71</ele><time>2012-03-23T07:02:16Z</time></trkpt><trkpt lat="31.1140164267" lon="35.0913722254"><ele>622.11</ele><time>2012-03-23T07:02:29Z</time></trkpt><trkpt lat="31.1140689813" lon="35.0916153006"><ele>624.03</ele><time>2012-03-23T07:02:43Z</time></trkpt><trkpt lat="31.1140056979" lon="35.0917836092"><ele>621.15</ele><time>2012-03-23T07:02:52Z</time></trkpt><trkpt lat="31.1139944661" lon="35.0917931646"><ele>620.67</ele><time>2012-03-23T07:02:53Z</time></trkpt><trkpt lat="31.1139839049" lon="35.0918065757"><ele>620.19</ele><time>2012-03-23T07:02:54Z</time></trkpt><trkpt lat="31.1139745172" lon="35.0918240938"><ele>619.23</ele><time>2012-03-23T07:02:55Z</time></trkpt><trkpt lat="31.1139694881" lon="35.0918427017"><ele>619.23</ele><time>2012-03-23T07:02:56Z</time></trkpt><trkpt lat="31.1139650457" lon="35.0918608066"><ele>618.75</ele><time>2012-03-23T07:02:57Z</time></trkpt><trkpt lat="31.1138948891" lon="35.0919679273"><ele>613.94</ele><time>2012-03-23T07:03:08Z</time></trkpt><trkpt lat="31.1138578411" lon="35.0920348987"><ele>613.46</ele><time>2012-03-23T07:03:21Z</time></trkpt><trkpt lat="31.1137549952" lon="35.0921972562"><ele>609.61</ele><time>2012-03-23T07:03:29Z</time></trkpt><trkpt lat="31.1137361359" lon="35.0921954121"><ele>609.13</ele><time>2012-03-23T07:03:30Z</time></trkpt><trkpt lat="31.1136832461" lon="35.0921885390"><ele>607.69</ele><time>2012-03-23T07:03:33Z</time></trkpt><trkpt lat="31.1136660632" lon="35.0922048837"><ele>607.69</ele><time>2012-03-23T07:03:34Z</time></trkpt><trkpt lat="31.1136589386" lon="35.0922261737"><ele>606.73</ele><time>2012-03-23T07:03:35Z</time></trkpt><trkpt lat="31.1136545800" lon="35.0922516547"><ele>606.25</ele><time>2012-03-23T07:03:36Z</time></trkpt><trkpt lat="31.1136506405" lon="35.0922852661"><ele>605.77</ele><time>2012-03-23T07:03:37Z</time></trkpt><trkpt lat="31.1136527359" lon="35.0923166145"><ele>605.29</ele><time>2012-03-23T07:03:38Z</time></trkpt><trkpt lat="31.1135447770" lon="35.0925288443"><ele>599.52</ele><time>2012-03-23T07:03:47Z</time></trkpt><trkpt lat="31.1133656558" lon="35.0928088836"><ele>595.67</ele><time>2012-03-23T07:03:57Z</time></trkpt><trkpt lat="31.1131773982" lon="35.0932235364"><ele>593.27</ele><time>2012-03-23T07:04:08Z</time></trkpt><trkpt lat="31.1131261848" lon="35.0935081020"><ele>593.75</ele><time>2012-03-23T07:04:20Z</time></trkpt><trkpt lat="31.1129753105" lon="35.0938087609"><ele>591.83</ele><time>2012-03-23T07:04:31Z</time></trkpt><trkpt lat="31.1128993705" lon="35.0940659177"><ele>591.35</ele><time>2012-03-23T07:04:42Z</time></trkpt><trkpt lat="31.1128879711" lon="35.0943764672"><ele>589.91</ele><time>2012-03-23T07:04:55Z</time></trkpt><trkpt lat="31.1129806750" lon="35.0946886092"><ele>582.22</ele><time>2012-03-23T07:05:07Z</time></trkpt><trkpt lat="31.1130536813" lon="35.0949521363"><ele>578.85</ele><time>2012-03-23T07:05:17Z</time></trkpt><trkpt lat="31.1130883824" lon="35.0950951315"><ele>576.93</ele><time>2012-03-23T07:05:24Z</time></trkpt><trkpt lat="31.1130933277" lon="35.0951153319"><ele>576.45</ele><time>2012-03-23T07:05:25Z</time></trkpt><trkpt lat="31.1130950041" lon="35.0951380469"><ele>575.97</ele><time>2012-03-23T07:05:26Z</time></trkpt><trkpt lat="31.1130968481" lon="35.0951594207"><ele>576.45</ele><time>2012-03-23T07:05:37Z</time></trkpt><trkpt lat="31.1130868737" lon="35.0951551460"><ele>576.45</ele><time>2012-03-23T07:05:46Z</time></trkpt><trkpt lat="31.1130831856" lon="35.0951812975"><ele>576.45</ele><time>2012-03-23T07:05:48Z</time></trkpt><trkpt lat="31.1130864546" lon="35.0952056888"><ele>575.97</ele><time>2012-03-23T07:05:49Z</time></trkpt><trkpt lat="31.1130895559" lon="35.0952315889"><ele>575.49</ele><time>2012-03-23T07:05:50Z</time></trkpt><trkpt lat="31.1130944174" lon="35.0952579081"><ele>575.01</ele><time>2012-03-23T07:05:51Z</time></trkpt><trkpt lat="31.1131035537" lon="35.0952843111"><ele>574.04</ele><time>2012-03-23T07:05:52Z</time></trkpt><trkpt lat="31.1131071579" lon="35.0953134801"><ele>573.56</ele><time>2012-03-23T07:05:53Z</time></trkpt><trkpt lat="31.1131048109" lon="35.0953451637"><ele>573.08</ele><time>2012-03-23T07:05:54Z</time></trkpt><trkpt lat="31.1130995303" lon="35.0953784399"><ele>572.12</ele><time>2012-03-23T07:05:55Z</time></trkpt><trkpt lat="31.1130913161" lon="35.0954116322"><ele>571.64</ele><time>2012-03-23T07:05:56Z</time></trkpt><trkpt lat="31.1129743047" lon="35.0957656000"><ele>563.47</ele><time>2012-03-23T07:06:08Z</time></trkpt><trkpt lat="31.1128565390" lon="35.0961588789"><ele>556.26</ele><time>2012-03-23T07:06:20Z</time></trkpt><trkpt lat="31.1126132123" lon="35.0964935683"><ele>548.57</ele><time>2012-03-23T07:06:32Z</time></trkpt><trkpt lat="31.1125423014" lon="35.0967171136"><ele>544.24</ele><time>2012-03-23T07:06:41Z</time></trkpt><trkpt lat="31.1125003081" lon="35.0968309399"><ele>542.32</ele><time>2012-03-23T07:06:46Z</time></trkpt><trkpt lat="31.1124920100" lon="35.0968484581"><ele>541.84</ele><time>2012-03-23T07:06:47Z</time></trkpt><trkpt lat="31.1123628449" lon="35.0972227938"><ele>536.55</ele><time>2012-03-23T07:07:01Z</time></trkpt><trkpt lat="31.1122123897" lon="35.0975014921"><ele>532.23</ele><time>2012-03-23T07:07:10Z</time></trkpt><trkpt lat="31.1120616831" lon="35.0977066811"><ele>531.27</ele><time>2012-03-23T07:07:23Z</time></trkpt><trkpt lat="31.1120084580" lon="35.0977214333"><ele>530.79</ele><time>2012-03-23T07:07:27Z</time></trkpt><trkpt lat="31.1119071208" lon="35.0978503469"><ele>530.30</ele><time>2012-03-23T07:07:36Z</time></trkpt><trkpt lat="31.1119058635" lon="35.0978878140"><ele>530.79</ele><time>2012-03-23T07:07:38Z</time></trkpt><trkpt lat="31.1119103059" lon="35.0979063381"><ele>531.27</ele><time>2012-03-23T07:07:39Z</time></trkpt><trkpt lat="31.1119184364" lon="35.0979231857"><ele>531.75</ele><time>2012-03-23T07:07:40Z</time></trkpt><trkpt lat="31.1119283270" lon="35.0979344174"><ele>532.23</ele><time>2012-03-23T07:07:41Z</time></trkpt><trkpt lat="31.1119470187" lon="35.0979775004"><ele>533.19</ele><time>2012-03-23T07:07:50Z</time></trkpt><trkpt lat="31.1119839828" lon="35.0980666839"><ele>533.67</ele><time>2012-03-23T07:08:04Z</time></trkpt><trkpt lat="31.1119796243" lon="35.0980689470"><ele>533.19</ele><time>2012-03-23T07:08:15Z</time></trkpt><trkpt lat="31.1119829770" lon="35.0980702043"><ele>534.15</ele><time>2012-03-23T07:08:38Z</time></trkpt><trkpt lat="31.1119832285" lon="35.0980715454"><ele>534.15</ele><time>2012-03-23T07:08:57Z</time></trkpt><trkpt lat="31.1119871680" lon="35.0980697013"><ele>534.15</ele><time>2012-03-23T07:09:18Z</time></trkpt><trkpt lat="31.1119885929" lon="35.0980756525"><ele>535.11</ele><time>2012-03-23T07:09:49Z</time></trkpt><trkpt lat="31.1119899340" lon="35.0980730541"><ele>535.11</ele><time>2012-03-23T07:10:16Z</time></trkpt><trkpt lat="31.1119859107" lon="35.0980755687"><ele>535.11</ele><time>2012-03-23T07:10:27Z</time></trkpt><trkpt lat="31.1119816359" lon="35.0980901532"><ele>535.11</ele><time>2012-03-23T07:10:28Z</time></trkpt><trkpt lat="31.1119159218" lon="35.0983654149"><ele>533.67</ele><time>2012-03-23T07:10:40Z</time></trkpt><trkpt lat="31.1119028460" lon="35.0986609608"><ele>532.23</ele><time>2012-03-23T07:10:52Z</time></trkpt><trkpt lat="31.1119153351" lon="35.0987576880"><ele>531.27</ele><time>2012-03-23T07:10:56Z</time></trkpt><trkpt lat="31.1119137425" lon="35.0987776369"><ele>530.79</ele><time>2012-03-23T07:10:57Z</time></trkpt><trkpt lat="31.1119133234" lon="35.0987984240"><ele>530.30</ele><time>2012-03-23T07:10:58Z</time></trkpt><trkpt lat="31.1119206157" lon="35.0990165211"><ele>527.42</ele><time>2012-03-23T07:11:11Z</time></trkpt><trkpt lat="31.1119172629" lon="35.0993547309"><ele>520.21</ele><time>2012-03-23T07:11:26Z</time></trkpt><trkpt lat="31.1119635310" lon="35.0996753387"><ele>511.56</ele><time>2012-03-23T07:11:39Z</time></trkpt><trkpt lat="31.1120064463" lon="35.0998917595"><ele>507.23</ele><time>2012-03-23T07:11:48Z</time></trkpt><trkpt lat="31.1120797880" lon="35.1001696195"><ele>502.43</ele><time>2012-03-23T07:12:00Z</time></trkpt><trkpt lat="31.1121023353" lon="35.1002538577"><ele>501.95</ele><time>2012-03-23T07:12:04Z</time></trkpt><trkpt lat="31.1120832246" lon="35.1003290433"><ele>501.46</ele><time>2012-03-23T07:12:08Z</time></trkpt><trkpt lat="31.1120861582" lon="35.1003533509"><ele>501.46</ele><time>2012-03-23T07:12:09Z</time></trkpt><trkpt lat="31.1121048499" lon="35.1005528402"><ele>498.10</ele><time>2012-03-23T07:12:18Z</time></trkpt><trkpt lat="31.1120973062" lon="35.1005675923"><ele>497.14</ele><time>2012-03-23T07:12:19Z</time></trkpt><trkpt lat="31.1120885890" lon="35.1005749684"><ele>496.66</ele><time>2012-03-23T07:12:20Z</time></trkpt><trkpt lat="31.1120949592" lon="35.1005766448"><ele>497.62</ele><time>2012-03-23T07:12:30Z</time></trkpt><trkpt lat="31.1120840628" lon="35.1006064005"><ele>498.10</ele><time>2012-03-23T07:12:38Z</time></trkpt><trkpt lat="31.1120875832" lon="35.1006224938"><ele>497.62</ele><time>2012-03-23T07:12:39Z</time></trkpt><trkpt lat="31.1120951269" lon="35.1006397605"><ele>497.62</ele><time>2012-03-23T07:12:40Z</time></trkpt><trkpt lat="31.1121034250" lon="35.1006576139"><ele>497.14</ele><time>2012-03-23T07:12:41Z</time></trkpt><trkpt lat="31.1121083703" lon="35.1006744616"><ele>496.66</ele><time>2012-03-23T07:12:42Z</time></trkpt><trkpt lat="31.1121101305" lon="35.1006915607"><ele>496.18</ele><time>2012-03-23T07:12:43Z</time></trkpt><trkpt lat="31.1121051852" lon="35.1007089950"><ele>496.18</ele><time>2012-03-23T07:12:44Z</time></trkpt><trkpt lat="31.1120968871" lon="35.1007281896"><ele>495.70</ele><time>2012-03-23T07:12:45Z</time></trkpt><trkpt lat="31.1120082065" lon="35.1008136012"><ele>493.29</ele><time>2012-03-23T07:12:55Z</time></trkpt><trkpt lat="31.1120062787" lon="35.1008216478"><ele>494.26</ele><time>2012-03-23T07:13:05Z</time></trkpt><trkpt lat="31.1120003276" lon="35.1008395851"><ele>493.77</ele><time>2012-03-23T07:13:06Z</time></trkpt><trkpt lat="31.1119955499" lon="35.1008605398"><ele>493.29</ele><time>2012-03-23T07:13:07Z</time></trkpt><trkpt lat="31.1119310092" lon="35.1010953169"><ele>487.05</ele><time>2012-03-23T07:13:16Z</time></trkpt><trkpt lat="31.1118135788" lon="35.1013254840"><ele>482.72</ele><time>2012-03-23T07:13:24Z</time></trkpt><trkpt lat="31.1117780395" lon="35.1014243905"><ele>480.32</ele><time>2012-03-23T07:13:28Z</time></trkpt><trkpt lat="31.1117580906" lon="35.1014432497"><ele>479.84</ele><time>2012-03-23T07:13:29Z</time></trkpt><trkpt lat="31.1117326934" lon="35.1014607679"><ele>478.87</ele><time>2012-03-23T07:13:30Z</time></trkpt><trkpt lat="31.1117033567" lon="35.1014819741"><ele>477.91</ele><time>2012-03-23T07:13:31Z</time></trkpt><trkpt lat="31.1116689909" lon="35.1015103888"><ele>476.47</ele><time>2012-03-23T07:13:32Z</time></trkpt><trkpt lat="31.1115699168" lon="35.1015765220"><ele>474.07</ele><time>2012-03-23T07:13:34Z</time></trkpt><trkpt lat="31.1115092319" lon="35.1016023383"><ele>473.59</ele><time>2012-03-23T07:13:35Z</time></trkpt><trkpt lat="31.1114524864" lon="35.1016171742"><ele>473.11</ele><time>2012-03-23T07:13:36Z</time></trkpt><trkpt lat="31.1114008538" lon="35.1016202755"><ele>473.11</ele><time>2012-03-23T07:13:37Z</time></trkpt><trkpt lat="31.1113545019" lon="35.1016167551"><ele>472.63</ele><time>2012-03-23T07:13:38Z</time></trkpt><trkpt lat="31.1110210698" lon="35.1016138215"><ele>469.74</ele><time>2012-03-23T07:13:47Z</time></trkpt><trkpt lat="31.1109763943" lon="35.1016053557"><ele>469.26</ele><time>2012-03-23T07:13:48Z</time></trkpt><trkpt lat="31.1108965985" lon="35.1015828084"><ele>467.34</ele><time>2012-03-23T07:13:50Z</time></trkpt><trkpt lat="31.1108567007" lon="35.1015679725"><ele>466.38</ele><time>2012-03-23T07:13:51Z</time></trkpt><trkpt lat="31.1103436444" lon="35.1013321057"><ele>455.80</ele><time>2012-03-23T07:14:05Z</time></trkpt><trkpt lat="31.1100415606" lon="35.1011878531"><ele>445.71</ele><time>2012-03-23T07:14:17Z</time></trkpt><trkpt lat="31.1098288279" lon="35.1011306886"><ele>439.46</ele><time>2012-03-23T07:14:27Z</time></trkpt><trkpt lat="31.1094730161" lon="35.1011100691"><ele>430.33</ele><time>2012-03-23T07:14:41Z</time></trkpt><trkpt lat="31.1092153564" lon="35.1011779625"><ele>424.08</ele><time>2012-03-23T07:14:53Z</time></trkpt><trkpt lat="31.1091997661" lon="35.1011733525"><ele>423.60</ele><time>2012-03-23T07:14:54Z</time></trkpt><trkpt lat="31.1091826670" lon="35.1011644676"><ele>423.12</ele><time>2012-03-23T07:14:55Z</time></trkpt><trkpt lat="31.1091624666" lon="35.1011468656"><ele>422.16</ele><time>2012-03-23T07:14:56Z</time></trkpt><trkpt lat="31.1091376562" lon="35.1011175290"><ele>421.19</ele><time>2012-03-23T07:14:57Z</time></trkpt><trkpt lat="31.1091131810" lon="35.1010820735"><ele>420.23</ele><time>2012-03-23T07:14:58Z</time></trkpt><trkpt lat="31.1090921424" lon="35.1010535751"><ele>419.75</ele><time>2012-03-23T07:14:59Z</time></trkpt><trkpt lat="31.1090762168" lon="35.1010375656"><ele>419.75</ele><time>2012-03-23T07:15:00Z</time></trkpt><trkpt lat="31.1090612132" lon="35.1010339614"><ele>419.27</ele><time>2012-03-23T07:15:01Z</time></trkpt><trkpt lat="31.1090398394" lon="35.1010478754"><ele>418.79</ele><time>2012-03-23T07:15:15Z</time></trkpt><trkpt lat="31.1090328824" lon="35.1010399126"><ele>417.83</ele><time>2012-03-23T07:15:37Z</time></trkpt><trkpt lat="31.1089742929" lon="35.1010082290"><ele>418.31</ele><time>2012-03-23T07:15:40Z</time></trkpt><trkpt lat="31.1089152843" lon="35.1009969972"><ele>419.75</ele><time>2012-03-23T07:15:51Z</time></trkpt><trkpt lat="31.1088605504" lon="35.1010290999"><ele>422.16</ele><time>2012-03-23T07:16:06Z</time></trkpt><trkpt lat="31.1088618916" lon="35.1010344643"><ele>422.16</ele><time>2012-03-23T07:16:19Z</time></trkpt><trkpt lat="31.1088734586" lon="35.1010032836"><ele>421.19</ele><time>2012-03-23T07:16:55Z</time></trkpt><trkpt lat="31.1088823434" lon="35.1009706780"><ele>419.75</ele><time>2012-03-23T07:17:39Z</time></trkpt><trkpt lat="31.1088894680" lon="35.1009702589"><ele>418.31</ele><time>2012-03-23T07:18:23Z</time></trkpt><trkpt lat="31.1088893004" lon="35.1009681635"><ele>417.35</ele><time>2012-03-23T07:19:00Z</time></trkpt><trkpt lat="31.1088913120" lon="35.1009673253"><ele>416.87</ele><time>2012-03-23T07:19:39Z</time></trkpt><trkpt lat="31.1088965088" lon="35.1009684149"><ele>417.35</ele><time>2012-03-23T07:20:30Z</time></trkpt><trkpt lat="31.1088928208" lon="35.1009885315"><ele>418.31</ele><time>2012-03-23T07:21:20Z</time></trkpt><trkpt lat="31.1088872887" lon="35.1009907108"><ele>419.27</ele><time>2012-03-23T07:22:05Z</time></trkpt><trkpt lat="31.1088823434" lon="35.1010087319"><ele>418.79</ele><time>2012-03-23T07:22:58Z</time></trkpt><trkpt lat="31.1088611372" lon="35.1010282617"><ele>420.23</ele><time>2012-03-23T07:24:05Z</time></trkpt><trkpt lat="31.1088574491" lon="35.1010353025"><ele>420.23</ele><time>2012-03-23T07:24:59Z</time></trkpt><trkpt lat="31.1088493187" lon="35.1010361407"><ele>420.71</ele><time>2012-03-23T07:25:58Z</time></trkpt><trkpt lat="31.1088515818" lon="35.1010395773"><ele>420.71</ele><time>2012-03-23T07:26:51Z</time></trkpt><trkpt lat="31.1088525038" lon="35.1010381524"><ele>421.68</ele><time>2012-03-23T07:27:52Z</time></trkpt><trkpt lat="31.1088544317" lon="35.1010337938"><ele>421.19</ele><time>2012-03-23T07:28:51Z</time></trkpt><trkpt lat="31.1088550184" lon="35.1010339614"><ele>420.23</ele><time>2012-03-23T07:29:28Z</time></trkpt><trkpt lat="31.1088503245" lon="35.1010389905"><ele>420.23</ele><time>2012-03-23T07:30:12Z</time></trkpt><trkpt lat="31.1088562757" lon="35.1010368951"><ele>417.83</ele><time>2012-03-23T07:30:57Z</time></trkpt><trkpt lat="31.1088545155" lon="35.1010422595"><ele>417.83</ele><time>2012-03-23T07:31:50Z</time></trkpt><trkpt lat="31.1088558566" lon="35.1010421757"><ele>418.31</ele><time>2012-03-23T07:32:31Z</time></trkpt><trkpt lat="31.1088604666" lon="35.1010376494"><ele>417.83</ele><time>2012-03-23T07:33:10Z</time></trkpt><trkpt lat="31.1088608019" lon="35.1010344643"><ele>419.27</ele><time>2012-03-23T07:34:05Z</time></trkpt><trkpt lat="31.1088594608" lon="35.1010355540"><ele>419.75</ele><time>2012-03-23T07:34:51Z</time></trkpt><trkpt lat="31.1088504083" lon="35.1010429300"><ele>420.23</ele><time>2012-03-23T07:35:47Z</time></trkpt><trkpt lat="31.1088520847" lon="35.1010338776"><ele>420.23</ele><time>2012-03-23T07:36:39Z</time></trkpt><trkpt lat="31.1088470556" lon="35.1010350510"><ele>420.71</ele><time>2012-03-23T07:37:18Z</time></trkpt><trkpt lat="31.1088006198" lon="35.1010400802"><ele>420.71</ele><time>2012-03-23T07:37:22Z</time></trkpt><trkpt lat="31.1087544356" lon="35.1010778826"><ele>420.71</ele><time>2012-03-23T07:37:26Z</time></trkpt><trkpt lat="31.1087393481" lon="35.1011223905"><ele>419.75</ele><time>2012-03-23T07:37:28Z</time></trkpt><trkpt lat="31.1086877994" lon="35.1012729295"><ele>418.31</ele><time>2012-03-23T07:37:33Z</time></trkpt><trkpt lat="31.1086675990" lon="35.1012873463"><ele>418.31</ele><time>2012-03-23T07:37:34Z</time></trkpt><trkpt lat="31.1086448003" lon="35.1012977399"><ele>417.83</ele><time>2012-03-23T07:37:35Z</time></trkpt><trkpt lat="31.1086185649" lon="35.1013057865"><ele>417.83</ele><time>2012-03-23T07:37:36Z</time></trkpt><trkpt lat="31.1085925810" lon="35.1013169345"><ele>417.83</ele><time>2012-03-23T07:37:37Z</time></trkpt><trkpt lat="31.1083481647" lon="35.1014131587"><ele>416.87</ele><time>2012-03-23T07:37:45Z</time></trkpt><trkpt lat="31.1080627609" lon="35.1014887635"><ele>415.91</ele><time>2012-03-23T07:37:53Z</time></trkpt><trkpt lat="31.1080245394" lon="35.1015175972"><ele>415.43</ele><time>2012-03-23T07:37:54Z</time></trkpt><trkpt lat="31.1075253133" lon="35.1017812919"><ele>411.10</ele><time>2012-03-23T07:38:06Z</time></trkpt><trkpt lat="31.1073530652" lon="35.1018745825"><ele>408.70</ele><time>2012-03-23T07:38:11Z</time></trkpt><trkpt lat="31.1073096469" lon="35.1018865686"><ele>408.22</ele><time>2012-03-23T07:38:12Z</time></trkpt><trkpt lat="31.1072650552" lon="35.1018934418"><ele>407.74</ele><time>2012-03-23T07:38:13Z</time></trkpt><trkpt lat="31.1069821659" lon="35.1019200124"><ele>405.33</ele><time>2012-03-23T07:38:23Z</time></trkpt><trkpt lat="31.1067424435" lon="35.1017935295"><ele>406.29</ele><time>2012-03-23T07:38:35Z</time></trkpt><trkpt lat="31.1064033955" lon="35.1016108878"><ele>405.81</ele><time>2012-03-23T07:38:46Z</time></trkpt><trkpt lat="31.1059961189" lon="35.1013133302"><ele>406.29</ele><time>2012-03-23T07:38:59Z</time></trkpt><trkpt lat="31.1055495311" lon="35.1011325326"><ele>405.81</ele><time>2012-03-23T07:39:13Z</time></trkpt><trkpt lat="31.1054388061" lon="35.1011632942"><ele>405.33</ele><time>2012-03-23T07:39:16Z</time></trkpt><trkpt lat="31.1053978186" lon="35.1011713408"><ele>404.85</ele><time>2012-03-23T07:39:17Z</time></trkpt><trkpt lat="31.1053539813" lon="35.1011746097"><ele>404.37</ele><time>2012-03-23T07:39:18Z</time></trkpt><trkpt lat="31.1053081322" lon="35.1011716761"><ele>404.37</ele><time>2012-03-23T07:39:19Z</time></trkpt><trkpt lat="31.1052619480" lon="35.1011675689"><ele>403.89</ele><time>2012-03-23T07:39:20Z</time></trkpt><trkpt lat="31.1052156799" lon="35.1011606958"><ele>403.41</ele><time>2012-03-23T07:39:21Z</time></trkpt><trkpt lat="31.1048756260" lon="35.1010366436"><ele>405.33</ele><time>2012-03-23T07:39:32Z</time></trkpt><trkpt lat="31.1045874562" lon="35.1006186381"><ele>406.77</ele><time>2012-03-23T07:39:48Z</time></trkpt><trkpt lat="31.1042583827" lon="35.1001848746"><ele>407.26</ele><time>2012-03-23T07:40:03Z</time></trkpt><trkpt lat="31.1040947679" lon="35.0996586587"><ele>408.70</ele><time>2012-03-23T07:40:19Z</time></trkpt><trkpt lat="31.1038850527" lon="35.0993543956"><ele>408.70</ele><time>2012-03-23T07:40:31Z</time></trkpt><trkpt lat="31.1034848168" lon="35.0991409086"><ele>409.18</ele><time>2012-03-23T07:40:45Z</time></trkpt><trkpt lat="31.1030777916" lon="35.0987390801"><ele>410.14</ele><time>2012-03-23T07:41:01Z</time></trkpt><trkpt lat="31.1026524100" lon="35.0983508304"><ele>410.62</ele><time>2012-03-23T07:41:17Z</time></trkpt><trkpt lat="31.1023160443" lon="35.0978520233"><ele>410.62</ele><time>2012-03-23T07:41:32Z</time></trkpt><trkpt lat="31.1019957718" lon="35.0975713134"><ele>412.54</ele><time>2012-03-23T07:41:48Z</time></trkpt><trkpt lat="31.1015374493" lon="35.0973525457"><ele>412.54</ele><time>2012-03-23T07:42:05Z</time></trkpt><trkpt lat="31.1010537297" lon="35.0971595105"><ele>413.98</ele><time>2012-03-23T07:42:21Z</time></trkpt><trkpt lat="31.1006787233" lon="35.0968851708"><ele>414.95</ele><time>2012-03-23T07:42:37Z</time></trkpt><trkpt lat="31.1003983486" lon="35.0965571869"><ele>416.39</ele><time>2012-03-23T07:42:51Z</time></trkpt><trkpt lat="31.1003209837" lon="35.0961622316"><ele>417.35</ele><time>2012-03-23T07:43:04Z</time></trkpt><trkpt lat="31.1002800800" lon="35.0957360957"><ele>418.79</ele><time>2012-03-23T07:43:17Z</time></trkpt><trkpt lat="31.1001787428" lon="35.0953004044"><ele>420.23</ele><time>2012-03-23T07:43:31Z</time></trkpt><trkpt lat="31.0999843664" lon="35.0949357916"><ele>421.19</ele><time>2012-03-23T07:43:45Z</time></trkpt><trkpt lat="31.0997112002" lon="35.0945298560"><ele>422.16</ele><time>2012-03-23T07:44:02Z</time></trkpt><trkpt lat="31.0994222760" lon="35.0941271055"><ele>424.08</ele><time>2012-03-23T07:44:20Z</time></trkpt><trkpt lat="31.0991282389" lon="35.0937030651"><ele>426.00</ele><time>2012-03-23T07:44:38Z</time></trkpt><trkpt lat="31.0988585930" lon="35.0932905078"><ele>427.92</ele><time>2012-03-23T07:44:56Z</time></trkpt><trkpt lat="31.0985640530" lon="35.0927569158"><ele>429.37</ele><time>2012-03-23T07:45:17Z</time></trkpt><trkpt lat="31.0983253364" lon="35.0922970008"><ele>429.85</ele><time>2012-03-23T07:45:34Z</time></trkpt><trkpt lat="31.0979074985" lon="35.0920163747"><ele>426.48</ele><time>2012-03-23T07:45:48Z</time></trkpt><trkpt lat="31.0978586320" lon="35.0920051429"><ele>425.52</ele><time>2012-03-23T07:45:49Z</time></trkpt><trkpt lat="31.0976330750" lon="35.0920466334"><ele>423.60</ele><time>2012-03-23T07:45:53Z</time></trkpt><trkpt lat="31.0971211083" lon="35.0923730247"><ele>422.16</ele><time>2012-03-23T07:46:09Z</time></trkpt><trkpt lat="31.0969719104" lon="35.0924416725"><ele>421.19</ele><time>2012-03-23T07:46:15Z</time></trkpt><trkpt lat="31.0968368780" lon="35.0928716641"><ele>418.31</ele><time>2012-03-23T07:46:28Z</time></trkpt><trkpt lat="31.0968803801" lon="35.0931488536"><ele>420.23</ele><time>2012-03-23T07:46:39Z</time></trkpt><trkpt lat="31.0969564877" lon="35.0934820343"><ele>422.16</ele><time>2012-03-23T07:46:53Z</time></trkpt><trkpt lat="31.0970338527" lon="35.0938873831"><ele>420.71</ele><time>2012-03-23T07:47:06Z</time></trkpt><trkpt lat="31.0971694719" lon="35.0944265071"><ele>419.75</ele><time>2012-03-23T07:47:21Z</time></trkpt><trkpt lat="31.0972755030" lon="35.0950132404"><ele>419.75</ele><time>2012-03-23T07:47:36Z</time></trkpt><trkpt lat="31.0973241180" lon="35.0955033302"><ele>418.79</ele><time>2012-03-23T07:47:50Z</time></trkpt><trkpt lat="31.0973790195" lon="35.0957391132"><ele>418.31</ele><time>2012-03-23T07:47:58Z</time></trkpt><trkpt lat="31.0974484216" lon="35.0961025525"><ele>419.27</ele><time>2012-03-23T07:48:11Z</time></trkpt><trkpt lat="31.0974589828" lon="35.0961996149"><ele>420.23</ele><time>2012-03-23T07:48:15Z</time></trkpt><trkpt lat="31.0975106992" lon="35.0963156205"><ele>421.68</ele><time>2012-03-23T07:48:21Z</time></trkpt><trkpt lat="31.0974950250" lon="35.0965857692"><ele>425.04</ele><time>2012-03-23T07:48:36Z</time></trkpt><trkpt lat="31.0974759981" lon="35.0966962427"><ele>426.00</ele><time>2012-03-23T07:48:43Z</time></trkpt><trkpt lat="31.0974602401" lon="35.0967674889"><ele>426.96</ele><time>2012-03-23T07:48:47Z</time></trkpt><trkpt lat="31.0974457394" lon="35.0967990048"><ele>427.44</ele><time>2012-03-23T07:48:49Z</time></trkpt><trkpt lat="31.0974112898" lon="35.0968772080"><ele>428.40</ele><time>2012-03-23T07:48:54Z</time></trkpt><trkpt lat="31.0972908419" lon="35.0971561577"><ele>431.29</ele><time>2012-03-23T07:49:12Z</time></trkpt><trkpt lat="31.0971855652" lon="35.0974262226"><ele>434.17</ele><time>2012-03-23T07:49:28Z</time></trkpt><trkpt lat="31.0971346870" lon="35.0976526178"><ele>436.58</ele><time>2012-03-23T07:49:43Z</time></trkpt><trkpt lat="31.0971302446" lon="35.0976968743"><ele>437.06</ele><time>2012-03-23T07:49:46Z</time></trkpt><trkpt lat="31.0971062724" lon="35.0977474172"><ele>438.02</ele><time>2012-03-23T07:49:50Z</time></trkpt><trkpt lat="31.0970705654" lon="35.0978081860"><ele>438.98</ele><time>2012-03-23T07:49:55Z</time></trkpt><trkpt lat="31.0969359521" lon="35.0980328210"><ele>441.86</ele><time>2012-03-23T07:50:13Z</time></trkpt><trkpt lat="31.0968295019" lon="35.0981994532"><ele>444.27</ele><time>2012-03-23T07:50:27Z</time></trkpt><trkpt lat="31.0968245566" lon="35.0982134510"><ele>444.27</ele><time>2012-03-23T07:50:28Z</time></trkpt><trkpt lat="31.0967373010" lon="35.0984068215"><ele>447.15</ele><time>2012-03-23T07:50:43Z</time></trkpt><trkpt lat="31.0966348741" lon="35.0985751301"><ele>449.07</ele><time>2012-03-23T07:50:58Z</time></trkpt><trkpt lat="31.0966279171" lon="35.0985882897"><ele>449.07</ele><time>2012-03-23T07:50:59Z</time></trkpt><trkpt lat="31.0966078844" lon="35.0986961648"><ele>450.03</ele><time>2012-03-23T07:51:06Z</time></trkpt><trkpt lat="31.0966141708" lon="35.0987522397"><ele>450.52</ele><time>2012-03-23T07:51:10Z</time></trkpt><trkpt lat="31.0965952277" lon="35.0988224801"><ele>451.00</ele><time>2012-03-23T07:51:15Z</time></trkpt><trkpt lat="31.0965407453" lon="35.0990886893"><ele>451.96</ele><time>2012-03-23T07:51:31Z</time></trkpt><trkpt lat="31.0966308508" lon="35.0993804634"><ele>453.40</ele><time>2012-03-23T07:51:45Z</time></trkpt><trkpt lat="31.0967619438" lon="35.0996556412"><ele>454.36</ele><time>2012-03-23T07:51:58Z</time></trkpt><trkpt lat="31.0968491994" lon="35.0999629218"><ele>455.32</ele><time>2012-03-23T07:52:12Z</time></trkpt><trkpt lat="31.0968841519" lon="35.1002541091"><ele>456.28</ele><time>2012-03-23T07:52:26Z</time></trkpt><trkpt lat="31.0969260614" lon="35.1005616412"><ele>456.76</ele><time>2012-03-23T07:52:42Z</time></trkpt><trkpt lat="31.0969544761" lon="35.1008454524"><ele>458.21</ele><time>2012-03-23T07:52:57Z</time></trkpt><trkpt lat="31.0969605111" lon="35.1010410860"><ele>458.69</ele><time>2012-03-23T07:53:08Z</time></trkpt><trkpt lat="31.0969528835" lon="35.1010550000"><ele>458.69</ele><time>2012-03-23T07:53:09Z</time></trkpt><trkpt lat="31.0968460143" lon="35.1013238076"><ele>459.65</ele><time>2012-03-23T07:53:23Z</time></trkpt><trkpt lat="31.0966770351" lon="35.1015816350"><ele>462.05</ele><time>2012-03-23T07:53:39Z</time></trkpt><trkpt lat="31.0964640509" lon="35.1018668711"><ele>463.97</ele><time>2012-03-23T07:53:57Z</time></trkpt><trkpt lat="31.0962500609" lon="35.1021295600"><ele>465.42</ele><time>2012-03-23T07:54:14Z</time></trkpt><trkpt lat="31.0960165411" lon="35.1023925003"><ele>467.34</ele><time>2012-03-23T07:54:30Z</time></trkpt><trkpt lat="31.0957681853" lon="35.1027118508"><ele>470.70</ele><time>2012-03-23T07:54:49Z</time></trkpt><trkpt lat="31.0954812728" lon="35.1029655710"><ele>473.59</ele><time>2012-03-23T07:55:09Z</time></trkpt><trkpt lat="31.0951888282" lon="35.1030400023"><ele>473.59</ele><time>2012-03-23T07:55:24Z</time></trkpt><trkpt lat="31.0948852357" lon="35.1031576004"><ele>473.11</ele><time>2012-03-23T07:55:38Z</time></trkpt><trkpt lat="31.0946261510" lon="35.1033456903"><ele>473.59</ele><time>2012-03-23T07:55:51Z</time></trkpt><trkpt lat="31.0943935532" lon="35.1036541443"><ele>476.47</ele><time>2012-03-23T07:56:07Z</time></trkpt><trkpt lat="31.0942381527" lon="35.1039636880"><ele>478.87</ele><time>2012-03-23T07:56:22Z</time></trkpt><trkpt lat="31.0940300301" lon="35.1042644307"><ele>481.28</ele><time>2012-03-23T07:56:38Z</time></trkpt><trkpt lat="31.0937904753" lon="35.1045684423"><ele>483.20</ele><time>2012-03-23T07:56:55Z</time></trkpt><trkpt lat="31.0935696959" lon="35.1048674248"><ele>486.56</ele><time>2012-03-23T07:57:12Z</time></trkpt><trkpt lat="31.0933449771" lon="35.1051536668"><ele>489.45</ele><time>2012-03-23T07:57:29Z</time></trkpt><trkpt lat="31.0931321606" lon="35.1054538228"><ele>492.81</ele><time>2012-03-23T07:57:47Z</time></trkpt><trkpt lat="31.0929471720" lon="35.1057330240"><ele>495.70</ele><time>2012-03-23T07:58:03Z</time></trkpt><trkpt lat="31.0927936994" lon="35.1059694774"><ele>497.62</ele><time>2012-03-23T07:58:17Z</time></trkpt><trkpt lat="31.0925850738" lon="35.1062489301"><ele>500.50</ele><time>2012-03-23T07:58:35Z</time></trkpt><trkpt lat="31.0923864227" lon="35.1065432187"><ele>505.31</ele><time>2012-03-23T07:58:53Z</time></trkpt><trkpt lat="31.0922607780" lon="35.1067414507"><ele>507.71</ele><time>2012-03-23T07:59:06Z</time></trkpt><trkpt lat="31.0921275057" lon="35.1070337277"><ele>509.16</ele><time>2012-03-23T07:59:23Z</time></trkpt><trkpt lat="31.0920410883" lon="35.1072821673"><ele>510.60</ele><time>2012-03-23T07:59:37Z</time></trkpt><trkpt lat="31.0919545032" lon="35.1075179502"><ele>511.56</ele><time>2012-03-23T07:59:50Z</time></trkpt><trkpt lat="31.0917955823" lon="35.1078181062"><ele>513.48</ele><time>2012-03-23T08:00:07Z</time></trkpt><trkpt lat="31.0916799121" lon="35.1080174278"><ele>514.44</ele><time>2012-03-23T08:00:19Z</time></trkpt><trkpt lat="31.0916717816" lon="35.1080334373"><ele>514.92</ele><time>2012-03-23T08:00:20Z</time></trkpt><trkpt lat="31.0916632321" lon="35.1080491953"><ele>514.92</ele><time>2012-03-23T08:00:21Z</time></trkpt><trkpt lat="31.0916545149" lon="35.1080657076"><ele>514.92</ele><time>2012-03-23T08:00:22Z</time></trkpt><trkpt lat="31.0916452948" lon="35.1080818009"><ele>514.92</ele><time>2012-03-23T08:00:23Z</time></trkpt><trkpt lat="31.0915103462" lon="35.1083130576"><ele>515.88</ele><time>2012-03-23T08:00:36Z</time></trkpt><trkpt lat="31.0913433786" lon="35.1085964497"><ele>517.33</ele><time>2012-03-23T08:00:51Z</time></trkpt><trkpt lat="31.0911686160" lon="35.1088774111"><ele>518.77</ele><time>2012-03-23T08:01:06Z</time></trkpt><trkpt lat="31.0909045860" lon="35.1092304569"><ele>520.21</ele><time>2012-03-23T08:01:25Z</time></trkpt><trkpt lat="31.0908664484" lon="35.1092725340"><ele>520.21</ele><time>2012-03-23T08:01:39Z</time></trkpt><trkpt lat="31.0908718966" lon="35.1092796586"><ele>520.21</ele><time>2012-03-23T08:02:06Z</time></trkpt><trkpt lat="31.0908728186" lon="35.1092799939"><ele>519.73</ele><time>2012-03-23T08:02:29Z</time></trkpt><trkpt lat="31.0908715613" lon="35.1092804130"><ele>519.73</ele><time>2012-03-23T08:02:50Z</time></trkpt><trkpt lat="31.0908692982" lon="35.1092808321"><ele>519.73</ele><time>2012-03-23T08:03:17Z</time></trkpt><trkpt lat="31.0908667836" lon="35.1092775632"><ele>519.73</ele><time>2012-03-23T08:03:44Z</time></trkpt><trkpt lat="31.0908703879" lon="35.1092692651"><ele>519.73</ele><time>2012-03-23T08:04:07Z</time></trkpt><trkpt lat="31.0908726510" lon="35.1092712767"><ele>519.73</ele><time>2012-03-23T08:04:31Z</time></trkpt><trkpt lat="31.0908737406" lon="35.1092685945"><ele>520.21</ele><time>2012-03-23T08:05:09Z</time></trkpt><trkpt lat="31.0908752494" lon="35.1092699356"><ele>520.21</ele><time>2012-03-23T08:05:48Z</time></trkpt><trkpt lat="31.0908793565" lon="35.1092763897"><ele>521.17</ele><time>2012-03-23T08:06:27Z</time></trkpt><trkpt lat="31.0908755008" lon="35.1092762221"><ele>520.69</ele><time>2012-03-23T08:06:55Z</time></trkpt><trkpt lat="31.0908697173" lon="35.1092674211"><ele>520.21</ele><time>2012-03-23T08:07:34Z</time></trkpt><trkpt lat="31.0908723995" lon="35.1092654932"><ele>520.21</ele><time>2012-03-23T08:07:57Z</time></trkpt><trkpt lat="31.0908742435" lon="35.1092730369"><ele>520.21</ele><time>2012-03-23T08:08:22Z</time></trkpt><trkpt lat="31.0908764228" lon="35.1092789881"><ele>520.21</ele><time>2012-03-23T08:08:47Z</time></trkpt><trkpt lat="31.0908671189" lon="35.1092870347"><ele>519.73</ele><time>2012-03-23T08:09:12Z</time></trkpt><trkpt lat="31.0908703879" lon="35.1092905551"><ele>520.21</ele><time>2012-03-23T08:09:44Z</time></trkpt><trkpt lat="31.0908684600" lon="35.1092889626"><ele>520.69</ele><time>2012-03-23T08:10:19Z</time></trkpt><trkpt lat="31.0908749141" lon="35.1092841011"><ele>520.21</ele><time>2012-03-23T08:10:54Z</time></trkpt><trkpt lat="31.0908706393" lon="35.1092875376"><ele>518.77</ele><time>2012-03-23T08:11:25Z</time></trkpt><trkpt lat="31.0908664484" lon="35.1092881244"><ele>519.25</ele><time>2012-03-23T08:12:07Z</time></trkpt><trkpt lat="31.0908651911" lon="35.1093004458"><ele>519.25</ele><time>2012-03-23T08:12:29Z</time></trkpt><trkpt lat="31.0907459166" lon="35.1094725262"><ele>519.25</ele><time>2012-03-23T08:12:40Z</time></trkpt><trkpt lat="31.0905421525" lon="35.1097541582"><ele>518.77</ele><time>2012-03-23T08:12:52Z</time></trkpt><trkpt lat="31.0902964789" lon="35.1101195253"><ele>517.81</ele><time>2012-03-23T08:13:07Z</time></trkpt><trkpt lat="31.0899488814" lon="35.1106267143"><ele>517.33</ele><time>2012-03-23T08:13:25Z</time></trkpt><trkpt lat="31.0896040499" lon="35.1109004673"><ele>517.33</ele><time>2012-03-23T08:13:41Z</time></trkpt><trkpt lat="31.0892779939" lon="35.1112643257"><ele>519.73</ele><time>2012-03-23T08:13:58Z</time></trkpt><trkpt lat="31.0889854655" lon="35.1117328741"><ele>520.69</ele><time>2012-03-23T08:14:14Z</time></trkpt><trkpt lat="31.0887533706" lon="35.1123027597"><ele>520.21</ele><time>2012-03-23T08:14:29Z</time></trkpt><trkpt lat="31.0887135565" lon="35.1123841479"><ele>520.69</ele><time>2012-03-23T08:14:31Z</time></trkpt><trkpt lat="31.0883673001" lon="35.1127287280"><ele>521.65</ele><time>2012-03-23T08:14:44Z</time></trkpt><trkpt lat="31.0880665574" lon="35.1130042411"><ele>522.13</ele><time>2012-03-23T08:14:56Z</time></trkpt><trkpt lat="31.0876901262" lon="35.1135243382"><ele>524.54</ele><time>2012-03-23T08:15:14Z</time></trkpt><trkpt lat="31.0874136910" lon="35.1137772202"><ele>524.06</ele><time>2012-03-23T08:15:26Z</time></trkpt><trkpt lat="31.0871187318" lon="35.1140029449"><ele>523.58</ele><time>2012-03-23T08:15:40Z</time></trkpt><trkpt lat="31.0869055800" lon="35.1142067090"><ele>523.58</ele><time>2012-03-23T08:15:51Z</time></trkpt><trkpt lat="31.0865898337" lon="35.1146274805"><ele>523.09</ele><time>2012-03-23T08:16:07Z</time></trkpt><trkpt lat="31.0863212775" lon="35.1150855515"><ele>523.58</ele><time>2012-03-23T08:16:21Z</time></trkpt><trkpt lat="31.0860104766" lon="35.1154753938"><ele>525.98</ele><time>2012-03-23T08:16:38Z</time></trkpt><trkpt lat="31.0857919604" lon="35.1157372445"><ele>527.90</ele><time>2012-03-23T08:16:53Z</time></trkpt><trkpt lat="31.0855935607" lon="35.1159839239"><ele>530.30</ele><time>2012-03-23T08:17:09Z</time></trkpt><trkpt lat="31.0854534153" lon="35.1163035259"><ele>531.75</ele><time>2012-03-23T08:17:23Z</time></trkpt><trkpt lat="31.0852297023" lon="35.1165856607"><ele>533.67</ele><time>2012-03-23T08:17:39Z</time></trkpt><trkpt lat="31.0849838611" lon="35.1167136524"><ele>534.63</ele><time>2012-03-23T08:17:53Z</time></trkpt><trkpt lat="31.0847349185" lon="35.1168623473"><ele>536.55</ele><time>2012-03-23T08:18:08Z</time></trkpt><trkpt lat="31.0844703857" lon="35.1170770917"><ele>539.44</ele><time>2012-03-23T08:18:24Z</time></trkpt><trkpt lat="31.0842107143" lon="35.1172999665"><ele>541.36</ele><time>2012-03-23T08:18:39Z</time></trkpt><trkpt lat="31.0839212872" lon="35.1176360808"><ele>541.36</ele><time>2012-03-23T08:18:56Z</time></trkpt><trkpt lat="31.0836068820" lon="35.1178942434"><ele>541.84</ele><time>2012-03-23T08:19:10Z</time></trkpt><trkpt lat="31.0832777247" lon="35.1181481313"><ele>541.36</ele><time>2012-03-23T08:19:23Z</time></trkpt><trkpt lat="31.0829352401" lon="35.1183951460"><ele>542.32</ele><time>2012-03-23T08:19:38Z</time></trkpt><trkpt lat="31.0826756526" lon="35.1185683999"><ele>543.28</ele><time>2012-03-23T08:19:51Z</time></trkpt><trkpt lat="31.0824026540" lon="35.1187253091"><ele>546.17</ele><time>2012-03-23T08:20:06Z</time></trkpt><trkpt lat="31.0822086968" lon="35.1188813802"><ele>548.57</ele><time>2012-03-23T08:20:20Z</time></trkpt><trkpt lat="31.0819866601" lon="35.1190740801"><ele>550.97</ele><time>2012-03-23T08:20:37Z</time></trkpt><trkpt lat="31.0817956366" lon="35.1191998925"><ele>552.41</ele><time>2012-03-23T08:20:51Z</time></trkpt><trkpt lat="31.0815710016" lon="35.1193488389"><ele>554.82</ele><time>2012-03-23T08:21:07Z</time></trkpt><trkpt lat="31.0813665669" lon="35.1194785908"><ele>557.70</ele><time>2012-03-23T08:21:21Z</time></trkpt><trkpt lat="31.0811223183" lon="35.1196635794"><ele>558.66</ele><time>2012-03-23T08:21:35Z</time></trkpt><trkpt lat="31.0808949172" lon="35.1199147012"><ele>561.07</ele><time>2012-03-23T08:21:49Z</time></trkpt><trkpt lat="31.0807084199" lon="35.1202161144"><ele>562.99</ele><time>2012-03-23T08:22:02Z</time></trkpt><trkpt lat="31.0805541929" lon="35.1206129137"><ele>565.87</ele><time>2012-03-23T08:22:19Z</time></trkpt><trkpt lat="31.0804041568" lon="35.1209452562"><ele>566.35</ele><time>2012-03-23T08:22:33Z</time></trkpt><trkpt lat="31.0802957788" lon="35.1211018302"><ele>564.91</ele><time>2012-03-23T08:22:38Z</time></trkpt><trkpt lat="31.0802610777" lon="35.1211361121"><ele>564.91</ele><time>2012-03-23T08:22:39Z</time></trkpt><trkpt lat="31.0802221857" lon="35.1211690530"><ele>564.43</ele><time>2012-03-23T08:22:40Z</time></trkpt><trkpt lat="31.0801770911" lon="35.1211977191"><ele>563.95</ele><time>2012-03-23T08:22:41Z</time></trkpt><trkpt lat="31.0801262967" lon="35.1212175004"><ele>563.47</ele><time>2012-03-23T08:22:42Z</time></trkpt><trkpt lat="31.0800723173" lon="35.1212304085"><ele>562.99</ele><time>2012-03-23T08:22:43Z</time></trkpt><trkpt lat="31.0800181702" lon="35.1212397125"><ele>562.99</ele><time>2012-03-23T08:22:44Z</time></trkpt><trkpt lat="31.0799105465" lon="35.1212581526"><ele>562.03</ele><time>2012-03-23T08:22:46Z</time></trkpt><trkpt lat="31.0798605904" lon="35.1212775987"><ele>561.55</ele><time>2012-03-23T08:22:47Z</time></trkpt><trkpt lat="31.0798147414" lon="35.1213040017"><ele>561.07</ele><time>2012-03-23T08:22:48Z</time></trkpt><trkpt lat="31.0797750112" lon="35.1213373616"><ele>560.59</ele><time>2012-03-23T08:22:49Z</time></trkpt><trkpt lat="31.0797364544" lon="35.1213760022"><ele>560.11</ele><time>2012-03-23T08:22:50Z</time></trkpt><trkpt lat="31.0794088058" lon="35.1217215881"><ele>559.62</ele><time>2012-03-23T08:22:59Z</time></trkpt><trkpt lat="31.0791211389" lon="35.1220124401"><ele>563.47</ele><time>2012-03-23T08:23:13Z</time></trkpt><trkpt lat="31.0789307021" lon="35.1222799905"><ele>566.83</ele><time>2012-03-23T08:23:27Z</time></trkpt><trkpt lat="31.0787701048" lon="35.1224995125"><ele>568.28</ele><time>2012-03-23T08:23:40Z</time></trkpt><trkpt lat="31.0785840265" lon="35.1227500476"><ele>570.20</ele><time>2012-03-23T08:23:55Z</time></trkpt><trkpt lat="31.0783000477" lon="35.1230398100"><ele>570.20</ele><time>2012-03-23T08:24:11Z</time></trkpt><trkpt lat="31.0780169070" lon="35.1233265549"><ele>571.64</ele><time>2012-03-23T08:24:27Z</time></trkpt><trkpt lat="31.0777317546" lon="35.1236355957"><ele>572.60</ele><time>2012-03-23T08:24:44Z</time></trkpt><trkpt lat="31.0775186028" lon="35.1238730550"><ele>573.56</ele><time>2012-03-23T08:24:58Z</time></trkpt><trkpt lat="31.0774904396" lon="35.1238930877"><ele>574.04</ele><time>2012-03-23T08:25:11Z</time></trkpt><trkpt lat="31.0774922837" lon="35.1238975301"><ele>573.56</ele><time>2012-03-23T08:25:32Z</time></trkpt><trkpt lat="31.0774807166" lon="35.1238901541"><ele>573.56</ele><time>2012-03-23T08:25:33Z</time></trkpt><trkpt lat="31.0774409026" lon="35.1238609850"><ele>572.60</ele><time>2012-03-23T08:25:36Z</time></trkpt><trkpt lat="31.0774202831" lon="35.1238546986"><ele>572.12</ele><time>2012-03-23T08:25:37Z</time></trkpt><trkpt lat="31.0773995798" lon="35.1238564588"><ele>572.12</ele><time>2012-03-23T08:25:38Z</time></trkpt><trkpt lat="31.0773777030" lon="35.1238567103"><ele>571.16</ele><time>2012-03-23T08:25:49Z</time></trkpt><trkpt lat="31.0773573350" lon="35.1238577161"><ele>571.64</ele><time>2012-03-23T08:26:16Z</time></trkpt><trkpt lat="31.0770969093" lon="35.1239282917"><ele>569.24</ele><time>2012-03-23T08:26:28Z</time></trkpt><trkpt lat="31.0768900439" lon="35.1240898110"><ele>566.83</ele><time>2012-03-23T08:26:39Z</time></trkpt><trkpt lat="31.0768131819" lon="35.1241178904"><ele>566.35</ele><time>2012-03-23T08:26:42Z</time></trkpt><trkpt lat="31.0765224136" lon="35.1241327263"><ele>564.43</ele><time>2012-03-23T08:26:52Z</time></trkpt><trkpt lat="31.0764276981" lon="35.1241368335"><ele>562.51</ele><time>2012-03-23T08:26:55Z</time></trkpt><trkpt lat="31.0763440467" lon="35.1241141185"><ele>560.59</ele><time>2012-03-23T08:26:57Z</time></trkpt><trkpt lat="31.0759759136" lon="35.1238360070"><ele>553.38</ele><time>2012-03-23T08:27:09Z</time></trkpt><trkpt lat="31.0757081956" lon="35.1234758366"><ele>547.13</ele><time>2012-03-23T08:27:21Z</time></trkpt><trkpt lat="31.0755755939" lon="35.1233149879"><ele>548.09</ele><time>2012-03-23T08:27:31Z</time></trkpt><trkpt lat="31.0754530504" lon="35.1231207792"><ele>551.93</ele><time>2012-03-23T08:27:47Z</time></trkpt><trkpt lat="31.0754447524" lon="35.1231221203"><ele>552.41</ele><time>2012-03-23T08:28:03Z</time></trkpt><trkpt lat="31.0753929522" lon="35.1230620220"><ele>553.38</ele><time>2012-03-23T08:28:21Z</time></trkpt><trkpt lat="31.0753161740" lon="35.1229660492"><ele>555.30</ele><time>2012-03-23T08:28:37Z</time></trkpt><trkpt lat="31.0752231348" lon="35.1228533126"><ele>558.18</ele><time>2012-03-23T08:28:55Z</time></trkpt><trkpt lat="31.0751207918" lon="35.1227046177"><ele>562.51</ele><time>2012-03-23T08:29:12Z</time></trkpt><trkpt lat="31.0751048662" lon="35.1226539072"><ele>564.91</ele><time>2012-03-23T08:29:28Z</time></trkpt><trkpt lat="31.0750326142" lon="35.1225373149"><ele>568.76</ele><time>2012-03-23T08:29:43Z</time></trkpt><trkpt lat="31.0749384016" lon="35.1223852672"><ele>572.60</ele><time>2012-03-23T08:29:59Z</time></trkpt><trkpt lat="31.0749196261" lon="35.1223305333"><ele>575.49</ele><time>2012-03-23T08:30:14Z</time></trkpt><trkpt lat="31.0749148484" lon="35.1223255042"><ele>576.45</ele><time>2012-03-23T08:30:35Z</time></trkpt><trkpt lat="31.0748574324" lon="35.1221965067"><ele>579.33</ele><time>2012-03-23T08:31:01Z</time></trkpt><trkpt lat="31.0748175345" lon="35.1221388392"><ele>581.25</ele><time>2012-03-23T08:31:17Z</time></trkpt><trkpt lat="31.0748086497" lon="35.1221190579"><ele>584.14</ele><time>2012-03-23T08:31:46Z</time></trkpt><trkpt lat="31.0747467075" lon="35.1220445428"><ele>584.62</ele><time>2012-03-23T08:31:52Z</time></trkpt><trkpt lat="31.0746939853" lon="35.1219652500"><ele>583.66</ele><time>2012-03-23T08:31:57Z</time></trkpt><trkpt lat="31.0745815840" lon="35.1217499189"><ele>581.25</ele><time>2012-03-23T08:32:06Z</time></trkpt><trkpt lat="31.0745708551" lon="35.1216702070"><ele>580.77</ele><time>2012-03-23T08:32:10Z</time></trkpt><trkpt lat="31.0746055562" lon="35.1215498429"><ele>577.41</ele><time>2012-03-23T08:32:18Z</time></trkpt><trkpt lat="31.0746448673" lon="35.1214941870"><ele>575.01</ele><time>2012-03-23T08:32:22Z</time></trkpt><trkpt lat="31.0746716894" lon="35.1214329153"><ele>573.08</ele><time>2012-03-23T08:32:26Z</time></trkpt><trkpt lat="31.0748094041" lon="35.1212750841"><ele>568.28</ele><time>2012-03-23T08:32:38Z</time></trkpt><trkpt lat="31.0748175345" lon="35.1212705579"><ele>568.28</ele><time>2012-03-23T08:32:55Z</time></trkpt><trkpt lat="31.0748377349" lon="35.1212498546"><ele>567.32</ele><time>2012-03-23T08:33:16Z</time></trkpt><trkpt lat="31.0748460330" lon="35.1212401316"><ele>567.32</ele><time>2012-03-23T08:33:27Z</time></trkpt><trkpt lat="31.0748803150" lon="35.1212043408"><ele>566.35</ele><time>2012-03-23T08:33:37Z</time></trkpt><trkpt lat="31.0748856794" lon="35.1211997308"><ele>566.35</ele><time>2012-03-23T08:33:40Z</time></trkpt><trkpt lat="31.0749655589" lon="35.1211591624"><ele>564.91</ele><time>2012-03-23T08:33:45Z</time></trkpt><trkpt lat="31.0751037765" lon="35.1210900117"><ele>561.07</ele><time>2012-03-23T08:33:57Z</time></trkpt><trkpt lat="31.0751095600" lon="35.1210801210"><ele>560.11</ele><time>2012-03-23T08:34:19Z</time></trkpt><trkpt lat="31.0751119908" lon="35.1210804563"><ele>560.11</ele><time>2012-03-23T08:34:27Z</time></trkpt><trkpt lat="31.0751543194" lon="35.1210579090"><ele>559.14</ele><time>2012-03-23T08:34:39Z</time></trkpt><trkpt lat="31.0752072092" lon="35.1210466772"><ele>557.22</ele><time>2012-03-23T08:34:45Z</time></trkpt><trkpt lat="31.0753221251" lon="35.1210194360"><ele>555.30</ele><time>2012-03-23T08:34:58Z</time></trkpt><trkpt lat="31.0753954668" lon="35.1209735870"><ele>554.34</ele><time>2012-03-23T08:35:10Z</time></trkpt><trkpt lat="31.0753987357" lon="35.1209744252"><ele>553.86</ele><time>2012-03-23T08:35:16Z</time></trkpt><trkpt lat="31.0755162500" lon="35.1206990797"><ele>554.82</ele><time>2012-03-23T08:35:31Z</time></trkpt><trkpt lat="31.0756066907" lon="35.1204021927"><ele>555.30</ele><time>2012-03-23T08:35:45Z</time></trkpt><trkpt lat="31.0756379552" lon="35.1199921500"><ele>563.95</ele><time>2012-03-23T08:36:00Z</time></trkpt><trkpt lat="31.0756372847" lon="35.1198813412"><ele>565.87</ele><time>2012-03-23T08:36:05Z</time></trkpt><trkpt lat="31.0756429844" lon="35.1198629010"><ele>566.35</ele><time>2012-03-23T08:36:06Z</time></trkpt><trkpt lat="31.0756465886" lon="35.1198444609"><ele>566.35</ele><time>2012-03-23T08:36:07Z</time></trkpt><trkpt lat="31.0756486002" lon="35.1198278647"><ele>566.83</ele><time>2012-03-23T08:36:08Z</time></trkpt><trkpt lat="31.0756489355" lon="35.1198111009"><ele>566.83</ele><time>2012-03-23T08:36:09Z</time></trkpt><trkpt lat="31.0756501928" lon="35.1197945885"><ele>567.32</ele><time>2012-03-23T08:36:10Z</time></trkpt><trkpt lat="31.0756511986" lon="35.1197760645"><ele>567.32</ele><time>2012-03-23T08:36:11Z</time></trkpt><trkpt lat="31.0756526235" lon="35.1197546907"><ele>568.28</ele><time>2012-03-23T08:36:12Z</time></trkpt><trkpt lat="31.0756536294" lon="35.1197337359"><ele>568.28</ele><time>2012-03-23T08:36:13Z</time></trkpt><trkpt lat="31.0756580718" lon="35.1196691114"><ele>568.76</ele><time>2012-03-23T08:36:26Z</time></trkpt><trkpt lat="31.0756532103" lon="35.1196654234"><ele>568.28</ele><time>2012-03-23T08:36:41Z</time></trkpt><trkpt lat="31.0756516177" lon="35.1196795888"><ele>567.32</ele><time>2012-03-23T08:37:02Z</time></trkpt><trkpt lat="31.0756393801" lon="35.1196456421"><ele>565.39</ele><time>2012-03-23T08:37:23Z</time></trkpt><trkpt lat="31.0756429844" lon="35.1196066663"><ele>567.80</ele><time>2012-03-23T08:37:52Z</time></trkpt><trkpt lat="31.0756504443" lon="35.1195987873"><ele>569.24</ele><time>2012-03-23T08:38:35Z</time></trkpt><trkpt lat="31.0756479297" lon="35.1195992902"><ele>568.76</ele><time>2012-03-23T08:39:28Z</time></trkpt><trkpt lat="31.0756496899" lon="35.1195911597"><ele>568.76</ele><time>2012-03-23T08:40:20Z</time></trkpt><trkpt lat="31.0756537132" lon="35.1195881423"><ele>569.24</ele><time>2012-03-23T08:41:06Z</time></trkpt><trkpt lat="31.0756307468" lon="35.1195184886"><ele>568.76</ele><time>2012-03-23T08:41:53Z</time></trkpt><trkpt lat="31.0755586624" lon="35.1193987951"><ele>566.35</ele><time>2012-03-23T08:41:57Z</time></trkpt><trkpt lat="31.0753476899" lon="35.1191108767"><ele>560.11</ele><time>2012-03-23T08:42:07Z</time></trkpt><trkpt lat="31.0752612725" lon="35.1189523749"><ele>555.78</ele><time>2012-03-23T08:42:13Z</time></trkpt><trkpt lat="31.0751562472" lon="35.1187125687"><ele>551.45</ele><time>2012-03-23T08:42:19Z</time></trkpt><trkpt lat="31.0751376394" lon="35.1185057033"><ele>548.09</ele><time>2012-03-23T08:42:23Z</time></trkpt><trkpt lat="31.0750469472" lon="35.1179081574"><ele>544.72</ele><time>2012-03-23T08:42:34Z</time></trkpt><trkpt lat="31.0750262439" lon="35.1178366598"><ele>544.24</ele><time>2012-03-23T08:42:36Z</time></trkpt><trkpt lat="31.0749438498" lon="35.1171990484"><ele>539.44</ele><time>2012-03-23T08:42:51Z</time></trkpt><trkpt lat="31.0749333724" lon="35.1171069313"><ele>538.48</ele><time>2012-03-23T08:42:53Z</time></trkpt><trkpt lat="31.0749157704" lon="35.1170106232"><ele>537.99</ele><time>2012-03-23T08:42:55Z</time></trkpt><trkpt lat="31.0749183688" lon="35.1168020815"><ele>536.07</ele><time>2012-03-23T08:42:59Z</time></trkpt><trkpt lat="31.0749003477" lon="35.1164026000"><ele>534.15</ele><time>2012-03-23T08:43:08Z</time></trkpt><trkpt lat="31.0749324504" lon="35.1159788109"><ele>535.11</ele><time>2012-03-23T08:43:21Z</time></trkpt><trkpt lat="31.0749115795" lon="35.1155887172"><ele>536.55</ele><time>2012-03-23T08:43:33Z</time></trkpt><trkpt lat="31.0748692509" lon="35.1151433866"><ele>538.48</ele><time>2012-03-23T08:43:45Z</time></trkpt><trkpt lat="31.0747129284" lon="35.1148815360"><ele>538.96</ele><time>2012-03-23T08:43:58Z</time></trkpt><trkpt lat="31.0744485632" lon="35.1147428993"><ele>536.07</ele><time>2012-03-23T08:44:08Z</time></trkpt><trkpt lat="31.0744748823" lon="35.1146124769"><ele>535.11</ele><time>2012-03-23T08:44:16Z</time></trkpt><trkpt lat="31.0745222401" lon="35.1145548094"><ele>533.19</ele><time>2012-03-23T08:44:27Z</time></trkpt><trkpt lat="31.0745143611" lon="35.1145609282"><ele>532.23</ele><time>2012-03-23T08:44:42Z</time></trkpt><trkpt lat="31.0745116789" lon="35.1145633589"><ele>531.75</ele><time>2012-03-23T08:45:04Z</time></trkpt><trkpt lat="31.0745116789" lon="35.1145620178"><ele>531.27</ele><time>2012-03-23T08:45:21Z</time></trkpt><trkpt lat="31.0745106731" lon="35.1145549770"><ele>530.79</ele><time>2012-03-23T08:45:37Z</time></trkpt><trkpt lat="31.0745105892" lon="35.1145569887"><ele>529.82</ele><time>2012-03-23T08:46:05Z</time></trkpt><trkpt lat="31.0745103378" lon="35.1145592518"><ele>529.34</ele><time>2012-03-23T08:46:43Z</time></trkpt><trkpt lat="31.0745108407" lon="35.1145647839"><ele>528.86</ele><time>2012-03-23T08:47:15Z</time></trkpt><trkpt lat="31.0745192226" lon="35.1145673823"><ele>528.38</ele><time>2012-03-23T08:47:54Z</time></trkpt><trkpt lat="31.0745170433" lon="35.1145675499"><ele>528.38</ele><time>2012-03-23T08:48:22Z</time></trkpt><trkpt lat="31.0745162889" lon="35.1145631075"><ele>527.90</ele><time>2012-03-23T08:48:58Z</time></trkpt><trkpt lat="31.0745208152" lon="35.1145695616"><ele>527.42</ele><time>2012-03-23T08:49:32Z</time></trkpt><trkpt lat="31.0745240003" lon="35.1145640295"><ele>527.42</ele><time>2012-03-23T08:50:07Z</time></trkpt><trkpt lat="31.0745171271" lon="35.1145627722"><ele>526.94</ele><time>2012-03-23T08:50:43Z</time></trkpt><trkpt lat="31.0745199770" lon="35.1145682205"><ele>526.94</ele><time>2012-03-23T08:51:25Z</time></trkpt><trkpt lat="31.0745174624" lon="35.1145671308"><ele>526.46</ele><time>2012-03-23T08:51:54Z</time></trkpt><trkpt lat="31.0745198932" lon="35.1145648677"><ele>526.46</ele><time>2012-03-23T08:52:25Z</time></trkpt><trkpt lat="31.0745249223" lon="35.1145621855"><ele>526.46</ele><time>2012-03-23T08:53:04Z</time></trkpt><trkpt lat="31.0745299514" lon="35.1145607606"><ele>526.94</ele><time>2012-03-23T08:53:44Z</time></trkpt><trkpt lat="31.0745281912" lon="35.1145508699"><ele>526.46</ele><time>2012-03-23T08:54:39Z</time></trkpt><trkpt lat="31.0745308734" lon="35.1145588327"><ele>526.94</ele><time>2012-03-23T08:55:11Z</time></trkpt><trkpt lat="31.0745347291" lon="35.1145709865"><ele>526.46</ele><time>2012-03-23T08:56:06Z</time></trkpt><trkpt lat="31.0745374113" lon="35.1145726629"><ele>526.94</ele><time>2012-03-23T08:56:44Z</time></trkpt><trkpt lat="31.0745226592" lon="35.1145595871"><ele>526.46</ele><time>2012-03-23T08:57:15Z</time></trkpt><trkpt lat="31.0745169595" lon="35.1145590004"><ele>528.86</ele><time>2012-03-23T08:57:52Z</time></trkpt><trkpt lat="31.0745117627" lon="35.1145640295"><ele>529.82</ele><time>2012-03-23T08:58:26Z</time></trkpt><trkpt lat="31.0745094996" lon="35.1145667117"><ele>529.82</ele><time>2012-03-23T08:58:59Z</time></trkpt><trkpt lat="31.0745440330" lon="35.1145494450"><ele>529.34</ele><time>2012-03-23T08:59:14Z</time></trkpt><trkpt lat="31.0746657383" lon="35.1145533845"><ele>528.38</ele><time>2012-03-23T08:59:21Z</time></trkpt><trkpt lat="31.0748682451" lon="35.1143538114"><ele>526.94</ele><time>2012-03-23T08:59:31Z</time></trkpt><trkpt lat="31.0749342106" lon="35.1142795477"><ele>527.42</ele><time>2012-03-23T08:59:42Z</time></trkpt><trkpt lat="31.0749206319" lon="35.1142782904"><ele>527.90</ele><time>2012-03-23T08:59:50Z</time></trkpt><trkpt lat="31.0747196339" lon="35.1144920290"><ele>527.90</ele><time>2012-03-23T09:00:02Z</time></trkpt><trkpt lat="31.0745198093" lon="35.1145471819"><ele>528.38</ele><time>2012-03-23T09:00:14Z</time></trkpt><trkpt lat="31.0744447075" lon="35.1144631114"><ele>529.34</ele><time>2012-03-23T09:00:22Z</time></trkpt><trkpt lat="31.0743242595" lon="35.1142939646"><ele>534.15</ele><time>2012-03-23T09:00:35Z</time></trkpt><trkpt lat="31.0743116029" lon="35.1142616104"><ele>534.63</ele><time>2012-03-23T09:00:37Z</time></trkpt><trkpt lat="31.0743033886" lon="35.1142243110"><ele>535.11</ele><time>2012-03-23T09:00:39Z</time></trkpt><trkpt lat="31.0741729662" lon="35.1140565891"><ele>535.59</ele><time>2012-03-23T09:00:50Z</time></trkpt><trkpt lat="31.0741222557" lon="35.1139172819"><ele>536.07</ele><time>2012-03-23T09:00:58Z</time></trkpt><trkpt lat="31.0740248580" lon="35.1137175411"><ele>537.51</ele><time>2012-03-23T09:01:10Z</time></trkpt><trkpt lat="31.0739190783" lon="35.1134214085"><ele>537.99</ele><time>2012-03-23T09:01:25Z</time></trkpt><trkpt lat="31.0738087725" lon="35.1131272875"><ele>537.99</ele><time>2012-03-23T09:01:39Z</time></trkpt><trkpt lat="31.0736419726" lon="35.1128624193"><ele>540.40</ele><time>2012-03-23T09:01:53Z</time></trkpt><trkpt lat="31.0736287292" lon="35.1128506847"><ele>540.40</ele><time>2012-03-23T09:01:54Z</time></trkpt><trkpt lat="31.0734232049" lon="35.1126502734"><ele>541.36</ele><time>2012-03-23T09:02:09Z</time></trkpt><trkpt lat="31.0733907670" lon="35.1126208529"><ele>541.36</ele><time>2012-03-23T09:02:12Z</time></trkpt><trkpt lat="31.0733689740" lon="35.1125412248"><ele>541.36</ele><time>2012-03-23T09:02:16Z</time></trkpt><trkpt lat="31.0732014198" lon="35.1123680547"><ele>544.24</ele><time>2012-03-23T09:02:31Z</time></trkpt><trkpt lat="31.0731633659" lon="35.1123263966"><ele>544.72</ele><time>2012-03-23T09:02:35Z</time></trkpt><trkpt lat="31.0730461869" lon="35.1122768596"><ele>544.72</ele><time>2012-03-23T09:02:44Z</time></trkpt><trkpt lat="31.0728852544" lon="35.1121867541"><ele>544.24</ele><time>2012-03-23T09:02:54Z</time></trkpt><trkpt lat="31.0726249125" lon="35.1121058688"><ele>545.20</ele><time>2012-03-23T09:03:12Z</time></trkpt><trkpt lat="31.0726047959" lon="35.1120965648"><ele>544.24</ele><time>2012-03-23T09:03:26Z</time></trkpt><trkpt lat="31.0724467132" lon="35.1120502967"><ele>545.69</ele><time>2012-03-23T09:03:41Z</time></trkpt><trkpt lat="31.0723593738" lon="35.1120388974"><ele>546.17</ele><time>2012-03-23T09:03:55Z</time></trkpt><trkpt lat="31.0722053144" lon="35.1119974069"><ele>548.09</ele><time>2012-03-23T09:04:08Z</time></trkpt><trkpt lat="31.0720458906" lon="35.1119575091"><ele>550.97</ele><time>2012-03-23T09:04:21Z</time></trkpt><trkpt lat="31.0719939228" lon="35.1119543239"><ele>551.45</ele><time>2012-03-23T09:04:25Z</time></trkpt><trkpt lat="31.0718551185" lon="35.1119601913"><ele>553.38</ele><time>2012-03-23T09:04:42Z</time></trkpt><trkpt lat="31.0718540289" lon="35.1119603589"><ele>553.38</ele><time>2012-03-23T09:04:43Z</time></trkpt><trkpt lat="31.0717550386" lon="35.1119625382"><ele>553.86</ele><time>2012-03-23T09:04:50Z</time></trkpt><trkpt lat="31.0715592373" lon="35.1119606942"><ele>556.26</ele><time>2012-03-23T09:05:05Z</time></trkpt><trkpt lat="31.0714937747" lon="35.1119634602"><ele>556.74</ele><time>2012-03-23T09:05:10Z</time></trkpt><trkpt lat="31.0714479256" lon="35.1119793020"><ele>557.70</ele><time>2012-03-23T09:05:14Z</time></trkpt><trkpt lat="31.0713561438" lon="35.1119777933"><ele>559.14</ele><time>2012-03-23T09:05:22Z</time></trkpt><trkpt lat="31.0712973867" lon="35.1119909529"><ele>559.14</ele><time>2012-03-23T09:05:27Z</time></trkpt><trkpt lat="31.0712102149" lon="35.1119888574"><ele>560.11</ele><time>2012-03-23T09:05:34Z</time></trkpt><trkpt lat="31.0711270664" lon="35.1119886059"><ele>560.59</ele><time>2012-03-23T09:05:40Z</time></trkpt><trkpt lat="31.0708479490" lon="35.1120726764"><ele>560.59</ele><time>2012-03-23T09:05:54Z</time></trkpt><trkpt lat="31.0705281794" lon="35.1121947169"><ele>561.55</ele><time>2012-03-23T09:06:09Z</time></trkpt><trkpt lat="31.0702040512" lon="35.1123885904"><ele>560.59</ele><time>2012-03-23T09:06:25Z</time></trkpt><trkpt lat="31.0699511692" lon="35.1124885026"><ele>562.51</ele><time>2012-03-23T09:06:39Z</time></trkpt><trkpt lat="31.0698395222" lon="35.1126280613"><ele>562.03</ele><time>2012-03-23T09:06:47Z</time></trkpt><trkpt lat="31.0698168911" lon="35.1126957871"><ele>560.59</ele><time>2012-03-23T09:06:51Z</time></trkpt><trkpt lat="31.0698418692" lon="35.1129071787"><ele>558.18</ele><time>2012-03-23T09:06:59Z</time></trkpt><trkpt lat="31.0697968584" lon="35.1129937638"><ele>557.70</ele><time>2012-03-23T09:07:06Z</time></trkpt><trkpt lat="31.0697884765" lon="35.1129926741"><ele>557.70</ele><time>2012-03-23T09:07:07Z</time></trkpt><trkpt lat="31.0697701201" lon="35.1129873935"><ele>557.70</ele><time>2012-03-23T09:07:09Z</time></trkpt><trkpt lat="31.0697234329" lon="35.1129693724"><ele>557.70</ele><time>2012-03-23T09:07:13Z</time></trkpt><trkpt lat="31.0696780030" lon="35.1129786763"><ele>558.18</ele><time>2012-03-23T09:07:23Z</time></trkpt><trkpt lat="31.0695047490" lon="35.1128357649"><ele>558.66</ele><time>2012-03-23T09:07:35Z</time></trkpt><trkpt lat="31.0692407191" lon="35.1127362717"><ele>559.62</ele><time>2012-03-23T09:07:48Z</time></trkpt><trkpt lat="31.0690989811" lon="35.1127394568"><ele>560.59</ele><time>2012-03-23T09:07:56Z</time></trkpt><trkpt lat="31.0689160880" lon="35.1127027441"><ele>558.66</ele><time>2012-03-23T09:08:08Z</time></trkpt><trkpt lat="31.0688399803" lon="35.1126787718"><ele>556.74</ele><time>2012-03-23T09:08:12Z</time></trkpt><trkpt lat="31.0687186942" lon="35.1126839686"><ele>555.78</ele><time>2012-03-23T09:08:18Z</time></trkpt><trkpt lat="31.0686601885" lon="35.1126073580"><ele>553.38</ele><time>2012-03-23T09:08:22Z</time></trkpt><trkpt lat="31.0686285049" lon="35.1125468407"><ele>553.38</ele><time>2012-03-23T09:08:30Z</time></trkpt><trkpt lat="31.0686250683" lon="35.1125215273"><ele>555.30</ele><time>2012-03-23T09:08:50Z</time></trkpt><trkpt lat="31.0685899481" lon="35.1123906858"><ele>558.18</ele><time>2012-03-23T09:09:01Z</time></trkpt><trkpt lat="31.0685458593" lon="35.1123584155"><ele>559.62</ele><time>2012-03-23T09:09:06Z</time></trkpt><trkpt lat="31.0684799775" lon="35.1122835651"><ele>560.59</ele><time>2012-03-23T09:09:14Z</time></trkpt><trkpt lat="31.0683461186" lon="35.1121742651"><ele>561.55</ele><time>2012-03-23T09:09:27Z</time></trkpt><trkpt lat="31.0683051310" lon="35.1121502928"><ele>562.03</ele><time>2012-03-23T09:09:31Z</time></trkpt><trkpt lat="31.0681979265" lon="35.1120456867"><ele>564.43</ele><time>2012-03-23T09:09:42Z</time></trkpt><trkpt lat="31.0680734552" lon="35.1119694952"><ele>564.91</ele><time>2012-03-23T09:09:54Z</time></trkpt><trkpt lat="31.0679712798" lon="35.1119277533"><ele>564.91</ele><time>2012-03-23T09:10:00Z</time></trkpt><trkpt lat="31.0676823556" lon="35.1118270028"><ele>560.59</ele><time>2012-03-23T09:10:16Z</time></trkpt><trkpt lat="31.0676059965" lon="35.1114797406"><ele>553.38</ele><time>2012-03-23T09:10:27Z</time></trkpt><trkpt lat="31.0676337406" lon="35.1113245077"><ele>551.93</ele><time>2012-03-23T09:10:32Z</time></trkpt><trkpt lat="31.0675885621" lon="35.1110767387"><ele>553.86</ele><time>2012-03-23T09:10:49Z</time></trkpt><trkpt lat="31.0675533582" lon="35.1110291295"><ele>555.30</ele><time>2012-03-23T09:11:00Z</time></trkpt><trkpt lat="31.0675311461" lon="35.1109312288"><ele>558.66</ele><time>2012-03-23T09:11:10Z</time></trkpt><trkpt lat="31.0674618278" lon="35.1108029857"><ele>562.51</ele><time>2012-03-23T09:11:25Z</time></trkpt><trkpt lat="31.0674010590" lon="35.1107248664"><ele>564.91</ele><time>2012-03-23T09:11:40Z</time></trkpt><trkpt lat="31.0673580598" lon="35.1106479205"><ele>568.28</ele><time>2012-03-23T09:11:54Z</time></trkpt><trkpt lat="31.0673401225" lon="35.1106158178"><ele>569.24</ele><time>2012-03-23T09:11:57Z</time></trkpt><trkpt lat="31.0672549624" lon="35.1104309130"><ele>572.60</ele><time>2012-03-23T09:12:15Z</time></trkpt><trkpt lat="31.0671891645" lon="35.1103345212"><ele>574.04</ele><time>2012-03-23T09:12:28Z</time></trkpt><trkpt lat="31.0670374520" lon="35.1102452539"><ele>574.04</ele><time>2012-03-23T09:12:41Z</time></trkpt><trkpt lat="31.0670232028" lon="35.1102326810"><ele>574.04</ele><time>2012-03-23T09:12:43Z</time></trkpt><trkpt lat="31.0669738334" lon="35.1102180127"><ele>574.04</ele><time>2012-03-23T09:12:47Z</time></trkpt><trkpt lat="31.0667626932" lon="35.1101331040"><ele>574.04</ele><time>2012-03-23T09:13:03Z</time></trkpt><trkpt lat="31.0667377990" lon="35.1101152506"><ele>574.04</ele><time>2012-03-23T09:13:05Z</time></trkpt><trkpt lat="31.0666689835" lon="35.1100579184"><ele>574.53</ele><time>2012-03-23T09:13:11Z</time></trkpt><trkpt lat="31.0664533172" lon="35.1099812239"><ele>577.41</ele><time>2012-03-23T09:13:28Z</time></trkpt><trkpt lat="31.0663742758" lon="35.1099270768"><ele>577.89</ele><time>2012-03-23T09:13:40Z</time></trkpt><trkpt lat="31.0663729347" lon="35.1099280827"><ele>578.37</ele><time>2012-03-23T09:14:08Z</time></trkpt><trkpt lat="31.0663898662" lon="35.1099190302"><ele>579.33</ele><time>2012-03-23T09:14:42Z</time></trkpt><trkpt lat="31.0663871840" lon="35.1099179406"><ele>579.33</ele><time>2012-03-23T09:15:06Z</time></trkpt><trkpt lat="31.0663791373" lon="35.1099202875"><ele>579.81</ele><time>2012-03-23T09:15:39Z</time></trkpt><trkpt lat="31.0663831607" lon="35.1099200360"><ele>579.33</ele><time>2012-03-23T09:16:09Z</time></trkpt><trkpt lat="31.0664003436" lon="35.1099126600"><ele>579.33</ele><time>2012-03-23T09:16:25Z</time></trkpt><trkpt lat="31.0662248265" lon="35.1095883641"><ele>578.85</ele><time>2012-03-23T09:16:39Z</time></trkpt><trkpt lat="31.0662245750" lon="35.1095602009"><ele>578.85</ele><time>2012-03-23T09:16:40Z</time></trkpt><trkpt lat="31.0662248265" lon="35.1095331274"><ele>578.85</ele><time>2012-03-23T09:16:41Z</time></trkpt><trkpt lat="31.0662213899" lon="35.1095085684"><ele>578.85</ele><time>2012-03-23T09:16:42Z</time></trkpt><trkpt lat="31.0662171990" lon="35.1094848476"><ele>578.37</ele><time>2012-03-23T09:16:43Z</time></trkpt><trkpt lat="31.0662042070" lon="35.1090064086"><ele>579.81</ele><time>2012-03-23T09:16:58Z</time></trkpt><trkpt lat="31.0660336353" lon="35.1086132973"><ele>576.45</ele><time>2012-03-23T09:17:11Z</time></trkpt><trkpt lat="31.0658532567" lon="35.1083162427"><ele>571.16</ele><time>2012-03-23T09:17:17Z</time></trkpt><trkpt lat="31.0657958407" lon="35.1082144026"><ele>569.24</ele><time>2012-03-23T09:17:19Z</time></trkpt><trkpt lat="31.0655676015" lon="35.1078907773"><ele>566.35</ele><time>2012-03-23T09:17:30Z</time></trkpt><trkpt lat="31.0654477403" lon="35.1077272464"><ele>569.24</ele><time>2012-03-23T09:17:43Z</time></trkpt><trkpt lat="31.0653989576" lon="35.1076455228"><ele>571.16</ele><time>2012-03-23T09:17:55Z</time></trkpt><trkpt lat="31.0653935093" lon="35.1076335367"><ele>571.16</ele><time>2012-03-23T09:17:56Z</time></trkpt><trkpt lat="31.0653847922" lon="35.1076228078"><ele>571.16</ele><time>2012-03-23T09:17:57Z</time></trkpt><trkpt lat="31.0652320739" lon="35.1074014418"><ele>571.64</ele><time>2012-03-23T09:18:10Z</time></trkpt><trkpt lat="31.0650127195" lon="35.1070530899"><ele>569.24</ele><time>2012-03-23T09:18:23Z</time></trkpt><trkpt lat="31.0647629388" lon="35.1066570450"><ele>567.80</ele><time>2012-03-23T09:18:34Z</time></trkpt><trkpt lat="31.0646258947" lon="35.1064390317"><ele>571.64</ele><time>2012-03-23T09:18:47Z</time></trkpt><trkpt lat="31.0644637886" lon="35.1062386204"><ele>575.97</ele><time>2012-03-23T09:19:05Z</time></trkpt><trkpt lat="31.0643473640" lon="35.1060706470"><ele>576.45</ele><time>2012-03-23T09:19:18Z</time></trkpt><trkpt lat="31.0643309355" lon="35.1060408913"><ele>575.97</ele><time>2012-03-23T09:19:20Z</time></trkpt><trkpt lat="31.0642964020" lon="35.1059890073"><ele>576.45</ele><time>2012-03-23T09:19:24Z</time></trkpt><trkpt lat="31.0642107390" lon="35.1058725826"><ele>575.97</ele><time>2012-03-23T09:19:34Z</time></trkpt><trkpt lat="31.0641481262" lon="35.1058098022"><ele>575.97</ele><time>2012-03-23T09:19:40Z</time></trkpt><trkpt lat="31.0639659036" lon="35.1056096423"><ele>574.04</ele><time>2012-03-23T09:19:54Z</time></trkpt><trkpt lat="31.0637038015" lon="35.1050925627"><ele>571.16</ele><time>2012-03-23T09:20:05Z</time></trkpt><trkpt lat="31.0635615606" lon="35.1048323046"><ele>572.12</ele><time>2012-03-23T09:20:14Z</time></trkpt><trkpt lat="31.0633854568" lon="35.1047680993"><ele>572.12</ele><time>2012-03-23T09:20:25Z</time></trkpt><trkpt lat="31.0629913397" lon="35.1046329830"><ele>570.20</ele><time>2012-03-23T09:20:43Z</time></trkpt><trkpt lat="31.0626424011" lon="35.1044785883"><ele>569.72</ele><time>2012-03-23T09:20:59Z</time></trkpt><trkpt lat="31.0624344461" lon="35.1040709764"><ele>569.72</ele><time>2012-03-23T09:21:14Z</time></trkpt><trkpt lat="31.0622550733" lon="35.1038512867"><ele>571.16</ele><time>2012-03-23T09:21:25Z</time></trkpt><trkpt lat="31.0622460209" lon="35.1038192678"><ele>571.16</ele><time>2012-03-23T09:21:26Z</time></trkpt><trkpt lat="31.0622409079" lon="35.1037827227"><ele>570.68</ele><time>2012-03-23T09:21:27Z</time></trkpt><trkpt lat="31.0622402374" lon="35.1037407294"><ele>570.68</ele><time>2012-03-23T09:21:28Z</time></trkpt><trkpt lat="31.0622404050" lon="35.1036982331"><ele>570.68</ele><time>2012-03-23T09:21:29Z</time></trkpt><trkpt lat="31.0622341186" lon="35.1036569104"><ele>570.68</ele><time>2012-03-23T09:21:30Z</time></trkpt><trkpt lat="31.0622230545" lon="35.1036157552"><ele>570.68</ele><time>2012-03-23T09:21:31Z</time></trkpt><trkpt lat="31.0622076318" lon="35.1035733428"><ele>570.20</ele><time>2012-03-23T09:21:32Z</time></trkpt><trkpt lat="31.0621877667" lon="35.1035319362"><ele>569.72</ele><time>2012-03-23T09:21:33Z</time></trkpt><trkpt lat="31.0621632077" lon="35.1034939662"><ele>569.72</ele><time>2012-03-23T09:21:34Z</time></trkpt><trkpt lat="31.0621337872" lon="35.1034635399"><ele>569.72</ele><time>2012-03-23T09:21:35Z</time></trkpt><trkpt lat="31.0621066298" lon="35.1034368854"><ele>569.72</ele><time>2012-03-23T09:21:36Z</time></trkpt><trkpt lat="31.0620816518" lon="35.1034145895"><ele>569.72</ele><time>2012-03-23T09:21:37Z</time></trkpt><trkpt lat="31.0620601103" lon="35.1033924613"><ele>569.72</ele><time>2012-03-23T09:21:38Z</time></trkpt><trkpt lat="31.0620398261" lon="35.1033716742"><ele>569.72</ele><time>2012-03-23T09:21:39Z</time></trkpt><trkpt lat="31.0620173626" lon="35.1033561677"><ele>569.72</ele><time>2012-03-23T09:21:40Z</time></trkpt><trkpt lat="31.0619954020" lon="35.1033457741"><ele>569.72</ele><time>2012-03-23T09:21:41Z</time></trkpt><trkpt lat="31.0619736090" lon="35.1033369731"><ele>570.20</ele><time>2012-03-23T09:21:42Z</time></trkpt><trkpt lat="31.0619531572" lon="35.1033247355"><ele>570.20</ele><time>2012-03-23T09:21:43Z</time></trkpt><trkpt lat="31.0616776440" lon="35.1033091452"><ele>570.68</ele><time>2012-03-23T09:21:54Z</time></trkpt><trkpt lat="31.0613634065" lon="35.1033063792"><ele>571.64</ele><time>2012-03-23T09:22:08Z</time></trkpt><trkpt lat="31.0611307248" lon="35.1031859312"><ele>571.16</ele><time>2012-03-23T09:22:21Z</time></trkpt><trkpt lat="31.0609888192" lon="35.1027618069"><ele>571.16</ele><time>2012-03-23T09:22:37Z</time></trkpt><trkpt lat="31.0607643519" lon="35.1024440490"><ele>572.12</ele><time>2012-03-23T09:22:50Z</time></trkpt><trkpt lat="31.0605857335" lon="35.1021397021"><ele>572.12</ele><time>2012-03-23T09:23:02Z</time></trkpt><trkpt lat="31.0605879128" lon="35.1017372031"><ele>572.60</ele><time>2012-03-23T09:23:14Z</time></trkpt><trkpt lat="31.0605139006" lon="35.1016672142"><ele>574.04</ele><time>2012-03-23T09:23:20Z</time></trkpt><trkpt lat="31.0604988970" lon="35.1016615145"><ele>574.04</ele><time>2012-03-23T09:23:21Z</time></trkpt><trkpt lat="31.0604813788" lon="35.1016527135"><ele>574.04</ele><time>2012-03-23T09:23:22Z</time></trkpt><trkpt lat="31.0604620166" lon="35.1016405597"><ele>574.04</ele><time>2012-03-23T09:23:23Z</time></trkpt><trkpt lat="31.0604419839" lon="35.1016279031"><ele>574.04</ele><time>2012-03-23T09:23:24Z</time></trkpt><trkpt lat="31.0604221188" lon="35.1016152464"><ele>574.53</ele><time>2012-03-23T09:23:25Z</time></trkpt><trkpt lat="31.0604027566" lon="35.1016001590"><ele>574.53</ele><time>2012-03-23T09:23:26Z</time></trkpt><trkpt lat="31.0601317696" lon="35.1013600174"><ele>574.53</ele><time>2012-03-23T09:23:39Z</time></trkpt><trkpt lat="31.0599829908" lon="35.1009635534"><ele>573.56</ele><time>2012-03-23T09:23:53Z</time></trkpt><trkpt lat="31.0599151812" lon="35.1005400158"><ele>575.49</ele><time>2012-03-23T09:24:06Z</time></trkpt><trkpt lat="31.0599320289" lon="35.1000163145"><ele>575.01</ele><time>2012-03-23T09:24:20Z</time></trkpt><trkpt lat="31.0600119084" lon="35.0996069424"><ele>572.60</ele><time>2012-03-23T09:24:31Z</time></trkpt><trkpt lat="31.0600131657" lon="35.0995738339"><ele>572.12</ele><time>2012-03-23T09:24:32Z</time></trkpt><trkpt lat="31.0600023530" lon="35.0995441619"><ele>572.12</ele><time>2012-03-23T09:24:33Z</time></trkpt><trkpt lat="31.0599828232" lon="35.0995129813"><ele>571.16</ele><time>2012-03-23T09:24:34Z</time></trkpt><trkpt lat="31.0599557497" lon="35.0994769391"><ele>570.68</ele><time>2012-03-23T09:24:35Z</time></trkpt><trkpt lat="31.0599247366" lon="35.0994370412"><ele>569.72</ele><time>2012-03-23T09:24:36Z</time></trkpt><trkpt lat="31.0598952323" lon="35.0993948802"><ele>569.72</ele><time>2012-03-23T09:24:37Z</time></trkpt><trkpt lat="31.0598662309" lon="35.0993640348"><ele>569.72</ele><time>2012-03-23T09:24:38Z</time></trkpt><trkpt lat="31.0598377325" lon="35.0993398111"><ele>569.72</ele><time>2012-03-23T09:24:39Z</time></trkpt><trkpt lat="31.0596944857" lon="35.0991621148"><ele>569.72</ele><time>2012-03-23T09:24:48Z</time></trkpt><trkpt lat="31.0596814100" lon="35.0991490390"><ele>569.72</ele><time>2012-03-23T09:24:49Z</time></trkpt><trkpt lat="31.0595519096" lon="35.0990594365"><ele>567.32</ele><time>2012-03-23T09:24:58Z</time></trkpt><trkpt lat="31.0595420189" lon="35.0990404096"><ele>566.83</ele><time>2012-03-23T09:24:59Z</time></trkpt><trkpt lat="31.0595320445" lon="35.0990208797"><ele>566.35</ele><time>2012-03-23T09:25:00Z</time></trkpt><trkpt lat="31.0595208965" lon="35.0990004279"><ele>566.35</ele><time>2012-03-23T09:25:01Z</time></trkpt><trkpt lat="31.0595064797" lon="35.0989798922"><ele>566.35</ele><time>2012-03-23T09:25:02Z</time></trkpt><trkpt lat="31.0594918113" lon="35.0989570096"><ele>565.87</ele><time>2012-03-23T09:25:03Z</time></trkpt><trkpt lat="31.0592236742" lon="35.0986576919"><ele>563.47</ele><time>2012-03-23T09:25:17Z</time></trkpt><trkpt lat="31.0589521006" lon="35.0987089891"><ele>562.51</ele><time>2012-03-23T09:25:27Z</time></trkpt><trkpt lat="31.0585828777" lon="35.0987920538"><ele>562.51</ele><time>2012-03-23T09:25:41Z</time></trkpt><trkpt lat="31.0582584143" lon="35.0988236535"><ele>562.03</ele><time>2012-03-23T09:25:56Z</time></trkpt><trkpt lat="31.0579464398" lon="35.0988588575"><ele>563.95</ele><time>2012-03-23T09:26:12Z</time></trkpt><trkpt lat="31.0576742794" lon="35.0988721009"><ele>564.91</ele><time>2012-03-23T09:26:28Z</time></trkpt><trkpt lat="31.0573698487" lon="35.0989368930"><ele>568.28</ele><time>2012-03-23T09:26:46Z</time></trkpt><trkpt lat="31.0571279470" lon="35.0990068819"><ele>569.72</ele><time>2012-03-23T09:26:59Z</time></trkpt><trkpt lat="31.0568537749" lon="35.0991263241"><ele>571.16</ele><time>2012-03-23T09:27:14Z</time></trkpt><trkpt lat="31.0565612465" lon="35.0992932077"><ele>570.68</ele><time>2012-03-23T09:27:27Z</time></trkpt><trkpt lat="31.0562826321" lon="35.0993561558"><ele>569.24</ele><time>2012-03-23T09:27:39Z</time></trkpt><trkpt lat="31.0559316818" lon="35.0993794575"><ele>568.76</ele><time>2012-03-23T09:27:53Z</time></trkpt><trkpt lat="31.0556130018" lon="35.0992638711"><ele>570.20</ele><time>2012-03-23T09:28:07Z</time></trkpt><trkpt lat="31.0553299449" lon="35.0990719255"><ele>573.56</ele><time>2012-03-23T09:28:24Z</time></trkpt><trkpt lat="31.0551253427" lon="35.0989297684"><ele>575.49</ele><time>2012-03-23T09:28:39Z</time></trkpt><trkpt lat="31.0549530946" lon="35.0988159422"><ele>576.93</ele><time>2012-03-23T09:28:52Z</time></trkpt><trkpt lat="31.0548907332" lon="35.0985638145"><ele>577.41</ele><time>2012-03-23T09:29:04Z</time></trkpt><trkpt lat="31.0548810940" lon="35.0985703524"><ele>575.97</ele><time>2012-03-23T09:29:20Z</time></trkpt><trkpt lat="31.0548776574" lon="35.0985742081"><ele>575.49</ele><time>2012-03-23T09:29:39Z</time></trkpt><trkpt lat="31.0548820999" lon="35.0985747110"><ele>574.53</ele><time>2012-03-23T09:30:06Z</time></trkpt><trkpt lat="31.0548754781" lon="35.0985613000"><ele>575.49</ele><time>2012-03-23T09:30:44Z</time></trkpt><trkpt lat="31.0548869614" lon="35.0985602103"><ele>576.93</ele><time>2012-03-23T09:31:18Z</time></trkpt><trkpt lat="31.0549009591" lon="35.0985628087"><ele>575.97</ele><time>2012-03-23T09:31:49Z</time></trkpt><trkpt lat="31.0548993666" lon="35.0985732861"><ele>576.45</ele><time>2012-03-23T09:32:29Z</time></trkpt><trkpt lat="31.0548981931" lon="35.0985751301"><ele>577.41</ele><time>2012-03-23T09:32:47Z</time></trkpt><trkpt lat="31.0548780765" lon="35.0985712744"><ele>577.41</ele><time>2012-03-23T09:33:19Z</time></trkpt><trkpt lat="31.0548715387" lon="35.0985789020"><ele>577.89</ele><time>2012-03-23T09:33:47Z</time></trkpt><trkpt lat="31.0548628215" lon="35.0985846017"><ele>580.77</ele><time>2012-03-23T09:34:19Z</time></trkpt><trkpt lat="31.0548633244" lon="35.0985680893"><ele>579.81</ele><time>2012-03-23T09:34:47Z</time></trkpt><trkpt lat="31.0548686050" lon="35.0985585339"><ele>578.37</ele><time>2012-03-23T09:35:23Z</time></trkpt><trkpt lat="31.0548553616" lon="35.0985526666"><ele>577.89</ele><time>2012-03-23T09:35:56Z</time></trkpt><trkpt lat="31.0548567027" lon="35.0984892994"><ele>577.89</ele><time>2012-03-23T09:36:01Z</time></trkpt><trkpt lat="31.0548569541" lon="35.0982252695"><ele>577.89</ele><time>2012-03-23T09:36:13Z</time></trkpt><trkpt lat="31.0548771545" lon="35.0979058351"><ele>576.45</ele><time>2012-03-23T09:36:26Z</time></trkpt><trkpt lat="31.0548450518" lon="35.0973315910"><ele>572.60</ele><time>2012-03-23T09:36:41Z</time></trkpt><trkpt lat="31.0548785795" lon="35.0969465263"><ele>571.16</ele><time>2012-03-23T09:36:49Z</time></trkpt><trkpt lat="31.0548142903" lon="35.0961272791"><ele>568.28</ele><time>2012-03-23T09:37:03Z</time></trkpt><trkpt lat="31.0547498334" lon="35.0955775101"><ele>568.76</ele><time>2012-03-23T09:37:16Z</time></trkpt><trkpt lat="31.0546677746" lon="35.0952501129"><ele>568.76</ele><time>2012-03-23T09:37:28Z</time></trkpt><trkpt lat="31.0544095282" lon="35.0948636234"><ele>567.80</ele><time>2012-03-23T09:37:43Z</time></trkpt><trkpt lat="31.0543545429" lon="35.0946439337"><ele>565.87</ele><time>2012-03-23T09:37:48Z</time></trkpt><trkpt lat="31.0542569775" lon="35.0940799993"><ele>566.35</ele><time>2012-03-23T09:38:03Z</time></trkpt><trkpt lat="31.0542356875" lon="35.0939117745"><ele>567.32</ele><time>2012-03-23T09:38:15Z</time></trkpt><trkpt lat="31.0542086139" lon="35.0936386082"><ele>568.76</ele><time>2012-03-23T09:38:30Z</time></trkpt><trkpt lat="31.0541563109" lon="35.0933777634"><ele>569.24</ele><time>2012-03-23T09:38:43Z</time></trkpt><trkpt lat="31.0540829692" lon="35.0930525456"><ele>568.76</ele><time>2012-03-23T09:38:55Z</time></trkpt><trkpt lat="31.0539916065" lon="35.0925260782"><ele>569.72</ele><time>2012-03-23T09:39:11Z</time></trkpt><trkpt lat="31.0540378746" lon="35.0921900477"><ele>569.24</ele><time>2012-03-23T09:39:24Z</time></trkpt><trkpt lat="31.0541096237" lon="35.0917916559"><ele>567.32</ele><time>2012-03-23T09:39:38Z</time></trkpt><trkpt lat="31.0541479290" lon="35.0911988877"><ele>563.47</ele><time>2012-03-23T09:39:52Z</time></trkpt><trkpt lat="31.0541831329" lon="35.0907974783"><ele>561.07</ele><time>2012-03-23T09:39:59Z</time></trkpt><trkpt lat="31.0541380383" lon="35.0902307779"><ele>560.59</ele><time>2012-03-23T09:40:13Z</time></trkpt><trkpt lat="31.0540026706" lon="35.0898798276"><ele>563.47</ele><time>2012-03-23T09:40:28Z</time></trkpt><trkpt lat="31.0538343620" lon="35.0896437094"><ele>565.87</ele><time>2012-03-23T09:40:41Z</time></trkpt><trkpt lat="31.0536584258" lon="35.0893322378"><ele>567.80</ele><time>2012-03-23T09:40:57Z</time></trkpt><trkpt lat="31.0535450187" lon="35.0889811199"><ele>567.32</ele><time>2012-03-23T09:41:09Z</time></trkpt><trkpt lat="31.0535426717" lon="35.0886982307"><ele>565.87</ele><time>2012-03-23T09:41:17Z</time></trkpt><trkpt lat="31.0536822304" lon="35.0883301813"><ele>562.99</ele><time>2012-03-23T09:41:25Z</time></trkpt><trkpt lat="31.0537150037" lon="35.0882988330"><ele>562.99</ele><time>2012-03-23T09:41:26Z</time></trkpt><trkpt lat="31.0537510458" lon="35.0882710889"><ele>562.51</ele><time>2012-03-23T09:41:27Z</time></trkpt><trkpt lat="31.0537808016" lon="35.0882434286"><ele>562.03</ele><time>2012-03-23T09:41:28Z</time></trkpt><trkpt lat="31.0538024269" lon="35.0882106554"><ele>562.03</ele><time>2012-03-23T09:41:29Z</time></trkpt><trkpt lat="31.0538146645" lon="35.0881752837"><ele>562.03</ele><time>2012-03-23T09:41:30Z</time></trkpt><trkpt lat="31.0538225435" lon="35.0881412532"><ele>561.55</ele><time>2012-03-23T09:41:31Z</time></trkpt><trkpt lat="31.0538255610" lon="35.0881107431"><ele>561.55</ele><time>2012-03-23T09:41:32Z</time></trkpt><trkpt lat="31.0538243875" lon="35.0880804006"><ele>561.55</ele><time>2012-03-23T09:41:33Z</time></trkpt><trkpt lat="31.0538192745" lon="35.0880477112"><ele>561.55</ele><time>2012-03-23T09:41:34Z</time></trkpt><trkpt lat="31.0537751019" lon="35.0876782369"><ele>561.55</ele><time>2012-03-23T09:41:45Z</time></trkpt><trkpt lat="31.0537766945" lon="35.0873490795"><ele>562.03</ele><time>2012-03-23T09:42:00Z</time></trkpt><trkpt lat="31.0537760239" lon="35.0870524440"><ele>563.95</ele><time>2012-03-23T09:42:15Z</time></trkpt><trkpt lat="31.0537692346" lon="35.0867309142"><ele>566.83</ele><time>2012-03-23T09:42:31Z</time></trkpt><trkpt lat="31.0537697375" lon="35.0864954665"><ele>567.32</ele><time>2012-03-23T09:42:42Z</time></trkpt><trkpt lat="31.0537714977" lon="35.0864750147"><ele>567.32</ele><time>2012-03-23T09:42:43Z</time></trkpt><trkpt lat="31.0537854955" lon="35.0861859228"><ele>568.28</ele><time>2012-03-23T09:42:58Z</time></trkpt><trkpt lat="31.0537799634" lon="35.0858229026"><ele>567.80</ele><time>2012-03-23T09:43:11Z</time></trkpt><trkpt lat="31.0536465235" lon="35.0854307134"><ele>564.43</ele><time>2012-03-23T09:43:20Z</time></trkpt><trkpt lat="31.0536322743" lon="35.0853209943"><ele>562.99</ele><time>2012-03-23T09:43:22Z</time></trkpt><trkpt lat="31.0536324419" lon="35.0852635782"><ele>562.51</ele><time>2012-03-23T09:43:23Z</time></trkpt><trkpt lat="31.0536230542" lon="35.0850032363"><ele>559.62</ele><time>2012-03-23T09:43:28Z</time></trkpt><trkpt lat="31.0536212940" lon="35.0847967062"><ele>556.74</ele><time>2012-03-23T09:43:32Z</time></trkpt><trkpt lat="31.0536243115" lon="35.0847376138"><ele>556.26</ele><time>2012-03-23T09:43:33Z</time></trkpt><trkpt lat="31.0536198691" lon="35.0843505375"><ele>551.93</ele><time>2012-03-23T09:43:38Z</time></trkpt><trkpt lat="31.0536080506" lon="35.0842603482"><ele>551.45</ele><time>2012-03-23T09:43:39Z</time></trkpt><trkpt lat="31.0535986628" lon="35.0840772875"><ele>550.49</ele><time>2012-03-23T09:43:41Z</time></trkpt><trkpt lat="31.0536053684" lon="35.0839910377"><ele>550.01</ele><time>2012-03-23T09:43:42Z</time></trkpt><trkpt lat="31.0536234733" lon="35.0838412531"><ele>549.53</ele><time>2012-03-23T09:43:44Z</time></trkpt><trkpt lat="31.0536230542" lon="35.0837722700"><ele>549.05</ele><time>2012-03-23T09:43:45Z</time></trkpt><trkpt lat="31.0536247306" lon="35.0837109983"><ele>549.05</ele><time>2012-03-23T09:43:46Z</time></trkpt><trkpt lat="31.0536359623" lon="35.0836623833"><ele>549.05</ele><time>2012-03-23T09:43:47Z</time></trkpt><trkpt lat="31.0536606051" lon="35.0836306158"><ele>549.05</ele><time>2012-03-23T09:43:48Z</time></trkpt><trkpt lat="31.0536918696" lon="35.0836164504"><ele>549.05</ele><time>2012-03-23T09:43:49Z</time></trkpt><trkpt lat="31.0537228826" lon="35.0836105831"><ele>549.53</ele><time>2012-03-23T09:43:50Z</time></trkpt><trkpt lat="31.0537510458" lon="35.0836071465"><ele>549.53</ele><time>2012-03-23T09:43:51Z</time></trkpt><trkpt lat="31.0540189315" lon="35.0835374929"><ele>550.49</ele><time>2012-03-23T09:44:03Z</time></trkpt><trkpt lat="31.0543910880" lon="35.0832075812"><ele>552.90</ele><time>2012-03-23T09:44:22Z</time></trkpt><trkpt lat="31.0546411201" lon="35.0829716306"><ele>554.34</ele><time>2012-03-23T09:44:36Z</time></trkpt><trkpt lat="31.0549027193" lon="35.0826874841"><ele>556.74</ele><time>2012-03-23T09:44:52Z</time></trkpt><trkpt lat="31.0551175475" lon="35.0823771860"><ele>555.30</ele><time>2012-03-23T09:45:06Z</time></trkpt><trkpt lat="31.0553104989" lon="35.0820616074"><ele>553.86</ele><time>2012-03-23T09:45:16Z</time></trkpt><trkpt lat="31.0553441104" lon="35.0820285827"><ele>553.38</ele><time>2012-03-23T09:45:17Z</time></trkpt><trkpt lat="31.0557762813" lon="35.0815065578"><ele>550.97</ele><time>2012-03-23T09:45:33Z</time></trkpt><trkpt lat="31.0561580770" lon="35.0810093433"><ele>549.05</ele><time>2012-03-23T09:45:49Z</time></trkpt><trkpt lat="31.0564192571" lon="35.0805904157"><ele>546.65</ele><time>2012-03-23T09:46:01Z</time></trkpt><trkpt lat="31.0564237833" lon="35.0801830553"><ele>546.17</ele><time>2012-03-23T09:46:13Z</time></trkpt><trkpt lat="31.0563088674" lon="35.0796354655"><ele>544.72</ele><time>2012-03-23T09:46:28Z</time></trkpt><trkpt lat="31.0562704783" lon="35.0791527517"><ele>543.28</ele><time>2012-03-23T09:46:40Z</time></trkpt><trkpt lat="31.0562046804" lon="35.0787901506"><ele>543.28</ele><time>2012-03-23T09:46:52Z</time></trkpt><trkpt lat="31.0560905188" lon="35.0785464048"><ele>544.72</ele><time>2012-03-23T09:47:05Z</time></trkpt><trkpt lat="31.0558839049" lon="35.0782381184"><ele>545.69</ele><time>2012-03-23T09:47:22Z</time></trkpt><trkpt lat="31.0556300171" lon="35.0779807940"><ele>546.65</ele><time>2012-03-23T09:47:40Z</time></trkpt><trkpt lat="31.0555786360" lon="35.0778911076"><ele>547.13</ele><time>2012-03-23T09:47:45Z</time></trkpt><trkpt lat="31.0555729363" lon="35.0778518803"><ele>547.13</ele><time>2012-03-23T09:47:58Z</time></trkpt><trkpt lat="31.0555644706" lon="35.0778584182"><ele>546.65</ele><time>2012-03-23T09:48:21Z</time></trkpt><trkpt lat="31.0555648059" lon="35.0778542273"><ele>546.17</ele><time>2012-03-23T09:48:47Z</time></trkpt><trkpt lat="31.0555653926" lon="35.0778528862"><ele>545.69</ele><time>2012-03-23T09:49:09Z</time></trkpt><trkpt lat="31.0555585194" lon="35.0778470188"><ele>545.20</ele><time>2012-03-23T09:49:37Z</time></trkpt><trkpt lat="31.0555535741" lon="35.0778483599"><ele>545.69</ele><time>2012-03-23T09:50:12Z</time></trkpt><trkpt lat="31.0555579327" lon="35.0778567418"><ele>545.69</ele><time>2012-03-23T09:50:41Z</time></trkpt><trkpt lat="31.0555232316" lon="35.0776409078"><ele>547.13</ele><time>2012-03-23T09:50:54Z</time></trkpt><trkpt lat="31.0554925539" lon="35.0772866048"><ele>549.53</ele><time>2012-03-23T09:51:12Z</time></trkpt><trkpt lat="31.0555240698" lon="35.0770421885"><ele>551.45</ele><time>2012-03-23T09:51:27Z</time></trkpt><trkpt lat="31.0555842519" lon="35.0767723750"><ele>553.86</ele><time>2012-03-23T09:51:43Z</time></trkpt><trkpt lat="31.0556657240" lon="35.0764858816"><ele>556.26</ele><time>2012-03-23T09:52:00Z</time></trkpt><trkpt lat="31.0557128303" lon="35.0761867315"><ele>558.18</ele><time>2012-03-23T09:52:17Z</time></trkpt><trkpt lat="31.0557404906" lon="35.0760263018"><ele>560.11</ele><time>2012-03-23T09:52:28Z</time></trkpt><trkpt lat="31.0557467770" lon="35.0760125555"><ele>560.11</ele><time>2012-03-23T09:52:29Z</time></trkpt><trkpt lat="31.0557497106" lon="35.0759993121"><ele>560.11</ele><time>2012-03-23T09:52:30Z</time></trkpt><trkpt lat="31.0557506327" lon="35.0759858172"><ele>560.11</ele><time>2012-03-23T09:52:31Z</time></trkpt><trkpt lat="31.0557514708" lon="35.0759703945"><ele>560.11</ele><time>2012-03-23T09:52:32Z</time></trkpt><trkpt lat="31.0557537340" lon="35.0759548042"><ele>560.11</ele><time>2012-03-23T09:52:33Z</time></trkpt><trkpt lat="31.0557545722" lon="35.0759399682"><ele>560.59</ele><time>2012-03-23T09:52:34Z</time></trkpt><trkpt lat="31.0557270795" lon="35.0757747609"><ele>561.07</ele><time>2012-03-23T09:52:46Z</time></trkpt><trkpt lat="31.0557160154" lon="35.0757638644"><ele>561.07</ele><time>2012-03-23T09:52:47Z</time></trkpt><trkpt lat="31.0555290990" lon="35.0756451767"><ele>562.51</ele><time>2012-03-23T09:53:00Z</time></trkpt><trkpt lat="31.0553094931" lon="35.0754694082"><ele>562.03</ele><time>2012-03-23T09:53:15Z</time></trkpt><trkpt lat="31.0551892128" lon="35.0752068032"><ele>562.51</ele><time>2012-03-23T09:53:27Z</time></trkpt><trkpt lat="31.0552536696" lon="35.0749898795"><ele>563.47</ele><time>2012-03-23T09:53:39Z</time></trkpt><trkpt lat="31.0553810745" lon="35.0747023802"><ele>564.43</ele><time>2012-03-23T09:53:55Z</time></trkpt><trkpt lat="31.0555277579" lon="35.0743976142"><ele>564.91</ele><time>2012-03-23T09:54:12Z</time></trkpt><trkpt lat="31.0556238983" lon="35.0741463248"><ele>564.91</ele><time>2012-03-23T09:54:26Z</time></trkpt><trkpt lat="31.0557981580" lon="35.0738310814"><ele>565.39</ele><time>2012-03-23T09:54:43Z</time></trkpt><trkpt lat="31.0559434164" lon="35.0734917819"><ele>562.99</ele><time>2012-03-23T09:54:55Z</time></trkpt><trkpt lat="31.0561023373" lon="35.0731333718"><ele>559.62</ele><time>2012-03-23T09:55:03Z</time></trkpt><trkpt lat="31.0565344244" lon="35.0724038947"><ele>553.38</ele><time>2012-03-23T09:55:15Z</time></trkpt><trkpt lat="31.0566842929" lon="35.0721820258"><ele>550.49</ele><time>2012-03-23T09:55:19Z</time></trkpt><trkpt lat="31.0567931738" lon="35.0720308162"><ele>549.05</ele><time>2012-03-23T09:55:22Z</time></trkpt><trkpt lat="31.0568163078" lon="35.0719696283"><ele>548.09</ele><time>2012-03-23T09:55:23Z</time></trkpt><trkpt lat="31.0568689462" lon="35.0717682112"><ele>546.17</ele><time>2012-03-23T09:55:26Z</time></trkpt><trkpt lat="31.0568691976" lon="35.0716956239"><ele>545.20</ele><time>2012-03-23T09:55:27Z</time></trkpt><trkpt lat="31.0568566248" lon="35.0716265570"><ele>544.72</ele><time>2012-03-23T09:55:28Z</time></trkpt><trkpt lat="31.0568364244" lon="35.0715629384"><ele>544.72</ele><time>2012-03-23T09:55:29Z</time></trkpt><trkpt lat="31.0568166431" lon="35.0715095457"><ele>544.72</ele><time>2012-03-23T09:55:30Z</time></trkpt><trkpt lat="31.0568075068" lon="35.0713925343"><ele>544.24</ele><time>2012-03-23T09:55:35Z</time></trkpt><trkpt lat="31.0568195768" lon="35.0713904388"><ele>544.72</ele><time>2012-03-23T09:55:36Z</time></trkpt><trkpt lat="31.0568349995" lon="35.0713906065"><ele>544.72</ele><time>2012-03-23T09:55:37Z</time></trkpt><trkpt lat="31.0571469739" lon="35.0713843200"><ele>546.17</ele><time>2012-03-23T09:55:52Z</time></trkpt><trkpt lat="31.0573287774" lon="35.0714787003"><ele>546.17</ele><time>2012-03-23T09:56:05Z</time></trkpt><trkpt lat="31.0573260952" lon="35.0714845676"><ele>544.72</ele><time>2012-03-23T09:56:31Z</time></trkpt><trkpt lat="31.0573282745" lon="35.0714807957"><ele>545.20</ele><time>2012-03-23T09:57:02Z</time></trkpt><trkpt lat="31.0573340580" lon="35.0714895967"><ele>545.20</ele><time>2012-03-23T09:57:30Z</time></trkpt><trkpt lat="31.0573366564" lon="35.0714921113"><ele>544.72</ele><time>2012-03-23T09:57:54Z</time></trkpt><trkpt lat="31.0573536716" lon="35.0714963861"><ele>545.20</ele><time>2012-03-23T09:58:15Z</time></trkpt><trkpt lat="31.0573706869" lon="35.0715062767"><ele>545.20</ele><time>2012-03-23T09:58:16Z</time></trkpt><trkpt lat="31.0573912226" lon="35.0715171732"><ele>545.20</ele><time>2012-03-23T09:58:17Z</time></trkpt><trkpt lat="31.0574126802" lon="35.0715273153"><ele>545.20</ele><time>2012-03-23T09:58:18Z</time></trkpt><trkpt lat="31.0574338865" lon="35.0715366192"><ele>545.20</ele><time>2012-03-23T09:58:19Z</time></trkpt><trkpt lat="31.0578566696" lon="35.0716333464"><ele>544.24</ele><time>2012-03-23T09:58:34Z</time></trkpt><trkpt lat="31.0581963044" lon="35.0716823805"><ele>543.76</ele><time>2012-03-23T09:58:47Z</time></trkpt><trkpt lat="31.0585269704" lon="35.0718027446"><ele>543.28</ele><time>2012-03-23T09:59:00Z</time></trkpt><trkpt lat="31.0589059163" lon="35.0718416367"><ele>543.28</ele><time>2012-03-23T09:59:13Z</time></trkpt><trkpt lat="31.0590609815" lon="35.0717464183"><ele>543.28</ele><time>2012-03-23T09:59:21Z</time></trkpt><trkpt lat="31.0590774938" lon="35.0717382040"><ele>543.76</ele><time>2012-03-23T09:59:22Z</time></trkpt><trkpt lat="31.0590981133" lon="35.0717361085"><ele>543.76</ele><time>2012-03-23T09:59:23Z</time></trkpt><trkpt lat="31.0591242649" lon="35.0717391260"><ele>543.28</ele><time>2012-03-23T09:59:24Z</time></trkpt><trkpt lat="31.0591533501" lon="35.0717465859"><ele>543.28</ele><time>2012-03-23T09:59:25Z</time></trkpt><trkpt lat="31.0591812618" lon="35.0717589073"><ele>543.28</ele><time>2012-03-23T09:59:26Z</time></trkpt><trkpt lat="31.0592075810" lon="35.0717728212"><ele>543.28</ele><time>2012-03-23T09:59:27Z</time></trkpt><trkpt lat="31.0594266001" lon="35.0718490127"><ele>541.84</ele><time>2012-03-23T09:59:34Z</time></trkpt><trkpt lat="31.0594703536" lon="35.0718506053"><ele>541.36</ele><time>2012-03-23T09:59:35Z</time></trkpt><trkpt lat="31.0595168732" lon="35.0718470011"><ele>540.88</ele><time>2012-03-23T09:59:36Z</time></trkpt><trkpt lat="31.0595651530" lon="35.0718395412"><ele>540.88</ele><time>2012-03-23T09:59:37Z</time></trkpt><trkpt lat="31.0596124269" lon="35.0718304887"><ele>540.40</ele><time>2012-03-23T09:59:38Z</time></trkpt><trkpt lat="31.0598121677" lon="35.0717597455"><ele>539.44</ele><time>2012-03-23T09:59:43Z</time></trkpt><trkpt lat="31.0598485451" lon="35.0717338454"><ele>539.44</ele><time>2012-03-23T09:59:44Z</time></trkpt><trkpt lat="31.0598805640" lon="35.0717114657"><ele>539.44</ele><time>2012-03-23T09:59:45Z</time></trkpt><trkpt lat="31.0599156842" lon="35.0716995634"><ele>539.44</ele><time>2012-03-23T09:59:46Z</time></trkpt><trkpt lat="31.0599515587" lon="35.0716940314"><ele>539.44</ele><time>2012-03-23T09:59:47Z</time></trkpt><trkpt lat="31.0603909381" lon="35.0715149101"><ele>538.96</ele><time>2012-03-23T10:00:02Z</time></trkpt><trkpt lat="31.0606247932" lon="35.0713884272"><ele>537.99</ele><time>2012-03-23T10:00:14Z</time></trkpt><trkpt lat="31.0608349275" lon="35.0712585915"><ele>537.03</ele><time>2012-03-23T10:00:25Z</time></trkpt><trkpt lat="31.0608661920" lon="35.0711940508"><ele>536.55</ele><time>2012-03-23T10:00:27Z</time></trkpt><trkpt lat="31.0608865600" lon="35.0711742695"><ele>536.55</ele><time>2012-03-23T10:00:28Z</time></trkpt><trkpt lat="31.0609091073" lon="35.0711635407"><ele>536.55</ele><time>2012-03-23T10:00:29Z</time></trkpt><trkpt lat="31.0609342530" lon="35.0711554941"><ele>536.55</ele><time>2012-03-23T10:00:30Z</time></trkpt><trkpt lat="31.0609600693" lon="35.0711472798"><ele>536.55</ele><time>2012-03-23T10:00:31Z</time></trkpt><trkpt lat="31.0609868076" lon="35.0711406581"><ele>536.07</ele><time>2012-03-23T10:00:32Z</time></trkpt><trkpt lat="31.0611939244" lon="35.0710266642"><ele>534.15</ele><time>2012-03-23T10:00:39Z</time></trkpt><trkpt lat="31.0612313915" lon="35.0709949806"><ele>534.63</ele><time>2012-03-23T10:00:40Z</time></trkpt><trkpt lat="31.0613425355" lon="35.0708725210"><ele>534.63</ele><time>2012-03-23T10:00:44Z</time></trkpt><trkpt lat="31.0615265183" lon="35.0708230678"><ele>532.71</ele><time>2012-03-23T10:00:53Z</time></trkpt><trkpt lat="31.0615924839" lon="35.0708601996"><ele>531.75</ele><time>2012-03-23T10:00:55Z</time></trkpt><trkpt lat="31.0616317950" lon="35.0708762929"><ele>531.27</ele><time>2012-03-23T10:00:56Z</time></trkpt><trkpt lat="31.0616669990" lon="35.0708919670"><ele>531.27</ele><time>2012-03-23T10:00:57Z</time></trkpt><trkpt lat="31.0619467031" lon="35.0709679909"><ele>532.23</ele><time>2012-03-23T10:01:08Z</time></trkpt><trkpt lat="31.0622590967" lon="35.0711094774"><ele>530.79</ele><time>2012-03-23T10:01:19Z</time></trkpt><trkpt lat="31.0623146687" lon="35.0711388979"><ele>530.79</ele><time>2012-03-23T10:01:23Z</time></trkpt><trkpt lat="31.0623304266" lon="35.0711390655"><ele>530.79</ele><time>2012-03-23T10:01:24Z</time></trkpt><trkpt lat="31.0623586737" lon="35.0711551588"><ele>530.79</ele><time>2012-03-23T10:01:27Z</time></trkpt><trkpt lat="31.0623675585" lon="35.0711627025"><ele>530.79</ele><time>2012-03-23T10:01:28Z</time></trkpt><trkpt lat="31.0623797122" lon="35.0711686537"><ele>530.79</ele><time>2012-03-23T10:01:29Z</time></trkpt><trkpt lat="31.0623906087" lon="35.0711723417"><ele>530.30</ele><time>2012-03-23T10:01:30Z</time></trkpt><trkpt lat="31.0624063667" lon="35.0711761136"><ele>530.30</ele><time>2012-03-23T10:01:41Z</time></trkpt><trkpt lat="31.0624409001" lon="35.0711829867"><ele>529.82</ele><time>2012-03-23T10:01:48Z</time></trkpt><trkpt lat="31.0624630284" lon="35.0711839087"><ele>529.82</ele><time>2012-03-23T10:01:49Z</time></trkpt><trkpt lat="31.0625436623" lon="35.0711671449"><ele>529.34</ele><time>2012-03-23T10:01:56Z</time></trkpt><trkpt lat="31.0625625215" lon="35.0711550750"><ele>529.34</ele><time>2012-03-23T10:01:57Z</time></trkpt><trkpt lat="31.0625777766" lon="35.0711390655"><ele>529.34</ele><time>2012-03-23T10:01:58Z</time></trkpt><trkpt lat="31.0625921097" lon="35.0711260736"><ele>529.34</ele><time>2012-03-23T10:01:59Z</time></trkpt><trkpt lat="31.0626056883" lon="35.0711186137"><ele>528.86</ele><time>2012-03-23T10:02:00Z</time></trkpt><trkpt lat="31.0626244638" lon="35.0711211283"><ele>528.86</ele><time>2012-03-23T10:02:01Z</time></trkpt><trkpt lat="31.0626430716" lon="35.0711357966"><ele>528.38</ele><time>2012-03-23T10:02:02Z</time></trkpt><trkpt lat="31.0626597516" lon="35.0711568352"><ele>528.38</ele><time>2012-03-23T10:02:03Z</time></trkpt><trkpt lat="31.0629237816" lon="35.0711989962"><ele>528.38</ele><time>2012-03-23T10:02:14Z</time></trkpt><trkpt lat="31.0632354207" lon="35.0713371299"><ele>527.90</ele><time>2012-03-23T10:02:28Z</time></trkpt><trkpt lat="31.0634155478" lon="35.0717050117"><ele>525.98</ele><time>2012-03-23T10:02:39Z</time></trkpt><trkpt lat="31.0634204932" lon="35.0717309956"><ele>525.98</ele><time>2012-03-23T10:02:40Z</time></trkpt><trkpt lat="31.0634225048" lon="35.0717537105"><ele>525.98</ele><time>2012-03-23T10:02:41Z</time></trkpt><trkpt lat="31.0634262767" lon="35.0717722345"><ele>525.98</ele><time>2012-03-23T10:02:42Z</time></trkpt><trkpt lat="31.0634275340" lon="35.0717931055"><ele>525.02</ele><time>2012-03-23T10:02:53Z</time></trkpt><trkpt lat="31.0634340718" lon="35.0718889106"><ele>524.54</ele><time>2012-03-23T10:03:17Z</time></trkpt><trkpt lat="31.0635879636" lon="35.0721219275"><ele>524.54</ele><time>2012-03-23T10:03:31Z</time></trkpt><trkpt lat="31.0636026319" lon="35.0721313152"><ele>524.54</ele><time>2012-03-23T10:03:32Z</time></trkpt><trkpt lat="31.0636162106" lon="35.0721474923"><ele>524.54</ele><time>2012-03-23T10:03:33Z</time></trkpt><trkpt lat="31.0636286158" lon="35.0721641723"><ele>524.54</ele><time>2012-03-23T10:03:34Z</time></trkpt><trkpt lat="31.0638558492" lon="35.0723019708"><ele>525.02</ele><time>2012-03-23T10:03:48Z</time></trkpt><trkpt lat="31.0640417598" lon="35.0723149627"><ele>525.98</ele><time>2012-03-23T10:03:59Z</time></trkpt><trkpt lat="31.0640519857" lon="35.0723162200"><ele>525.98</ele><time>2012-03-23T10:04:00Z</time></trkpt><trkpt lat="31.0640624631" lon="35.0723190699"><ele>525.98</ele><time>2012-03-23T10:04:01Z</time></trkpt><trkpt lat="31.0640748683" lon="35.0723203272"><ele>525.98</ele><time>2012-03-23T10:04:02Z</time></trkpt><trkpt lat="31.0641141795" lon="35.0723361690"><ele>525.50</ele><time>2012-03-23T10:04:07Z</time></trkpt><trkpt lat="31.0641265009" lon="35.0723422039"><ele>525.50</ele><time>2012-03-23T10:04:08Z</time></trkpt><trkpt lat="31.0643114056" lon="35.0724699441"><ele>524.54</ele><time>2012-03-23T10:04:18Z</time></trkpt><trkpt lat="31.0643254872" lon="35.0724919047"><ele>524.06</ele><time>2012-03-23T10:04:19Z</time></trkpt><trkpt lat="31.0643419996" lon="35.0725083333"><ele>524.06</ele><time>2012-03-23T10:04:20Z</time></trkpt><trkpt lat="31.0643609427" lon="35.0725216605"><ele>524.06</ele><time>2012-03-23T10:04:21Z</time></trkpt><trkpt lat="31.0643865075" lon="35.0725312997"><ele>524.06</ele><time>2012-03-23T10:04:22Z</time></trkpt><trkpt lat="31.0644144192" lon="35.0725388434"><ele>524.06</ele><time>2012-03-23T10:04:23Z</time></trkpt><trkpt lat="31.0644423310" lon="35.0725497399"><ele>524.06</ele><time>2012-03-23T10:04:24Z</time></trkpt><trkpt lat="31.0646983143" lon="35.0726343133"><ele>524.06</ele><time>2012-03-23T10:04:35Z</time></trkpt><trkpt lat="31.0650479235" lon="35.0727659091"><ele>523.09</ele><time>2012-03-23T10:04:48Z</time></trkpt><trkpt lat="31.0653089359" lon="35.0729457010"><ele>522.61</ele><time>2012-03-23T10:05:01Z</time></trkpt><trkpt lat="31.0655900650" lon="35.0731160212"><ele>522.61</ele><time>2012-03-23T10:05:14Z</time></trkpt><trkpt lat="31.0658160411" lon="35.0734895188"><ele>521.65</ele><time>2012-03-23T10:05:28Z</time></trkpt><trkpt lat="31.0659776442" lon="35.0736383814"><ele>519.25</ele><time>2012-03-23T10:05:33Z</time></trkpt><trkpt lat="31.0660171229" lon="35.0736560673"><ele>518.77</ele><time>2012-03-23T10:05:34Z</time></trkpt><trkpt lat="31.0660541710" lon="35.0736755971"><ele>518.29</ele><time>2012-03-23T10:05:35Z</time></trkpt><trkpt lat="31.0660846811" lon="35.0736948755"><ele>518.29</ele><time>2012-03-23T10:05:36Z</time></trkpt><trkpt lat="31.0661118384" lon="35.0737064425"><ele>518.29</ele><time>2012-03-23T10:05:37Z</time></trkpt><trkpt lat="31.0661358107" lon="35.0737140700"><ele>518.29</ele><time>2012-03-23T10:05:38Z</time></trkpt><trkpt lat="31.0661567654" lon="35.0737227034"><ele>517.81</ele><time>2012-03-23T10:05:39Z</time></trkpt><trkpt lat="31.0661792289" lon="35.0737283193"><ele>517.81</ele><time>2012-03-23T10:05:40Z</time></trkpt><trkpt lat="31.0662037041" lon="35.0737314206"><ele>517.81</ele><time>2012-03-23T10:05:41Z</time></trkpt><trkpt lat="31.0662290175" lon="35.0737330131"><ele>517.33</ele><time>2012-03-23T10:05:42Z</time></trkpt><trkpt lat="31.0662521515" lon="35.0737293251"><ele>517.33</ele><time>2012-03-23T10:05:43Z</time></trkpt><trkpt lat="31.0662744474" lon="35.0737228710"><ele>517.33</ele><time>2012-03-23T10:05:44Z</time></trkpt><trkpt lat="31.0662954859" lon="35.0737193506"><ele>516.85</ele><time>2012-03-23T10:05:45Z</time></trkpt><trkpt lat="31.0663158540" lon="35.0737156626"><ele>516.85</ele><time>2012-03-23T10:05:46Z</time></trkpt><trkpt lat="31.0664741881" lon="35.0736685563"><ele>516.37</ele><time>2012-03-23T10:05:55Z</time></trkpt><trkpt lat="31.0664973222" lon="35.0736603420"><ele>516.85</ele><time>2012-03-23T10:05:56Z</time></trkpt><trkpt lat="31.0665223841" lon="35.0736589171"><ele>516.37</ele><time>2012-03-23T10:05:57Z</time></trkpt><trkpt lat="31.0665476974" lon="35.0736575760"><ele>516.37</ele><time>2012-03-23T10:05:58Z</time></trkpt><trkpt lat="31.0665722564" lon="35.0736533850"><ele>516.85</ele><time>2012-03-23T10:05:59Z</time></trkpt><trkpt lat="31.0669525433" lon="35.0736864936"><ele>515.40</ele><time>2012-03-23T10:06:14Z</time></trkpt><trkpt lat="31.0670304950" lon="35.0737168361"><ele>515.88</ele><time>2012-03-23T10:06:18Z</time></trkpt><trkpt lat="31.0670531262" lon="35.0737201888"><ele>516.37</ele><time>2012-03-23T10:06:19Z</time></trkpt><trkpt lat="31.0674376879" lon="35.0736817997"><ele>515.88</ele><time>2012-03-23T10:06:34Z</time></trkpt><trkpt lat="31.0676287953" lon="35.0737079512"><ele>513.48</ele><time>2012-03-23T10:06:40Z</time></trkpt><trkpt lat="31.0676693637" lon="35.0737091247"><ele>513.00</ele><time>2012-03-23T10:06:41Z</time></trkpt><trkpt lat="31.0677086748" lon="35.0737026706"><ele>513.00</ele><time>2012-03-23T10:06:42Z</time></trkpt><trkpt lat="31.0677432083" lon="35.0736880861"><ele>513.00</ele><time>2012-03-23T10:06:43Z</time></trkpt><trkpt lat="31.0677723773" lon="35.0736767706"><ele>512.52</ele><time>2012-03-23T10:06:44Z</time></trkpt><trkpt lat="31.0677960981" lon="35.0736692268"><ele>512.52</ele><time>2012-03-23T10:06:45Z</time></trkpt><trkpt lat="31.0678168014" lon="35.0736652035"><ele>512.52</ele><time>2012-03-23T10:06:46Z</time></trkpt><trkpt lat="31.0678359959" lon="35.0736550614"><ele>512.52</ele><time>2012-03-23T10:06:47Z</time></trkpt><trkpt lat="31.0678570345" lon="35.0736364536"><ele>512.52</ele><time>2012-03-23T10:06:48Z</time></trkpt><trkpt lat="31.0678768996" lon="35.0736146607"><ele>512.52</ele><time>2012-03-23T10:06:49Z</time></trkpt><trkpt lat="31.0678970162" lon="35.0735960528"><ele>512.52</ele><time>2012-03-23T10:06:50Z</time></trkpt><trkpt lat="31.0679162946" lon="35.0735816360"><ele>512.52</ele><time>2012-03-23T10:06:51Z</time></trkpt><trkpt lat="31.0681744572" lon="35.0734388083"><ele>512.52</ele><time>2012-03-23T10:07:03Z</time></trkpt><trkpt lat="31.0683438554" lon="35.0733772852"><ele>513.48</ele><time>2012-03-23T10:07:12Z</time></trkpt><trkpt lat="31.0683643911" lon="35.0733766146"><ele>513.48</ele><time>2012-03-23T10:07:13Z</time></trkpt><trkpt lat="31.0683819093" lon="35.0733723398"><ele>513.48</ele><time>2012-03-23T10:07:14Z</time></trkpt><trkpt lat="31.0685871821" lon="35.0733060390"><ele>513.48</ele><time>2012-03-23T10:07:24Z</time></trkpt><trkpt lat="31.0688502900" lon="35.0732807256"><ele>512.52</ele><time>2012-03-23T10:07:36Z</time></trkpt><trkpt lat="31.0690762661" lon="35.0732554961"><ele>512.52</ele><time>2012-03-23T10:07:47Z</time></trkpt><trkpt lat="31.0692684632" lon="35.0732745230"><ele>513.00</ele><time>2012-03-23T10:07:57Z</time></trkpt><trkpt lat="31.0693560541" lon="35.0732970703"><ele>513.48</ele><time>2012-03-23T10:08:09Z</time></trkpt><trkpt lat="31.0693656933" lon="35.0732987467"><ele>513.00</ele><time>2012-03-23T10:08:10Z</time></trkpt><trkpt lat="31.0693725664" lon="35.0732942205"><ele>512.52</ele><time>2012-03-23T10:08:22Z</time></trkpt><trkpt lat="31.0695187468" lon="35.0733068772"><ele>511.56</ele><time>2012-03-23T10:08:34Z</time></trkpt><trkpt lat="31.0695876461" lon="35.0733124930"><ele>510.12</ele><time>2012-03-23T10:08:49Z</time></trkpt><trkpt lat="31.0696715489" lon="35.0732973218"><ele>508.67</ele><time>2012-03-23T10:09:01Z</time></trkpt><trkpt lat="31.0696795955" lon="35.0732881017"><ele>508.19</ele><time>2012-03-23T10:09:02Z</time></trkpt><trkpt lat="31.0696839541" lon="35.0732774567"><ele>508.19</ele><time>2012-03-23T10:09:03Z</time></trkpt><trkpt lat="31.0697058309" lon="35.0732641295"><ele>508.19</ele><time>2012-03-23T10:09:06Z</time></trkpt><trkpt lat="31.0697158892" lon="35.0732587650"><ele>508.19</ele><time>2012-03-23T10:09:07Z</time></trkpt><trkpt lat="31.0697480757" lon="35.0732456055"><ele>509.64</ele><time>2012-03-23T10:09:21Z</time></trkpt><trkpt lat="31.0697715450" lon="35.0732406601"><ele>512.04</ele><time>2012-03-23T10:09:53Z</time></trkpt><trkpt lat="31.0697708745" lon="35.0732439291"><ele>513.00</ele><time>2012-03-23T10:10:27Z</time></trkpt><trkpt lat="31.0697836149" lon="35.0732516404"><ele>515.88</ele><time>2012-03-23T10:11:15Z</time></trkpt><trkpt lat="31.0697834473" lon="35.0732441805"><ele>517.81</ele><time>2012-03-23T10:12:04Z</time></trkpt><trkpt lat="31.0697853751" lon="35.0732492935"><ele>517.81</ele><time>2012-03-23T10:12:34Z</time></trkpt><trkpt lat="31.0697838664" lon="35.0732546579"><ele>515.88</ele><time>2012-03-23T10:13:10Z</time></trkpt><trkpt lat="31.0697836988" lon="35.0732556637"><ele>514.92</ele><time>2012-03-23T10:14:02Z</time></trkpt><trkpt lat="31.0697779991" lon="35.0732572563"><ele>513.96</ele><time>2012-03-23T10:14:41Z</time></trkpt><trkpt lat="31.0697779153" lon="35.0732583459"><ele>513.48</ele><time>2012-03-23T10:15:13Z</time></trkpt><trkpt lat="31.0697700363" lon="35.0732616149"><ele>512.52</ele><time>2012-03-23T10:15:44Z</time></trkpt><trkpt lat="31.0697619058" lon="35.0732528139"><ele>511.56</ele><time>2012-03-23T10:16:14Z</time></trkpt><trkpt lat="31.0697768256" lon="35.0732602738"><ele>511.08</ele><time>2012-03-23T10:16:43Z</time></trkpt><trkpt lat="31.0697700363" lon="35.0732601061"><ele>508.67</ele><time>2012-03-23T10:17:29Z</time></trkpt><trkpt lat="31.0697647557" lon="35.0732643809"><ele>507.71</ele><time>2012-03-23T10:18:20Z</time></trkpt><trkpt lat="31.0697601456" lon="35.0732566696"><ele>506.75</ele><time>2012-03-23T10:19:11Z</time></trkpt><trkpt lat="31.0697532725" lon="35.0732642971"><ele>507.71</ele><time>2012-03-23T10:20:01Z</time></trkpt><trkpt lat="31.0697563738" lon="35.0732562505"><ele>508.67</ele><time>2012-03-23T10:20:32Z</time></trkpt><trkpt lat="31.0697573796" lon="35.0732608605"><ele>508.67</ele><time>2012-03-23T10:21:16Z</time></trkpt><trkpt lat="31.0697650071" lon="35.0732648838"><ele>507.23</ele><time>2012-03-23T10:21:52Z</time></trkpt><trkpt lat="31.0697621573" lon="35.0732655544"><ele>506.75</ele><time>2012-03-23T10:22:40Z</time></trkpt><trkpt lat="31.0697610676" lon="35.0732640456"><ele>506.75</ele><time>2012-03-23T10:23:22Z</time></trkpt><trkpt lat="31.0697562061" lon="35.0732644647"><ele>507.23</ele><time>2012-03-23T10:23:53Z</time></trkpt><trkpt lat="31.0697479919" lon="35.0732599385"><ele>507.23</ele><time>2012-03-23T10:24:31Z</time></trkpt><trkpt lat="31.0697509255" lon="35.0732606091"><ele>507.23</ele><time>2012-03-23T10:25:05Z</time></trkpt><trkpt lat="31.0697622411" lon="35.0732688233"><ele>506.75</ele><time>2012-03-23T10:25:35Z</time></trkpt><trkpt lat="31.0697620735" lon="35.0732717570"><ele>506.75</ele><time>2012-03-23T10:26:09Z</time></trkpt><trkpt lat="31.0697650909" lon="35.0732728466"><ele>506.27</ele><time>2012-03-23T10:27:07Z</time></trkpt><trkpt lat="31.0697697010" lon="35.0732662249"><ele>505.31</ele><time>2012-03-23T10:28:09Z</time></trkpt><trkpt lat="31.0697669350" lon="35.0732761156"><ele>504.83</ele><time>2012-03-23T10:28:58Z</time></trkpt><trkpt lat="31.0697659291" lon="35.0732805580"><ele>504.83</ele><time>2012-03-23T10:29:56Z</time></trkpt><trkpt lat="31.0697677732" lon="35.0732886884"><ele>504.35</ele><time>2012-03-23T10:30:41Z</time></trkpt><trkpt lat="31.0697728023" lon="35.0732932147"><ele>503.87</ele><time>2012-03-23T10:31:29Z</time></trkpt><trkpt lat="31.0697702039" lon="35.0732847489"><ele>503.87</ele><time>2012-03-23T10:32:14Z</time></trkpt><trkpt lat="31.0697687790" lon="35.0732869282"><ele>503.87</ele><time>2012-03-23T10:32:49Z</time></trkpt><trkpt lat="31.0697661806" lon="35.0732822344"><ele>504.35</ele><time>2012-03-23T10:33:34Z</time></trkpt><trkpt lat="31.0697672702" lon="35.0732761156"><ele>505.79</ele><time>2012-03-23T10:34:15Z</time></trkpt><trkpt lat="31.0697670188" lon="35.0732682366"><ele>505.31</ele><time>2012-03-23T10:35:05Z</time></trkpt><trkpt lat="31.0697749816" lon="35.0732784625"><ele>504.35</ele><time>2012-03-23T10:35:45Z</time></trkpt><trkpt lat="31.0697863810" lon="35.0732887723"><ele>503.87</ele><time>2012-03-23T10:36:21Z</time></trkpt><trkpt lat="31.0697898176" lon="35.0732943881"><ele>504.35</ele><time>2012-03-23T10:36:57Z</time></trkpt><trkpt lat="31.0697873030" lon="35.0732861739"><ele>504.35</ele><time>2012-03-23T10:37:25Z</time></trkpt><trkpt lat="31.0697769932" lon="35.0732787140"><ele>505.79</ele><time>2012-03-23T10:38:01Z</time></trkpt><trkpt lat="31.0697709583" lon="35.0732803904"><ele>505.79</ele><time>2012-03-23T10:38:39Z</time></trkpt><trkpt lat="31.0697774123" lon="35.0732847489"><ele>506.27</ele><time>2012-03-23T10:39:15Z</time></trkpt><trkpt lat="31.0697807651" lon="35.0732824020"><ele>506.75</ele><time>2012-03-23T10:39:53Z</time></trkpt><trkpt lat="31.0697655100" lon="35.0732664764"><ele>507.23</ele><time>2012-03-23T10:40:35Z</time></trkpt><trkpt lat="31.0697743110" lon="35.0732698292"><ele>507.71</ele><time>2012-03-23T10:41:15Z</time></trkpt><trkpt lat="31.0697802622" lon="35.0732784625"><ele>509.16</ele><time>2012-03-23T10:41:55Z</time></trkpt><trkpt lat="31.0697779153" lon="35.0732826535"><ele>509.16</ele><time>2012-03-23T10:42:25Z</time></trkpt><trkpt lat="31.0697816871" lon="35.0732829049"><ele>509.16</ele><time>2012-03-23T10:43:05Z</time></trkpt><trkpt lat="31.0697811004" lon="35.0732770376"><ele>509.16</ele><time>2012-03-23T10:43:47Z</time></trkpt><trkpt lat="31.0697784182" lon="35.0732717570"><ele>510.12</ele><time>2012-03-23T10:44:34Z</time></trkpt><trkpt lat="31.0697776638" lon="35.0732773729"><ele>511.08</ele><time>2012-03-23T10:45:19Z</time></trkpt><trkpt lat="31.0697806813" lon="35.0732751098"><ele>511.08</ele><time>2012-03-23T10:46:11Z</time></trkpt><trkpt lat="31.0697883088" lon="35.0732689071"><ele>510.60</ele><time>2012-03-23T10:47:01Z</time></trkpt><trkpt lat="31.0697787534" lon="35.0732725952"><ele>513.00</ele><time>2012-03-23T10:47:45Z</time></trkpt><trkpt lat="31.0697771609" lon="35.0732611958"><ele>513.00</ele><time>2012-03-23T10:48:30Z</time></trkpt><trkpt lat="31.0697707906" lon="35.0732560828"><ele>513.96</ele><time>2012-03-23T10:49:07Z</time></trkpt><trkpt lat="31.0697774962" lon="35.0732633751"><ele>514.44</ele><time>2012-03-23T10:49:45Z</time></trkpt><trkpt lat="31.0697843693" lon="35.0732710026"><ele>513.96</ele><time>2012-03-23T10:50:21Z</time></trkpt><trkpt lat="31.0697878897" lon="35.0732738525"><ele>513.96</ele><time>2012-03-23T10:50:53Z</time></trkpt><trkpt lat="31.0697844531" lon="35.0732679851"><ele>513.96</ele><time>2012-03-23T10:51:43Z</time></trkpt><trkpt lat="31.0697851237" lon="35.0732688233"><ele>513.48</ele><time>2012-03-23T10:52:20Z</time></trkpt><trkpt lat="31.0697850399" lon="35.0732709188"><ele>513.48</ele><time>2012-03-23T10:53:02Z</time></trkpt><trkpt lat="31.0697880574" lon="35.0732746068"><ele>514.92</ele><time>2012-03-23T10:53:42Z</time></trkpt><trkpt lat="31.0697824415" lon="35.0732646324"><ele>515.88</ele><time>2012-03-23T10:54:31Z</time></trkpt><trkpt lat="31.0697808489" lon="35.0732596871"><ele>516.85</ele><time>2012-03-23T10:55:16Z</time></trkpt><trkpt lat="31.0697873030" lon="35.0732606929"><ele>517.33</ele><time>2012-03-23T10:55:53Z</time></trkpt><trkpt lat="31.0697879735" lon="35.0732641295"><ele>517.81</ele><time>2012-03-23T10:56:34Z</time></trkpt><trkpt lat="31.0697896499" lon="35.0732699968"><ele>517.81</ele><time>2012-03-23T10:57:12Z</time></trkpt><trkpt lat="31.0697830282" lon="35.0732654706"><ele>518.29</ele><time>2012-03-23T10:57:48Z</time></trkpt><trkpt lat="31.0697792564" lon="35.0732604414"><ele>519.25</ele><time>2012-03-23T10:58:33Z</time></trkpt><trkpt lat="31.0697785020" lon="35.0732592680"><ele>519.73</ele><time>2012-03-23T10:59:15Z</time></trkpt><trkpt lat="31.0697636660" lon="35.0732653029"><ele>517.33</ele><time>2012-03-23T11:00:07Z</time></trkpt><trkpt lat="31.0697566252" lon="35.0732567534"><ele>515.88</ele><time>2012-03-23T11:00:54Z</time></trkpt><trkpt lat="31.0697527695" lon="35.0732612796"><ele>515.40</ele><time>2012-03-23T11:01:30Z</time></trkpt><trkpt lat="31.0697414540" lon="35.0732632913"><ele>513.48</ele><time>2012-03-23T11:02:12Z</time></trkpt><trkpt lat="31.0697410349" lon="35.0732627045"><ele>512.52</ele><time>2012-03-23T11:02:46Z</time></trkpt><trkpt lat="31.0697372630" lon="35.0732616149"><ele>511.56</ele><time>2012-03-23T11:03:23Z</time></trkpt><trkpt lat="31.0697374307" lon="35.0732516404"><ele>511.08</ele><time>2012-03-23T11:03:55Z</time></trkpt><trkpt lat="31.0697339103" lon="35.0732414145"><ele>509.64</ele><time>2012-03-23T11:04:34Z</time></trkpt><trkpt lat="31.0697307251" lon="35.0732390676"><ele>509.64</ele><time>2012-03-23T11:05:13Z</time></trkpt><trkpt lat="31.0697264504" lon="35.0732393190"><ele>509.64</ele><time>2012-03-23T11:05:59Z</time></trkpt><trkpt lat="31.0697305575" lon="35.0732451025"><ele>509.64</ele><time>2012-03-23T11:06:40Z</time></trkpt><trkpt lat="31.0697364248" lon="35.0732480362"><ele>510.60</ele><time>2012-03-23T11:07:18Z</time></trkpt><trkpt lat="31.0697320662" lon="35.0732519757"><ele>511.08</ele><time>2012-03-23T11:07:55Z</time></trkpt><trkpt lat="31.0697295517" lon="35.0732517242"><ele>511.08</ele><time>2012-03-23T11:08:29Z</time></trkpt><trkpt lat="31.0697348323" lon="35.0732467789"><ele>511.08</ele><time>2012-03-23T11:09:05Z</time></trkpt><trkpt lat="31.0697425436" lon="35.0732515566"><ele>512.04</ele><time>2012-03-23T11:09:35Z</time></trkpt><trkpt lat="31.0697406158" lon="35.0732580945"><ele>513.00</ele><time>2012-03-23T11:10:13Z</time></trkpt><trkpt lat="31.0697402805" lon="35.0732528977"><ele>513.96</ele><time>2012-03-23T11:10:50Z</time></trkpt><trkpt lat="31.0697436333" lon="35.0732513051"><ele>513.96</ele><time>2012-03-23T11:11:28Z</time></trkpt><trkpt lat="31.0697410349" lon="35.0732426718"><ele>513.96</ele><time>2012-03-23T11:12:08Z</time></trkpt><trkpt lat="31.0697313957" lon="35.0732398219"><ele>513.48</ele><time>2012-03-23T11:12:57Z</time></trkpt><trkpt lat="31.0697368439" lon="35.0732186995"><ele>513.00</ele><time>2012-03-23T11:13:09Z</time></trkpt><trkpt lat="31.0697438009" lon="35.0731702521"><ele>512.52</ele><time>2012-03-23T11:13:27Z</time></trkpt><trkpt lat="31.0697495844" lon="35.0731130876"><ele>513.48</ele><time>2012-03-23T11:13:39Z</time></trkpt><trkpt lat="31.0697796755" lon="35.0730648916"><ele>513.48</ele><time>2012-03-23T11:13:54Z</time></trkpt><trkpt lat="31.0697741434" lon="35.0730550848"><ele>513.48</ele><time>2012-03-23T11:14:15Z</time></trkpt><trkpt lat="31.0697763227" lon="35.0730528217"><ele>514.44</ele><time>2012-03-23T11:14:48Z</time></trkpt><trkpt lat="31.0697763227" lon="35.0730503909"><ele>513.96</ele><time>2012-03-23T11:15:23Z</time></trkpt><trkpt lat="31.0697736405" lon="35.0730537437"><ele>514.44</ele><time>2012-03-23T11:15:57Z</time></trkpt><trkpt lat="31.0697962716" lon="35.0730316155"><ele>513.96</ele><time>2012-03-23T11:16:24Z</time></trkpt><trkpt lat="31.0699741356" lon="35.0729110837"><ele>512.52</ele><time>2012-03-23T11:16:37Z</time></trkpt><trkpt lat="31.0701255128" lon="35.0728909671"><ele>513.00</ele><time>2012-03-23T11:16:48Z</time></trkpt><trkpt lat="31.0701815877" lon="35.0728960801"><ele>513.00</ele><time>2012-03-23T11:16:59Z</time></trkpt><trkpt lat="31.0704222322" lon="35.0728491414"><ele>512.52</ele><time>2012-03-23T11:17:11Z</time></trkpt><trkpt lat="31.0706488788" lon="35.0727494806"><ele>512.04</ele><time>2012-03-23T11:17:22Z</time></trkpt><trkpt lat="31.0708735138" lon="35.0725991931"><ele>511.56</ele><time>2012-03-23T11:17:36Z</time></trkpt><trkpt lat="31.0710403137" lon="35.0723924115"><ele>512.52</ele><time>2012-03-23T11:17:48Z</time></trkpt><trkpt lat="31.0712479334" lon="35.0721826963"><ele>510.60</ele><time>2012-03-23T11:18:00Z</time></trkpt><trkpt lat="31.0714577325" lon="35.0720001385"><ele>512.04</ele><time>2012-03-23T11:18:13Z</time></trkpt><trkpt lat="31.0716883186" lon="35.0717988890"><ele>512.04</ele><time>2012-03-23T11:18:26Z</time></trkpt><trkpt lat="31.0719096009" lon="35.0716788601"><ele>511.56</ele><time>2012-03-23T11:18:35Z</time></trkpt><trkpt lat="31.0720878001" lon="35.0715786964"><ele>512.04</ele><time>2012-03-23T11:18:45Z</time></trkpt><trkpt lat="31.0723629780" lon="35.0714398082"><ele>511.56</ele><time>2012-03-23T11:18:59Z</time></trkpt><trkpt lat="31.0726402514" lon="35.0713784527"><ele>509.64</ele><time>2012-03-23T11:19:10Z</time></trkpt><trkpt lat="31.0728993360" lon="35.0712021813"><ele>507.23</ele><time>2012-03-23T11:19:21Z</time></trkpt><trkpt lat="31.0729210451" lon="35.0711567514"><ele>506.75</ele><time>2012-03-23T11:19:23Z</time></trkpt><trkpt lat="31.0729531478" lon="35.0710557494"><ele>505.79</ele><time>2012-03-23T11:19:29Z</time></trkpt><trkpt lat="31.0730177723" lon="35.0710295141"><ele>506.27</ele><time>2012-03-23T11:19:33Z</time></trkpt><trkpt lat="31.0731037706" lon="35.0710710045"><ele>506.75</ele><time>2012-03-23T11:19:38Z</time></trkpt><trkpt lat="31.0731304251" lon="35.0711039454"><ele>506.75</ele><time>2012-03-23T11:19:40Z</time></trkpt><trkpt lat="31.0731476080" lon="35.0711178593"><ele>506.75</ele><time>2012-03-23T11:19:41Z</time></trkpt><trkpt lat="31.0734901763" lon="35.0712136645"><ele>505.31</ele><time>2012-03-23T11:19:56Z</time></trkpt><trkpt lat="31.0737201758" lon="35.0711554941"><ele>503.87</ele><time>2012-03-23T11:20:06Z</time></trkpt><trkpt lat="31.0738011450" lon="35.0711699948"><ele>502.91</ele><time>2012-03-23T11:20:09Z</time></trkpt><trkpt lat="31.0738257039" lon="35.0711859204"><ele>502.43</ele><time>2012-03-23T11:20:10Z</time></trkpt><trkpt lat="31.0738513526" lon="35.0712009240"><ele>502.43</ele><time>2012-03-23T11:20:11Z</time></trkpt><trkpt lat="31.0738721397" lon="35.0712161791"><ele>502.43</ele><time>2012-03-23T11:20:12Z</time></trkpt><trkpt lat="31.0738884006" lon="35.0712296739"><ele>502.43</ele><time>2012-03-23T11:20:13Z</time></trkpt><trkpt lat="31.0741122812" lon="35.0712816417"><ele>502.91</ele><time>2012-03-23T11:20:24Z</time></trkpt><trkpt lat="31.0744168796" lon="35.0713518821"><ele>500.98</ele><time>2012-03-23T11:20:37Z</time></trkpt><trkpt lat="31.0745097511" lon="35.0713507924"><ele>500.98</ele><time>2012-03-23T11:20:49Z</time></trkpt><trkpt lat="31.0745894630" lon="35.0713596772"><ele>500.50</ele><time>2012-03-23T11:21:04Z</time></trkpt><trkpt lat="31.0746472981" lon="35.0713625271"><ele>500.50</ele><time>2012-03-23T11:21:07Z</time></trkpt><trkpt lat="31.0749398265" lon="35.0714844838"><ele>499.54</ele><time>2012-03-23T11:21:21Z</time></trkpt><trkpt lat="31.0750874318" lon="35.0715552270"><ele>499.06</ele><time>2012-03-23T11:21:32Z</time></trkpt><trkpt lat="31.0750992503" lon="35.0715538021"><ele>499.06</ele><time>2012-03-23T11:21:33Z</time></trkpt><trkpt lat="31.0751118232" lon="35.0715531316"><ele>499.06</ele><time>2012-03-23T11:21:34Z</time></trkpt><trkpt lat="31.0751296766" lon="35.0715583283"><ele>498.58</ele><time>2012-03-23T11:21:35Z</time></trkpt><trkpt lat="31.0752595961" lon="35.0716003217"><ele>498.10</ele><time>2012-03-23T11:21:46Z</time></trkpt><trkpt lat="31.0752740130" lon="35.0716100447"><ele>498.10</ele><time>2012-03-23T11:21:47Z</time></trkpt><trkpt lat="31.0752931237" lon="35.0716180913"><ele>498.10</ele><time>2012-03-23T11:21:48Z</time></trkpt><trkpt lat="31.0753112286" lon="35.0716265570"><ele>498.10</ele><time>2012-03-23T11:21:49Z</time></trkpt><trkpt lat="31.0753296688" lon="35.0716377050"><ele>498.10</ele><time>2012-03-23T11:21:50Z</time></trkpt><trkpt lat="31.0753464326" lon="35.0716486014"><ele>498.10</ele><time>2012-03-23T11:21:51Z</time></trkpt><trkpt lat="31.0753802955" lon="35.0716719031"><ele>496.18</ele><time>2012-03-23T11:22:02Z</time></trkpt><trkpt lat="31.0754600912" lon="35.0717052631"><ele>494.26</ele><time>2012-03-23T11:22:16Z</time></trkpt><trkpt lat="31.0757239535" lon="35.0716957916"><ele>493.77</ele><time>2012-03-23T11:22:28Z</time></trkpt><trkpt lat="31.0759558808" lon="35.0717425626"><ele>495.22</ele><time>2012-03-23T11:22:39Z</time></trkpt><trkpt lat="31.0762607306" lon="35.0717674568"><ele>494.74</ele><time>2012-03-23T11:22:51Z</time></trkpt><trkpt lat="31.0763751436" lon="35.0717951171"><ele>494.26</ele><time>2012-03-23T11:22:56Z</time></trkpt><trkpt lat="31.0763888061" lon="35.0718095340"><ele>493.77</ele><time>2012-03-23T11:22:57Z</time></trkpt><trkpt lat="31.0764044803" lon="35.0718232803"><ele>493.29</ele><time>2012-03-23T11:22:58Z</time></trkpt><trkpt lat="31.0764250159" lon="35.0718292315"><ele>492.81</ele><time>2012-03-23T11:22:59Z</time></trkpt><trkpt lat="31.0764458869" lon="35.0718301535"><ele>492.81</ele><time>2012-03-23T11:23:00Z</time></trkpt><trkpt lat="31.0764644947" lon="35.0718306564"><ele>492.81</ele><time>2012-03-23T11:23:01Z</time></trkpt><trkpt lat="31.0764817614" lon="35.0718357693"><ele>492.81</ele><time>2012-03-23T11:23:02Z</time></trkpt><trkpt lat="31.0765002854" lon="35.0718421396"><ele>492.81</ele><time>2012-03-23T11:23:03Z</time></trkpt><trkpt lat="31.0765194800" lon="35.0718509406"><ele>492.81</ele><time>2012-03-23T11:23:04Z</time></trkpt><trkpt lat="31.0765366629" lon="35.0718634296"><ele>492.81</ele><time>2012-03-23T11:23:05Z</time></trkpt><trkpt lat="31.0765532590" lon="35.0718779303"><ele>492.81</ele><time>2012-03-23T11:23:06Z</time></trkpt><trkpt lat="31.0765727051" lon="35.0718877371"><ele>492.81</ele><time>2012-03-23T11:23:07Z</time></trkpt><trkpt lat="31.0765880439" lon="35.0718928501"><ele>493.29</ele><time>2012-03-23T11:23:08Z</time></trkpt><trkpt lat="31.0765983537" lon="35.0718990527"><ele>493.29</ele><time>2012-03-23T11:23:09Z</time></trkpt><trkpt lat="31.0766070709" lon="35.0719074346"><ele>493.77</ele><time>2012-03-23T11:23:10Z</time></trkpt><trkpt lat="31.0766148660" lon="35.0719175767"><ele>493.77</ele><time>2012-03-23T11:23:11Z</time></trkpt><trkpt lat="31.0766223259" lon="35.0719269644"><ele>494.26</ele><time>2012-03-23T11:23:12Z</time></trkpt><trkpt lat="31.0766275227" lon="35.0719402917"><ele>494.26</ele><time>2012-03-23T11:23:13Z</time></trkpt><trkpt lat="31.0766349826" lon="35.0719566364"><ele>494.26</ele><time>2012-03-23T11:23:14Z</time></trkpt><trkpt lat="31.0766483936" lon="35.0719732326"><ele>494.26</ele><time>2012-03-23T11:23:15Z</time></trkpt><trkpt lat="31.0769039579" lon="35.0720824488"><ele>492.33</ele><time>2012-03-23T11:23:28Z</time></trkpt><trkpt lat="31.0769269243" lon="35.0720906630"><ele>491.85</ele><time>2012-03-23T11:23:29Z</time></trkpt><trkpt lat="31.0772226378" lon="35.0721355062"><ele>490.41</ele><time>2012-03-23T11:23:39Z</time></trkpt><trkpt lat="31.0775311757" lon="35.0718737394"><ele>488.49</ele><time>2012-03-23T11:23:53Z</time></trkpt><trkpt lat="31.0778226145" lon="35.0716542173"><ele>485.12</ele><time>2012-03-23T11:24:04Z</time></trkpt><trkpt lat="31.0780827049" lon="35.0715927780"><ele>483.68</ele><time>2012-03-23T11:24:14Z</time></trkpt><trkpt lat="31.0781027377" lon="35.0715861563"><ele>483.20</ele><time>2012-03-23T11:24:15Z</time></trkpt><trkpt lat="31.0781200044" lon="35.0715878326"><ele>482.72</ele><time>2012-03-23T11:24:16Z</time></trkpt><trkpt lat="31.0781378578" lon="35.0715896767"><ele>482.24</ele><time>2012-03-23T11:24:17Z</time></trkpt><trkpt lat="31.0783486627" lon="35.0714908540"><ele>477.43</ele><time>2012-03-23T11:24:27Z</time></trkpt><trkpt lat="31.0783837829" lon="35.0714854896"><ele>477.43</ele><time>2012-03-23T11:24:37Z</time></trkpt><trkpt lat="31.0783845372" lon="35.0714955479"><ele>478.39</ele><time>2012-03-23T11:24:51Z</time></trkpt><trkpt lat="31.0784123652" lon="35.0715253875"><ele>476.95</ele><time>2012-03-23T11:24:57Z</time></trkpt><trkpt lat="31.0784401093" lon="35.0715335179"><ele>476.47</ele><time>2012-03-23T11:25:07Z</time></trkpt><trkpt lat="31.0784935020" lon="35.0715200230"><ele>474.55</ele><time>2012-03-23T11:25:10Z</time></trkpt><trkpt lat="31.0786012094" lon="35.0715806242"><ele>471.66</ele><time>2012-03-23T11:25:19Z</time></trkpt><trkpt lat="31.0785993654" lon="35.0715758465"><ele>471.66</ele><time>2012-03-23T11:25:35Z</time></trkpt><trkpt lat="31.0786307976" lon="35.0715913530"><ele>471.18</ele><time>2012-03-23T11:25:37Z</time></trkpt><trkpt lat="31.0786472261" lon="35.0715882517"><ele>471.18</ele><time>2012-03-23T11:25:38Z</time></trkpt><trkpt lat="31.0787215736" lon="35.0715549756"><ele>471.66</ele><time>2012-03-23T11:25:50Z</time></trkpt><trkpt lat="31.0787184723" lon="35.0715553947"><ele>471.66</ele><time>2012-03-23T11:26:24Z</time></trkpt><trkpt lat="31.0787103418" lon="35.0715492759"><ele>470.70</ele><time>2012-03-23T11:26:47Z</time></trkpt><trkpt lat="31.0787115991" lon="35.0715425704"><ele>469.74</ele><time>2012-03-23T11:27:12Z</time></trkpt><trkpt lat="31.0787242558" lon="35.0715376250"><ele>469.26</ele><time>2012-03-23T11:27:30Z</time></trkpt><trkpt lat="31.0787368286" lon="35.0715424027"><ele>468.30</ele><time>2012-03-23T11:27:57Z</time></trkpt><trkpt lat="31.0787434503" lon="35.0715424865"><ele>467.82</ele><time>2012-03-23T11:28:26Z</time></trkpt><trkpt lat="31.0787370801" lon="35.0715405587"><ele>467.82</ele><time>2012-03-23T11:28:54Z</time></trkpt><trkpt lat="31.0787413549" lon="35.0715382118"><ele>466.86</ele><time>2012-03-23T11:29:29Z</time></trkpt><trkpt lat="31.0787433665" lon="35.0715425704"><ele>465.90</ele><time>2012-03-23T11:30:04Z</time></trkpt><trkpt lat="31.0787434503" lon="35.0715465099"><ele>465.90</ele><time>2012-03-23T11:30:36Z</time></trkpt><trkpt lat="31.0787414387" lon="35.0715434086"><ele>466.38</ele><time>2012-03-23T11:31:03Z</time></trkpt><trkpt lat="31.0787483957" lon="35.0715415645"><ele>466.86</ele><time>2012-03-23T11:31:27Z</time></trkpt><trkpt lat="31.0788255930" lon="35.0715941191"><ele>466.86</ele><time>2012-03-23T11:31:39Z</time></trkpt><trkpt lat="31.0789452028" lon="35.0716338493"><ele>467.82</ele><time>2012-03-23T11:31:49Z</time></trkpt><trkpt lat="31.0790161137" lon="35.0716440752"><ele>467.82</ele><time>2012-03-23T11:31:53Z</time></trkpt><trkpt lat="31.0790374037" lon="35.0716487691"><ele>467.82</ele><time>2012-03-23T11:31:54Z</time></trkpt><trkpt lat="31.0790621303" lon="35.0716572348"><ele>467.82</ele><time>2012-03-23T11:31:55Z</time></trkpt><trkpt lat="31.0790881980" lon="35.0716611743"><ele>467.34</ele><time>2012-03-23T11:31:56Z</time></trkpt><trkpt lat="31.0791122541" lon="35.0716625154"><ele>467.82</ele><time>2012-03-23T11:31:57Z</time></trkpt><trkpt lat="31.0792714264" lon="35.0717043411"><ele>466.86</ele><time>2012-03-23T11:32:04Z</time></trkpt><trkpt lat="31.0792933870" lon="35.0717154052"><ele>466.38</ele><time>2012-03-23T11:32:05Z</time></trkpt><trkpt lat="31.0794368852" lon="35.0717467535"><ele>467.34</ele><time>2012-03-23T11:32:14Z</time></trkpt><trkpt lat="31.0794471949" lon="35.0717503577"><ele>467.34</ele><time>2012-03-23T11:32:15Z</time></trkpt><trkpt lat="31.0794611089" lon="35.0717531238"><ele>467.34</ele><time>2012-03-23T11:32:16Z</time></trkpt><trkpt lat="31.0794778727" lon="35.0717558898"><ele>467.34</ele><time>2012-03-23T11:32:17Z</time></trkpt><trkpt lat="31.0794956423" lon="35.0717556383"><ele>467.34</ele><time>2012-03-23T11:32:18Z</time></trkpt><trkpt lat="31.0795150883" lon="35.0717586558"><ele>467.34</ele><time>2012-03-23T11:32:19Z</time></trkpt><trkpt lat="31.0795313492" lon="35.0717618410"><ele>466.86</ele><time>2012-03-23T11:32:20Z</time></trkpt><trkpt lat="31.0795444250" lon="35.0717611704"><ele>466.86</ele><time>2012-03-23T11:32:21Z</time></trkpt><trkpt lat="31.0795585066" lon="35.0717574824"><ele>466.86</ele><time>2012-03-23T11:32:22Z</time></trkpt><trkpt lat="31.0795939621" lon="35.0717605837"><ele>466.86</ele><time>2012-03-23T11:32:24Z</time></trkpt><trkpt lat="31.0796157550" lon="35.0717654452"><ele>467.34</ele><time>2012-03-23T11:32:26Z</time></trkpt><trkpt lat="31.0796310101" lon="35.0717629306"><ele>467.34</ele><time>2012-03-23T11:32:27Z</time></trkpt><trkpt lat="31.0796475224" lon="35.0717587397"><ele>467.34</ele><time>2012-03-23T11:32:28Z</time></trkpt><trkpt lat="31.0796634480" lon="35.0717555545"><ele>467.34</ele><time>2012-03-23T11:32:29Z</time></trkpt><trkpt lat="31.0796813015" lon="35.0717524532"><ele>467.34</ele><time>2012-03-23T11:32:30Z</time></trkpt><trkpt lat="31.0797027592" lon="35.0717490166"><ele>467.34</ele><time>2012-03-23T11:32:31Z</time></trkpt><trkpt lat="31.0798651166" lon="35.0716955401"><ele>467.34</ele><time>2012-03-23T11:32:40Z</time></trkpt><trkpt lat="31.0798773542" lon="35.0716853142"><ele>466.86</ele><time>2012-03-23T11:32:41Z</time></trkpt><trkpt lat="31.0799155757" lon="35.0716689695"><ele>466.86</ele><time>2012-03-23T11:32:46Z</time></trkpt><trkpt lat="31.0799645260" lon="35.0716416445"><ele>466.86</ele><time>2012-03-23T11:32:49Z</time></trkpt><trkpt lat="31.0801649373" lon="35.0716089550"><ele>466.86</ele><time>2012-03-23T11:33:00Z</time></trkpt><trkpt lat="31.0803837050" lon="35.0715522934"><ele>466.38</ele><time>2012-03-23T11:33:14Z</time></trkpt><trkpt lat="31.0803972837" lon="35.0715535507"><ele>465.90</ele><time>2012-03-23T11:33:15Z</time></trkpt><trkpt lat="31.0804106947" lon="35.0715564843"><ele>465.90</ele><time>2012-03-23T11:33:16Z</time></trkpt><trkpt lat="31.0804210883" lon="35.0715638604"><ele>465.90</ele><time>2012-03-23T11:33:17Z</time></trkpt><trkpt lat="31.0804350022" lon="35.0715710688"><ele>465.42</ele><time>2012-03-23T11:33:18Z</time></trkpt><trkpt lat="31.0804495867" lon="35.0715729967"><ele>465.42</ele><time>2012-03-23T11:33:19Z</time></trkpt><trkpt lat="31.0805989522" lon="35.0715244655"><ele>463.49</ele><time>2012-03-23T11:33:29Z</time></trkpt><trkpt lat="31.0806184821" lon="35.0715322606"><ele>463.49</ele><time>2012-03-23T11:33:30Z</time></trkpt><trkpt lat="31.0806363355" lon="35.0715392176"><ele>463.49</ele><time>2012-03-23T11:33:31Z</time></trkpt><trkpt lat="31.0806546081" lon="35.0715466775"><ele>463.49</ele><time>2012-03-23T11:33:32Z</time></trkpt><trkpt lat="31.0806758981" lon="35.0715548918"><ele>463.01</ele><time>2012-03-23T11:33:33Z</time></trkpt><trkpt lat="31.0806982778" lon="35.0715579931"><ele>463.01</ele><time>2012-03-23T11:33:34Z</time></trkpt><trkpt lat="31.0807223339" lon="35.0715600885"><ele>462.53</ele><time>2012-03-23T11:33:35Z</time></trkpt><trkpt lat="31.0807484016" lon="35.0715646148"><ele>462.53</ele><time>2012-03-23T11:33:36Z</time></trkpt><trkpt lat="31.0807724576" lon="35.0715751760"><ele>462.53</ele><time>2012-03-23T11:33:37Z</time></trkpt><trkpt lat="31.0807961784" lon="35.0715885032"><ele>462.05</ele><time>2012-03-23T11:33:38Z</time></trkpt><trkpt lat="31.0810182150" lon="35.0717237871"><ele>461.57</ele><time>2012-03-23T11:33:49Z</time></trkpt><trkpt lat="31.0811104998" lon="35.0718139764"><ele>461.09</ele><time>2012-03-23T11:33:57Z</time></trkpt><trkpt lat="31.0813344643" lon="35.0718508568"><ele>461.57</ele><time>2012-03-23T11:34:08Z</time></trkpt><trkpt lat="31.0815353785" lon="35.0719185825"><ele>460.13</ele><time>2012-03-23T11:34:15Z</time></trkpt><trkpt lat="31.0815626197" lon="35.0719337538"><ele>460.13</ele><time>2012-03-23T11:34:16Z</time></trkpt><trkpt lat="31.0815793835" lon="35.0719478354"><ele>459.65</ele><time>2012-03-23T11:34:17Z</time></trkpt><trkpt lat="31.0816381406" lon="35.0720116217"><ele>458.69</ele><time>2012-03-23T11:34:23Z</time></trkpt><trkpt lat="31.0816622805" lon="35.0720118731"><ele>458.69</ele><time>2012-03-23T11:34:24Z</time></trkpt><trkpt lat="31.0816885997" lon="35.0720084365"><ele>458.69</ele><time>2012-03-23T11:34:25Z</time></trkpt><trkpt lat="31.0817123204" lon="35.0720073469"><ele>458.69</ele><time>2012-03-23T11:34:26Z</time></trkpt><trkpt lat="31.0817300063" lon="35.0720099453"><ele>459.17</ele><time>2012-03-23T11:34:27Z</time></trkpt><trkpt lat="31.0817429982" lon="35.0720154773"><ele>459.17</ele><time>2012-03-23T11:34:28Z</time></trkpt><trkpt lat="31.0818302538" lon="35.0720681995"><ele>459.17</ele><time>2012-03-23T11:34:34Z</time></trkpt><trkpt lat="31.0818354506" lon="35.0720859692"><ele>458.69</ele><time>2012-03-23T11:34:35Z</time></trkpt><trkpt lat="31.0818429943" lon="35.0721042417"><ele>458.69</ele><time>2012-03-23T11:34:36Z</time></trkpt><trkpt lat="31.0818559024" lon="35.0721194129"><ele>458.21</ele><time>2012-03-23T11:34:37Z</time></trkpt><trkpt lat="31.0818695650" lon="35.0721331593"><ele>458.21</ele><time>2012-03-23T11:34:38Z</time></trkpt><trkpt lat="31.0818822216" lon="35.0721480791"><ele>458.21</ele><time>2012-03-23T11:34:39Z</time></trkpt><trkpt lat="31.0818977281" lon="35.0721625797"><ele>458.21</ele><time>2012-03-23T11:34:40Z</time></trkpt><trkpt lat="31.0819171742" lon="35.0721746497"><ele>458.21</ele><time>2012-03-23T11:34:41Z</time></trkpt><trkpt lat="31.0819369555" lon="35.0721882284"><ele>458.21</ele><time>2012-03-23T11:34:42Z</time></trkpt><trkpt lat="31.0819534678" lon="35.0722026452"><ele>458.21</ele><time>2012-03-23T11:34:43Z</time></trkpt><trkpt lat="31.0820946191" lon="35.0722836144"><ele>459.17</ele><time>2012-03-23T11:34:52Z</time></trkpt><trkpt lat="31.0821085330" lon="35.0722912420"><ele>459.17</ele><time>2012-03-23T11:34:53Z</time></trkpt><trkpt lat="31.0821248777" lon="35.0723046530"><ele>459.17</ele><time>2012-03-23T11:34:54Z</time></trkpt><trkpt lat="31.0821399651" lon="35.0723240990"><ele>459.17</ele><time>2012-03-23T11:34:55Z</time></trkpt><trkpt lat="31.0821542982" lon="35.0723378453"><ele>459.17</ele><time>2012-03-23T11:34:56Z</time></trkpt><trkpt lat="31.0821678769" lon="35.0723423716"><ele>459.17</ele><time>2012-03-23T11:34:57Z</time></trkpt><trkpt lat="31.0823341738" lon="35.0724291243"><ele>459.65</ele><time>2012-03-23T11:35:06Z</time></trkpt><trkpt lat="31.0823446512" lon="35.0724468939"><ele>459.17</ele><time>2012-03-23T11:35:07Z</time></trkpt><trkpt lat="31.0823528655" lon="35.0724654179"><ele>459.17</ele><time>2012-03-23T11:35:08Z</time></trkpt><trkpt lat="31.0824706312" lon="35.0726411864"><ele>460.13</ele><time>2012-03-23T11:35:18Z</time></trkpt><trkpt lat="31.0824805219" lon="35.0726516638"><ele>460.13</ele><time>2012-03-23T11:35:19Z</time></trkpt><trkpt lat="31.0824861377" lon="35.0726646557"><ele>460.13</ele><time>2012-03-23T11:35:20Z</time></trkpt><trkpt lat="31.0824896581" lon="35.0727004465"><ele>461.57</ele><time>2012-03-23T11:35:29Z</time></trkpt><trkpt lat="31.0825022310" lon="35.0727526657"><ele>461.09</ele><time>2012-03-23T11:35:32Z</time></trkpt><trkpt lat="31.0825598985" lon="35.0727980118"><ele>461.09</ele><time>2012-03-23T11:35:36Z</time></trkpt><trkpt lat="31.0825737286" lon="35.0728152785"><ele>461.09</ele><time>2012-03-23T11:35:37Z</time></trkpt><trkpt lat="31.0826961882" lon="35.0729867723"><ele>460.61</ele><time>2012-03-23T11:35:47Z</time></trkpt><trkpt lat="31.0827023070" lon="35.0730041228"><ele>460.61</ele><time>2012-03-23T11:35:48Z</time></trkpt><trkpt lat="31.0829088371" lon="35.0732176099"><ele>457.24</ele><time>2012-03-23T11:36:01Z</time></trkpt><trkpt lat="31.0829267744" lon="35.0732197892"><ele>456.76</ele><time>2012-03-23T11:36:03Z</time></trkpt><trkpt lat="31.0829428677" lon="35.0732237287"><ele>456.76</ele><time>2012-03-23T11:36:04Z</time></trkpt><trkpt lat="31.0829602182" lon="35.0732285902"><ele>456.76</ele><time>2012-03-23T11:36:05Z</time></trkpt><trkpt lat="31.0829800833" lon="35.0732313562"><ele>456.76</ele><time>2012-03-23T11:36:06Z</time></trkpt><trkpt lat="31.0830022953" lon="35.0732352119"><ele>456.76</ele><time>2012-03-23T11:36:07Z</time></trkpt><trkpt lat="31.0830226634" lon="35.0732378941"><ele>456.76</ele><time>2012-03-23T11:36:08Z</time></trkpt><trkpt lat="31.0830390919" lon="35.0732377265"><ele>456.76</ele><time>2012-03-23T11:36:09Z</time></trkpt><trkpt lat="31.0830536764" lon="35.0732390676"><ele>457.24</ele><time>2012-03-23T11:36:10Z</time></trkpt><trkpt lat="31.0830695182" lon="35.0732415821"><ele>457.24</ele><time>2012-03-23T11:36:11Z</time></trkpt><trkpt lat="31.0830877908" lon="35.0732388161"><ele>457.24</ele><time>2012-03-23T11:36:12Z</time></trkpt><trkpt lat="31.0831044707" lon="35.0732301828"><ele>457.24</ele><time>2012-03-23T11:36:13Z</time></trkpt><trkpt lat="31.0831201449" lon="35.0732207112"><ele>457.72</ele><time>2012-03-23T11:36:14Z</time></trkpt><trkpt lat="31.0832495615" lon="35.0731227268"><ele>457.72</ele><time>2012-03-23T11:36:24Z</time></trkpt><trkpt lat="31.0832938179" lon="35.0730841700"><ele>458.69</ele><time>2012-03-23T11:36:27Z</time></trkpt><trkpt lat="31.0834891163" lon="35.0730933901"><ele>458.21</ele><time>2012-03-23T11:36:38Z</time></trkpt><trkpt lat="31.0835391562" lon="35.0731025264"><ele>457.24</ele><time>2012-03-23T11:36:49Z</time></trkpt><trkpt lat="31.0835393239" lon="35.0731020235"><ele>457.24</ele><time>2012-03-23T11:36:50Z</time></trkpt><trkpt lat="31.0836022720" lon="35.0731036160"><ele>457.24</ele><time>2012-03-23T11:36:55Z</time></trkpt><trkpt lat="31.0837235581" lon="35.0730940606"><ele>457.72</ele><time>2012-03-23T11:37:00Z</time></trkpt><trkpt lat="31.0839233827" lon="35.0731030293"><ele>458.69</ele><time>2012-03-23T11:37:12Z</time></trkpt><trkpt lat="31.0840196908" lon="35.0731295161"><ele>457.72</ele><time>2012-03-23T11:37:29Z</time></trkpt><trkpt lat="31.0840589181" lon="35.0731399935"><ele>457.72</ele><time>2012-03-23T11:37:31Z</time></trkpt><trkpt lat="31.0842287354" lon="35.0732340384"><ele>456.76</ele><time>2012-03-23T11:37:44Z</time></trkpt><trkpt lat="31.0842276458" lon="35.0732419174"><ele>455.32</ele><time>2012-03-23T11:38:05Z</time></trkpt><trkpt lat="31.0842216108" lon="35.0732585974"><ele>454.84</ele><time>2012-03-23T11:38:08Z</time></trkpt><trkpt lat="31.0841789469" lon="35.0733977370"><ele>453.40</ele><time>2012-03-23T11:38:22Z</time></trkpt><trkpt lat="31.0841719061" lon="35.0734216254"><ele>453.88</ele><time>2012-03-23T11:38:24Z</time></trkpt><trkpt lat="31.0841942020" lon="35.0734618586"><ele>452.92</ele><time>2012-03-23T11:38:37Z</time></trkpt><trkpt lat="31.0841948725" lon="35.0734621100"><ele>452.92</ele><time>2012-03-23T11:38:38Z</time></trkpt><trkpt lat="31.0842926893" lon="35.0734694023"><ele>452.44</ele><time>2012-03-23T11:38:45Z</time></trkpt><trkpt lat="31.0843470879" lon="35.0734861661"><ele>451.48</ele><time>2012-03-23T11:38:55Z</time></trkpt><trkpt lat="31.0843433999" lon="35.0735232141"><ele>451.00</ele><time>2012-03-23T11:39:01Z</time></trkpt><trkpt lat="31.0843575653" lon="35.0735522993"><ele>450.52</ele><time>2012-03-23T11:39:06Z</time></trkpt><trkpt lat="31.0845938511" lon="35.0735906884"><ele>450.52</ele><time>2012-03-23T11:39:19Z</time></trkpt><trkpt lat="31.0847065877" lon="35.0735978968"><ele>449.07</ele><time>2012-03-23T11:39:25Z</time></trkpt><trkpt lat="31.0848348308" lon="35.0736710709"><ele>448.59</ele><time>2012-03-23T11:39:32Z</time></trkpt><trkpt lat="31.0848735552" lon="35.0736838114"><ele>448.11</ele><time>2012-03-23T11:39:34Z</time></trkpt><trkpt lat="31.0849987809" lon="35.0737910159"><ele>448.11</ele><time>2012-03-23T11:39:41Z</time></trkpt><trkpt lat="31.0850991122" lon="35.0738670398"><ele>448.11</ele><time>2012-03-23T11:39:47Z</time></trkpt><trkpt lat="31.0851676762" lon="35.0739537925"><ele>448.11</ele><time>2012-03-23T11:39:52Z</time></trkpt><trkpt lat="31.0852733720" lon="35.0740398746"><ele>447.63</ele><time>2012-03-23T11:39:57Z</time></trkpt><trkpt lat="31.0853794031" lon="35.0741972867"><ele>447.63</ele><time>2012-03-23T11:40:04Z</time></trkpt><trkpt lat="31.0856017750" lon="35.0744184852"><ele>448.11</ele><time>2012-03-23T11:40:16Z</time></trkpt><trkpt lat="31.0858857539" lon="35.0745593850"><ele>447.63</ele><time>2012-03-23T11:40:29Z</time></trkpt><trkpt lat="31.0859059542" lon="35.0745587144"><ele>447.63</ele><time>2012-03-23T11:40:30Z</time></trkpt><trkpt lat="31.0859891865" lon="35.0745932478"><ele>447.63</ele><time>2012-03-23T11:40:34Z</time></trkpt><trkpt lat="31.0861790366" lon="35.0746885501"><ele>447.15</ele><time>2012-03-23T11:40:45Z</time></trkpt><trkpt lat="31.0864079464" lon="35.0748893805"><ele>446.67</ele><time>2012-03-23T11:40:58Z</time></trkpt><trkpt lat="31.0865823738" lon="35.0750757102"><ele>446.67</ele><time>2012-03-23T11:41:09Z</time></trkpt><trkpt lat="31.0867555439" lon="35.0751713477"><ele>446.67</ele><time>2012-03-23T11:41:17Z</time></trkpt><trkpt lat="31.0868774168" lon="35.0752543285"><ele>446.19</ele><time>2012-03-23T11:41:24Z</time></trkpt><trkpt lat="31.0869925003" lon="35.0753123313"><ele>446.67</ele><time>2012-03-23T11:41:30Z</time></trkpt><trkpt lat="31.0871431231" lon="35.0754223857"><ele>446.19</ele><time>2012-03-23T11:41:38Z</time></trkpt><trkpt lat="31.0873673391" lon="35.0755452644"><ele>444.75</ele><time>2012-03-23T11:41:49Z</time></trkpt><trkpt lat="31.0876033735" lon="35.0756958872"><ele>443.31</ele><time>2012-03-23T11:42:00Z</time></trkpt><trkpt lat="31.0878249072" lon="35.0758436602"><ele>442.34</ele><time>2012-03-23T11:42:11Z</time></trkpt><trkpt lat="31.0878379829" lon="35.0758522935"><ele>442.34</ele><time>2012-03-23T11:42:12Z</time></trkpt><trkpt lat="31.0878521483" lon="35.0758864917"><ele>442.34</ele><time>2012-03-23T11:42:14Z</time></trkpt><trkpt lat="31.0879321117" lon="35.0760194287"><ele>441.86</ele><time>2012-03-23T11:42:20Z</time></trkpt><trkpt lat="31.0879614484" lon="35.0761329196"><ele>440.42</ele><time>2012-03-23T11:42:26Z</time></trkpt><trkpt lat="31.0880473629" lon="35.0763347559"><ele>440.42</ele><time>2012-03-23T11:42:37Z</time></trkpt><trkpt lat="31.0880482011" lon="35.0763397012"><ele>440.42</ele><time>2012-03-23T11:42:40Z</time></trkpt><trkpt lat="31.0880915355" lon="35.0763948541"><ele>439.94</ele><time>2012-03-23T11:42:45Z</time></trkpt><trkpt lat="31.0882440861" lon="35.0766417850"><ele>438.50</ele><time>2012-03-23T11:42:56Z</time></trkpt><trkpt lat="31.0883601755" lon="35.0768057350"><ele>438.02</ele><time>2012-03-23T11:43:06Z</time></trkpt><trkpt lat="31.0883611813" lon="35.0768075790"><ele>438.02</ele><time>2012-03-23T11:43:08Z</time></trkpt><trkpt lat="31.0884417314" lon="35.0768770650"><ele>438.50</ele><time>2012-03-23T11:43:23Z</time></trkpt><trkpt lat="31.0884427372" lon="35.0768763945"><ele>438.98</ele><time>2012-03-23T11:43:26Z</time></trkpt><trkpt lat="31.0886019096" lon="35.0770328846"><ele>439.94</ele><time>2012-03-23T11:43:38Z</time></trkpt><trkpt lat="31.0886767600" lon="35.0770366564"><ele>438.98</ele><time>2012-03-23T11:43:50Z</time></trkpt><trkpt lat="31.0886799451" lon="35.0770212337"><ele>437.54</ele><time>2012-03-23T11:44:06Z</time></trkpt><trkpt lat="31.0886876564" lon="35.0770168751"><ele>437.54</ele><time>2012-03-23T11:44:15Z</time></trkpt><trkpt lat="31.0886941105" lon="35.0769587047"><ele>437.06</ele><time>2012-03-23T11:44:19Z</time></trkpt><trkpt lat="31.0886962060" lon="35.0767997000"><ele>437.06</ele><time>2012-03-23T11:44:27Z</time></trkpt><trkpt lat="31.0886701383" lon="35.0764769129"><ele>436.58</ele><time>2012-03-23T11:44:42Z</time></trkpt><trkpt lat="31.0885579884" lon="35.0761851389"><ele>438.50</ele><time>2012-03-23T11:44:55Z</time></trkpt><trkpt lat="31.0883194394" lon="35.0759641081"><ele>442.82</ele><time>2012-03-23T11:45:12Z</time></trkpt><trkpt lat="31.0881740972" lon="35.0756928697"><ele>446.19</ele><time>2012-03-23T11:45:29Z</time></trkpt><trkpt lat="31.0880374722" lon="35.0754059572"><ele>449.07</ele><time>2012-03-23T11:45:46Z</time></trkpt><trkpt lat="31.0878125858" lon="35.0751063041"><ele>453.40</ele><time>2012-03-23T11:46:04Z</time></trkpt><trkpt lat="31.0876085702" lon="35.0748017058"><ele>456.28</ele><time>2012-03-23T11:46:22Z</time></trkpt><trkpt lat="31.0873531736" lon="35.0744931679"><ele>459.17</ele><time>2012-03-23T11:46:42Z</time></trkpt><trkpt lat="31.0870842822" lon="35.0741154794"><ele>461.57</ele><time>2012-03-23T11:47:05Z</time></trkpt><trkpt lat="31.0869232658" lon="35.0738758408"><ele>463.97</ele><time>2012-03-23T11:47:21Z</time></trkpt><trkpt lat="31.0867314879" lon="35.0736578275"><ele>464.93</ele><time>2012-03-23T11:47:38Z</time></trkpt><trkpt lat="31.0865079425" lon="35.0733587611"><ele>468.30</ele><time>2012-03-23T11:47:59Z</time></trkpt><trkpt lat="31.0864465870" lon="35.0732639618"><ele>470.22</ele><time>2012-03-23T11:48:06Z</time></trkpt><trkpt lat="31.0863553919" lon="35.0731378980"><ele>472.14</ele><time>2012-03-23T11:48:16Z</time></trkpt><trkpt lat="31.0861472692" lon="35.0730111636"><ele>474.07</ele><time>2012-03-23T11:48:33Z</time></trkpt><trkpt lat="31.0860591754" lon="35.0730218925"><ele>474.55</ele><time>2012-03-23T11:48:39Z</time></trkpt><trkpt lat="31.0858466104" lon="35.0730042905"><ele>476.47</ele><time>2012-03-23T11:48:53Z</time></trkpt><trkpt lat="31.0857549962" lon="35.0729490537"><ele>477.43</ele><time>2012-03-23T11:49:00Z</time></trkpt><trkpt lat="31.0855209734" lon="35.0727802422"><ele>478.87</ele><time>2012-03-23T11:49:19Z</time></trkpt><trkpt lat="31.0854808241" lon="35.0727354828"><ele>478.87</ele><time>2012-03-23T11:49:24Z</time></trkpt><trkpt lat="31.0853717756" lon="35.0726349838"><ele>479.35</ele><time>2012-03-23T11:49:35Z</time></trkpt><trkpt lat="31.0853263456" lon="35.0726075750"><ele>479.35</ele><time>2012-03-23T11:49:39Z</time></trkpt><trkpt lat="31.0851248447" lon="35.0724665914"><ele>480.32</ele><time>2012-03-23T11:49:57Z</time></trkpt><trkpt lat="31.0848968569" lon="35.0722795911"><ele>481.28</ele><time>2012-03-23T11:50:13Z</time></trkpt><trkpt lat="31.0846075136" lon="35.0720257033"><ele>483.20</ele><time>2012-03-23T11:50:31Z</time></trkpt><trkpt lat="31.0843293183" lon="35.0718657766"><ele>484.16</ele><time>2012-03-23T11:50:46Z</time></trkpt><trkpt lat="31.0840892605" lon="35.0716383755"><ele>486.08</ele><time>2012-03-23T11:51:00Z</time></trkpt><trkpt lat="31.0838091373" lon="35.0715244655"><ele>488.01</ele><time>2012-03-23T11:51:14Z</time></trkpt><trkpt lat="31.0834166966" lon="35.0714583322"><ele>490.89</ele><time>2012-03-23T11:51:33Z</time></trkpt><trkpt lat="31.0831530858" lon="35.0713595934"><ele>492.33</ele><time>2012-03-23T11:51:47Z</time></trkpt><trkpt lat="31.0828422848" lon="35.0712404866"><ele>493.77</ele><time>2012-03-23T11:52:03Z</time></trkpt><trkpt lat="31.0826123692" lon="35.0711121596"><ele>495.22</ele><time>2012-03-23T11:52:17Z</time></trkpt><trkpt lat="31.0825873073" lon="35.0711065438"><ele>496.66</ele><time>2012-03-23T11:52:29Z</time></trkpt><trkpt lat="31.0825890675" lon="35.0711058732"><ele>496.18</ele><time>2012-03-23T11:52:57Z</time></trkpt><trkpt lat="31.0825864691" lon="35.0711098965"><ele>497.14</ele><time>2012-03-23T11:53:18Z</time></trkpt><trkpt lat="31.0825872235" lon="35.0711063761"><ele>500.02</ele><time>2012-03-23T11:53:54Z</time></trkpt><trkpt lat="31.0825886484" lon="35.0711031072"><ele>499.54</ele><time>2012-03-23T11:54:26Z</time></trkpt><trkpt lat="31.0825808533" lon="35.0710972399"><ele>498.58</ele><time>2012-03-23T11:54:53Z</time></trkpt><trkpt lat="31.0825798474" lon="35.0710968208"><ele>498.10</ele><time>2012-03-23T11:55:14Z</time></trkpt><trkpt lat="31.0825816914" lon="35.0710937195"><ele>497.14</ele><time>2012-03-23T11:55:44Z</time></trkpt><trkpt lat="31.0825802665" lon="35.0710976589"><ele>497.14</ele><time>2012-03-23T11:56:11Z</time></trkpt><trkpt lat="31.0825908277" lon="35.0710841641"><ele>500.50</ele><time>2012-03-23T11:56:44Z</time></trkpt><trkpt lat="31.0825915821" lon="35.0710847508"><ele>502.91</ele><time>2012-03-23T11:57:25Z</time></trkpt><trkpt lat="31.0825795960" lon="35.0710921269"><ele>502.43</ele><time>2012-03-23T11:58:10Z</time></trkpt><trkpt lat="31.0825759079" lon="35.0711010955"><ele>500.98</ele><time>2012-03-23T11:58:40Z</time></trkpt><trkpt lat="31.0825705435" lon="35.0711036101"><ele>499.06</ele><time>2012-03-23T11:59:10Z</time></trkpt><trkpt lat="31.0825795121" lon="35.0710957311"><ele>497.62</ele><time>2012-03-23T11:59:42Z</time></trkpt><trkpt lat="31.0825838707" lon="35.0710932165"><ele>497.14</ele><time>2012-03-23T12:00:16Z</time></trkpt><trkpt lat="31.0825856309" lon="35.0710934680"><ele>496.66</ele><time>2012-03-23T12:00:53Z</time></trkpt><trkpt lat="31.0825878941" lon="35.0710923783"><ele>495.70</ele><time>2012-03-23T12:01:31Z</time></trkpt><trkpt lat="31.0825864691" lon="35.0710922945"><ele>495.70</ele><time>2012-03-23T12:02:04Z</time></trkpt><trkpt lat="31.0825863853" lon="35.0710913725"><ele>496.18</ele><time>2012-03-23T12:02:29Z</time></trkpt><trkpt lat="31.0825894866" lon="35.0710925460"><ele>496.18</ele><time>2012-03-23T12:03:00Z</time></trkpt><trkpt lat="31.0825856309" lon="35.0710941385"><ele>496.18</ele><time>2012-03-23T12:03:32Z</time></trkpt><trkpt lat="31.0825853795" lon="35.0710957311"><ele>496.18</ele><time>2012-03-23T12:03:43Z</time></trkpt><trkpt lat="31.0825719684" lon="35.0710656401"><ele>496.66</ele><time>2012-03-23T12:03:45Z</time></trkpt><trkpt lat="31.0825567972" lon="35.0710535701"><ele>496.66</ele><time>2012-03-23T12:03:46Z</time></trkpt><trkpt lat="31.0822164919" lon="35.0708065554"><ele>499.06</ele><time>2012-03-23T12:04:04Z</time></trkpt><trkpt lat="31.0817963909" lon="35.0705363229"><ele>498.10</ele><time>2012-03-23T12:04:19Z</time></trkpt><trkpt lat="31.0813271720" lon="35.0701924972"><ele>499.54</ele><time>2012-03-23T12:04:36Z</time></trkpt><trkpt lat="31.0809139442" lon="35.0699634198"><ele>501.46</ele><time>2012-03-23T12:04:52Z</time></trkpt><trkpt lat="31.0805504210" lon="35.0697145611"><ele>501.46</ele><time>2012-03-23T12:05:05Z</time></trkpt><trkpt lat="31.0804711282" lon="35.0696426444"><ele>501.46</ele><time>2012-03-23T12:05:07Z</time></trkpt><trkpt lat="31.0804412048" lon="35.0695983879"><ele>501.46</ele><time>2012-03-23T12:05:08Z</time></trkpt><trkpt lat="31.0804164782" lon="35.0695532095"><ele>501.95</ele><time>2012-03-23T12:05:09Z</time></trkpt><trkpt lat="31.0802525282" lon="35.0692544784"><ele>505.79</ele><time>2012-03-23T12:05:20Z</time></trkpt><trkpt lat="31.0800526198" lon="35.0689100660"><ele>510.12</ele><time>2012-03-23T12:05:39Z</time></trkpt><trkpt lat="31.0798737500" lon="35.0685546733"><ele>513.48</ele><time>2012-03-23T12:05:55Z</time></trkpt><trkpt lat="31.0797223728" lon="35.0681988616"><ele>515.40</ele><time>2012-03-23T12:06:11Z</time></trkpt><trkpt lat="31.0796597600" lon="35.0678674411"><ele>514.44</ele><time>2012-03-23T12:06:26Z</time></trkpt><trkpt lat="31.0795324389" lon="35.0675480906"><ele>514.44</ele><time>2012-03-23T12:06:40Z</time></trkpt><trkpt lat="31.0793234780" lon="35.0672464259"><ele>514.44</ele><time>2012-03-23T12:06:54Z</time></trkpt><trkpt lat="31.0790234897" lon="35.0667926297"><ele>512.52</ele><time>2012-03-23T12:07:07Z</time></trkpt><trkpt lat="31.0786426999" lon="35.0662240013"><ele>513.00</ele><time>2012-03-23T12:07:20Z</time></trkpt><trkpt lat="31.0783769097" lon="35.0658767391"><ele>517.33</ele><time>2012-03-23T12:07:35Z</time></trkpt><trkpt lat="31.0781826172" lon="35.0656184088"><ele>520.69</ele><time>2012-03-23T12:07:48Z</time></trkpt><trkpt lat="31.0779561382" lon="35.0653268024"><ele>522.61</ele><time>2012-03-23T12:08:04Z</time></trkpt><trkpt lat="31.0776970536" lon="35.0650119781"><ele>524.06</ele><time>2012-03-23T12:08:20Z</time></trkpt><trkpt lat="31.0774860810" lon="35.0646756124"><ele>524.06</ele><time>2012-03-23T12:08:34Z</time></trkpt><trkpt lat="31.0772121605" lon="35.0641524140"><ele>524.06</ele><time>2012-03-23T12:08:50Z</time></trkpt><trkpt lat="31.0769190453" lon="35.0635025650"><ele>523.58</ele><time>2012-03-23T12:09:07Z</time></trkpt><trkpt lat="31.0766933206" lon="35.0629207771"><ele>525.02</ele><time>2012-03-23T12:09:26Z</time></trkpt><trkpt lat="31.0766447056" lon="35.0628227089"><ele>525.02</ele><time>2012-03-23T12:09:30Z</time></trkpt><trkpt lat="31.0766286124" lon="35.0628005806"><ele>525.02</ele><time>2012-03-23T12:09:31Z</time></trkpt><trkpt lat="31.0766117647" lon="35.0627763569"><ele>525.02</ele><time>2012-03-23T12:09:32Z</time></trkpt><trkpt lat="31.0763701983" lon="35.0624032784"><ele>526.94</ele><time>2012-03-23T12:09:44Z</time></trkpt><trkpt lat="31.0759512708" lon="35.0618058164"><ele>527.42</ele><time>2012-03-23T12:10:02Z</time></trkpt><trkpt lat="31.0755733307" lon="35.0612526108"><ele>527.90</ele><time>2012-03-23T12:10:19Z</time></trkpt><trkpt lat="31.0751258209" lon="35.0607343577"><ele>528.38</ele><time>2012-03-23T12:10:36Z</time></trkpt><trkpt lat="31.0746951587" lon="35.0601322856"><ele>528.86</ele><time>2012-03-23T12:10:56Z</time></trkpt><trkpt lat="31.0743015446" lon="35.0596791599"><ele>529.34</ele><time>2012-03-23T12:11:12Z</time></trkpt><trkpt lat="31.0738772526" lon="35.0592735596"><ele>531.27</ele><time>2012-03-23T12:11:28Z</time></trkpt><trkpt lat="31.0734584928" lon="35.0587660354"><ele>532.71</ele><time>2012-03-23T12:11:46Z</time></trkpt><trkpt lat="31.0729885194" lon="35.0582451001"><ele>533.67</ele><time>2012-03-23T12:12:05Z</time></trkpt><trkpt lat="31.0725122597" lon="35.0576581992"><ele>536.55</ele><time>2012-03-23T12:12:26Z</time></trkpt><trkpt lat="31.0721717030" lon="35.0569960289"><ele>540.88</ele><time>2012-03-23T12:12:47Z</time></trkpt><trkpt lat="31.0719509237" lon="35.0564241316"><ele>542.80</ele><time>2012-03-23T12:13:05Z</time></trkpt><trkpt lat="31.0717258696" lon="35.0558908749"><ele>542.80</ele><time>2012-03-23T12:13:21Z</time></trkpt><trkpt lat="31.0715086944" lon="35.0555173773"><ele>541.84</ele><time>2012-03-23T12:13:34Z</time></trkpt><trkpt lat="31.0710063670" lon="35.0548708811"><ele>537.99</ele><time>2012-03-23T12:13:47Z</time></trkpt><trkpt lat="31.0707732663" lon="35.0545472559"><ele>537.99</ele><time>2012-03-23T12:13:53Z</time></trkpt><trkpt lat="31.0706182010" lon="35.0542869139"><ele>538.48</ele><time>2012-03-23T12:13:59Z</time></trkpt><trkpt lat="31.0705916304" lon="35.0542512909"><ele>538.48</ele><time>2012-03-23T12:14:00Z</time></trkpt><trkpt lat="31.0705653951" lon="35.0542125665"><ele>538.48</ele><time>2012-03-23T12:14:01Z</time></trkpt><trkpt lat="31.0702207312" lon="35.0537917949"><ele>539.44</ele><time>2012-03-23T12:14:15Z</time></trkpt><trkpt lat="31.0698524304" lon="35.0534985121"><ele>539.44</ele><time>2012-03-23T12:14:29Z</time></trkpt><trkpt lat="31.0695054196" lon="35.0529059116"><ele>541.36</ele><time>2012-03-23T12:14:45Z</time></trkpt><trkpt lat="31.0692243744" lon="35.0522915181"><ele>541.84</ele><time>2012-03-23T12:15:01Z</time></trkpt><trkpt lat="31.0688193608" lon="35.0517270807"><ele>541.84</ele><time>2012-03-23T12:15:18Z</time></trkpt><trkpt lat="31.0684524849" lon="35.0512104202"><ele>543.28</ele><time>2012-03-23T12:15:34Z</time></trkpt><trkpt lat="31.0680550151" lon="35.0506054144"><ele>544.24</ele><time>2012-03-23T12:15:52Z</time></trkpt><trkpt lat="31.0676572938" lon="35.0501017459"><ele>545.69</ele><time>2012-03-23T12:16:09Z</time></trkpt><trkpt lat="31.0673824511" lon="35.0494294334"><ele>547.61</ele><time>2012-03-23T12:16:28Z</time></trkpt><trkpt lat="31.0672734026" lon="35.0489348173"><ele>547.61</ele><time>2012-03-23T12:16:42Z</time></trkpt><trkpt lat="31.0670603346" lon="35.0483445637"><ele>548.57</ele><time>2012-03-23T12:16:58Z</time></trkpt><trkpt lat="31.0668190196" lon="35.0481097866"><ele>548.57</ele><time>2012-03-23T12:17:08Z</time></trkpt><trkpt lat="31.0662868526" lon="35.0481646042"><ele>549.05</ele><time>2012-03-23T12:17:24Z</time></trkpt><trkpt lat="31.0656536836" lon="35.0481632631"><ele>549.05</ele><time>2012-03-23T12:17:40Z</time></trkpt><trkpt lat="31.0651240312" lon="35.0481549650"><ele>548.57</ele><time>2012-03-23T12:17:52Z</time></trkpt><trkpt lat="31.0651052557" lon="35.0481583178"><ele>548.57</ele><time>2012-03-23T12:17:53Z</time></trkpt><trkpt lat="31.0650817864" lon="35.0481547136"><ele>548.57</ele><time>2012-03-23T12:17:54Z</time></trkpt><trkpt lat="31.0647211131" lon="35.0480772648"><ele>547.13</ele><time>2012-03-23T12:18:03Z</time></trkpt><trkpt lat="31.0646704864" lon="35.0480511971"><ele>546.65</ele><time>2012-03-23T12:18:04Z</time></trkpt><trkpt lat="31.0646232963" lon="35.0480115507"><ele>546.17</ele><time>2012-03-23T12:18:05Z</time></trkpt><trkpt lat="31.0645833146" lon="35.0479589123"><ele>546.17</ele><time>2012-03-23T12:18:06Z</time></trkpt><trkpt lat="31.0645585041" lon="35.0478963833"><ele>546.17</ele><time>2012-03-23T12:18:07Z</time></trkpt><trkpt lat="31.0645523854" lon="35.0478316750"><ele>546.17</ele><time>2012-03-23T12:18:08Z</time></trkpt><trkpt lat="31.0645600967" lon="35.0477697328"><ele>546.17</ele><time>2012-03-23T12:18:09Z</time></trkpt><trkpt lat="31.0645731725" lon="35.0477108918"><ele>546.17</ele><time>2012-03-23T12:18:10Z</time></trkpt><trkpt lat="31.0647496954" lon="35.0471123401"><ele>548.09</ele><time>2012-03-23T12:18:23Z</time></trkpt><trkpt lat="31.0649013240" lon="35.0464976113"><ele>551.45</ele><time>2012-03-23T12:18:40Z</time></trkpt><trkpt lat="31.0650153179" lon="35.0460514426"><ele>554.34</ele><time>2012-03-23T12:18:57Z</time></trkpt><trkpt lat="31.0651261266" lon="35.0456194393"><ele>559.62</ele><time>2012-03-23T12:19:16Z</time></trkpt><trkpt lat="31.0652215127" lon="35.0452833250"><ele>564.91</ele><time>2012-03-23T12:19:32Z</time></trkpt><trkpt lat="31.0653151385" lon="35.0449599512"><ele>567.32</ele><time>2012-03-23T12:19:47Z</time></trkpt><trkpt lat="31.0653844569" lon="35.0446539279"><ele>570.68</ele><time>2012-03-23T12:20:03Z</time></trkpt><trkpt lat="31.0654696170" lon="35.0443466473"><ele>574.04</ele><time>2012-03-23T12:20:20Z</time></trkpt><trkpt lat="31.0655646678" lon="35.0440078508"><ele>575.01</ele><time>2012-03-23T12:20:37Z</time></trkpt><trkpt lat="31.0655920766" lon="35.0439283904"><ele>575.49</ele><time>2012-03-23T12:20:41Z</time></trkpt><trkpt lat="31.0655938368" lon="35.0439075194"><ele>575.49</ele><time>2012-03-23T12:20:42Z</time></trkpt><trkpt lat="31.0655956808" lon="35.0438875705"><ele>575.49</ele><time>2012-03-23T12:20:43Z</time></trkpt><trkpt lat="31.0656002071" lon="35.0438665319"><ele>575.49</ele><time>2012-03-23T12:20:44Z</time></trkpt><trkpt lat="31.0656062420" lon="35.0438448228"><ele>575.49</ele><time>2012-03-23T12:20:45Z</time></trkpt><trkpt lat="31.0656995326" lon="35.0433830637"><ele>576.45</ele><time>2012-03-23T12:21:01Z</time></trkpt><trkpt lat="31.0658257641" lon="35.0428809039"><ele>575.97</ele><time>2012-03-23T12:21:17Z</time></trkpt><trkpt lat="31.0658522509" lon="35.0427778903"><ele>575.97</ele><time>2012-03-23T12:21:28Z</time></trkpt><trkpt lat="31.0658461321" lon="35.0427791476"><ele>575.49</ele><time>2012-03-23T12:21:57Z</time></trkpt><trkpt lat="31.0658497363" lon="35.0427799020"><ele>575.01</ele><time>2012-03-23T12:22:29Z</time></trkpt><trkpt lat="31.0658468865" lon="35.0427758787"><ele>575.49</ele><time>2012-03-23T12:23:00Z</time></trkpt><trkpt lat="31.0658342298" lon="35.0427742023"><ele>575.97</ele><time>2012-03-23T12:23:32Z</time></trkpt><trkpt lat="31.0658324696" lon="35.0427710172"><ele>575.97</ele><time>2012-03-23T12:24:04Z</time></trkpt><trkpt lat="31.0658515804" lon="35.0427756272"><ele>576.45</ele><time>2012-03-23T12:24:37Z</time></trkpt><trkpt lat="31.0658732057" lon="35.0426856056"><ele>575.97</ele><time>2012-03-23T12:25:11Z</time></trkpt><trkpt lat="31.0659813322" lon="35.0422167219"><ele>574.04</ele><time>2012-03-23T12:25:24Z</time></trkpt><trkpt lat="31.0661712661" lon="35.0414395519"><ele>571.64</ele><time>2012-03-23T12:25:36Z</time></trkpt><trkpt lat="31.0664974060" lon="35.0401251018"><ele>567.80</ele><time>2012-03-23T12:25:52Z</time></trkpt><trkpt lat="31.0666317679" lon="35.0398478284"><ele>566.83</ele><time>2012-03-23T12:25:56Z</time></trkpt><trkpt lat="31.0666503757" lon="35.0397802703"><ele>566.83</ele><time>2012-03-23T12:25:57Z</time></trkpt><trkpt lat="31.0666533932" lon="35.0397149753"><ele>566.83</ele><time>2012-03-23T12:25:58Z</time></trkpt><trkpt lat="31.0666556563" lon="35.0395332556"><ele>566.35</ele><time>2012-03-23T12:26:01Z</time></trkpt><trkpt lat="31.0666663852" lon="35.0394770969"><ele>566.35</ele><time>2012-03-23T12:26:02Z</time></trkpt><trkpt lat="31.0668842308" lon="35.0386847556"><ele>564.43</ele><time>2012-03-23T12:26:16Z</time></trkpt><trkpt lat="31.0671369452" lon="35.0376924220"><ele>563.47</ele><time>2012-03-23T12:26:32Z</time></trkpt><trkpt lat="31.0673765000" lon="35.0367179420"><ele>561.55</ele><time>2012-03-23T12:26:48Z</time></trkpt><trkpt lat="31.0675931722" lon="35.0358086731"><ele>560.11</ele><time>2012-03-23T12:27:04Z</time></trkpt><trkpt lat="31.0676579643" lon="35.0355254486"><ele>559.14</ele><time>2012-03-23T12:27:09Z</time></trkpt><trkpt lat="31.0676751472" lon="35.0354699604"><ele>559.14</ele><time>2012-03-23T12:27:10Z</time></trkpt><trkpt lat="31.0678426176" lon="35.0348784495"><ele>558.18</ele><time>2012-03-23T12:27:21Z</time></trkpt><trkpt lat="31.0678623151" lon="35.0348354504"><ele>558.66</ele><time>2012-03-23T12:27:22Z</time></trkpt><trkpt lat="31.0678865388" lon="35.0347974803"><ele>558.66</ele><time>2012-03-23T12:27:23Z</time></trkpt><trkpt lat="31.0679166298" lon="35.0347655453"><ele>558.66</ele><time>2012-03-23T12:27:24Z</time></trkpt><trkpt lat="31.0679535940" lon="35.0347371306"><ele>558.66</ele><time>2012-03-23T12:27:25Z</time></trkpt><trkpt lat="31.0679922346" lon="35.0347087160"><ele>558.66</ele><time>2012-03-23T12:27:26Z</time></trkpt><trkpt lat="31.0680317972" lon="35.0346837379"><ele>558.66</ele><time>2012-03-23T12:27:27Z</time></trkpt><trkpt lat="31.0680736229" lon="35.0346647948"><ele>558.66</ele><time>2012-03-23T12:27:28Z</time></trkpt><trkpt lat="31.0681188013" lon="35.0346535631"><ele>558.66</ele><time>2012-03-23T12:27:29Z</time></trkpt><trkpt lat="31.0681652371" lon="35.0346514676"><ele>558.66</ele><time>2012-03-23T12:27:30Z</time></trkpt><trkpt lat="31.0682125948" lon="35.0346561614"><ele>558.66</ele><time>2012-03-23T12:27:31Z</time></trkpt><trkpt lat="31.0691051837" lon="35.0346750207"><ele>557.70</ele><time>2012-03-23T12:27:50Z</time></trkpt><trkpt lat="31.0692420602" lon="35.0346611906"><ele>557.22</ele><time>2012-03-23T12:27:53Z</time></trkpt><trkpt lat="31.0693350993" lon="35.0346443430"><ele>557.22</ele><time>2012-03-23T12:27:55Z</time></trkpt><trkpt lat="31.0694775078" lon="35.0346463546"><ele>556.74</ele><time>2012-03-23T12:27:58Z</time></trkpt><trkpt lat="31.0702045541" lon="35.0346533954"><ele>557.70</ele><time>2012-03-23T12:28:15Z</time></trkpt><trkpt lat="31.0709004197" lon="35.0346460193"><ele>559.14</ele><time>2012-03-23T12:28:32Z</time></trkpt><trkpt lat="31.0710221250" lon="35.0346601848"><ele>559.62</ele><time>2012-03-23T12:28:35Z</time></trkpt><trkpt lat="31.0717937630" lon="35.0346633699"><ele>562.99</ele><time>2012-03-23T12:28:55Z</time></trkpt><trkpt lat="31.0720955115" lon="35.0346932933"><ele>562.99</ele><time>2012-03-23T12:29:04Z</time></trkpt><trkpt lat="31.0721644107" lon="35.0346451811"><ele>562.51</ele><time>2012-03-23T12:29:06Z</time></trkpt><trkpt lat="31.0722048115" lon="35.0346297584"><ele>562.51</ele><time>2012-03-23T12:29:07Z</time></trkpt><trkpt lat="31.0722475592" lon="35.0346225500"><ele>562.51</ele><time>2012-03-23T12:29:08Z</time></trkpt><trkpt lat="31.0729752760" lon="35.0346243940"><ele>561.55</ele><time>2012-03-23T12:29:24Z</time></trkpt><trkpt lat="31.0731271561" lon="35.0346419960"><ele>560.59</ele><time>2012-03-23T12:29:27Z</time></trkpt><trkpt lat="31.0732667148" lon="35.0346897729"><ele>560.11</ele><time>2012-03-23T12:29:30Z</time></trkpt><trkpt lat="31.0733124800" lon="35.0346890185"><ele>560.11</ele><time>2012-03-23T12:29:31Z</time></trkpt><trkpt lat="31.0733585805" lon="35.0346786249"><ele>560.11</ele><time>2012-03-23T12:29:32Z</time></trkpt><trkpt lat="31.0734035075" lon="35.0346633699"><ele>560.11</ele><time>2012-03-23T12:29:33Z</time></trkpt><trkpt lat="31.0734501947" lon="35.0346470252"><ele>560.11</ele><time>2012-03-23T12:29:34Z</time></trkpt><trkpt lat="31.0734987259" lon="35.0346345361"><ele>560.11</ele><time>2012-03-23T12:29:35Z</time></trkpt><trkpt lat="31.0735485982" lon="35.0346269924"><ele>560.11</ele><time>2012-03-23T12:29:36Z</time></trkpt><trkpt lat="31.0735983029" lon="35.0346233882"><ele>560.11</ele><time>2012-03-23T12:29:37Z</time></trkpt><trkpt lat="31.0736470018" lon="35.0346212927"><ele>560.59</ele><time>2012-03-23T12:29:38Z</time></trkpt><trkpt lat="31.0739817750" lon="35.0346256513"><ele>561.07</ele><time>2012-03-23T12:29:45Z</time></trkpt><trkpt lat="31.0744585376" lon="35.0346114021"><ele>561.55</ele><time>2012-03-23T12:29:56Z</time></trkpt><trkpt lat="31.0744984355" lon="35.0346163474"><ele>561.07</ele><time>2012-03-23T12:29:57Z</time></trkpt><trkpt lat="31.0747736972" lon="35.0346780382"><ele>561.07</ele><time>2012-03-23T12:30:04Z</time></trkpt><trkpt lat="31.0748146847" lon="35.0346804690"><ele>561.55</ele><time>2012-03-23T12:30:05Z</time></trkpt><trkpt lat="31.0748539120" lon="35.0346736796"><ele>561.55</ele><time>2012-03-23T12:30:06Z</time></trkpt><trkpt lat="31.0752366297" lon="35.0346055347"><ele>562.99</ele><time>2012-03-23T12:30:15Z</time></trkpt><trkpt lat="31.0760152247" lon="35.0346056186"><ele>566.35</ele><time>2012-03-23T12:30:34Z</time></trkpt><trkpt lat="31.0766695999" lon="35.0346245617"><ele>568.28</ele><time>2012-03-23T12:30:50Z</time></trkpt><trkpt lat="31.0767080728" lon="35.0346330274"><ele>568.76</ele><time>2012-03-23T12:30:51Z</time></trkpt><trkpt lat="31.0767438635" lon="35.0346523896"><ele>568.28</ele><time>2012-03-23T12:30:52Z</time></trkpt><trkpt lat="31.0767797381" lon="35.0346707460"><ele>568.28</ele><time>2012-03-23T12:30:53Z</time></trkpt><trkpt lat="31.0768152773" lon="35.0346830674"><ele>568.28</ele><time>2012-03-23T12:30:54Z</time></trkpt><trkpt lat="31.0768519901" lon="35.0346832350"><ele>567.80</ele><time>2012-03-23T12:30:55Z</time></trkpt><trkpt lat="31.0768876970" lon="35.0346700754"><ele>567.80</ele><time>2012-03-23T12:30:56Z</time></trkpt><trkpt lat="31.0769198835" lon="35.0346431695"><ele>567.32</ele><time>2012-03-23T12:30:57Z</time></trkpt><trkpt lat="31.0769455321" lon="35.0346055347"><ele>567.32</ele><time>2012-03-23T12:30:58Z</time></trkpt><trkpt lat="31.0769615415" lon="35.0345596019"><ele>567.32</ele><time>2012-03-23T12:30:59Z</time></trkpt><trkpt lat="31.0769656487" lon="35.0345107354"><ele>567.32</ele><time>2012-03-23T12:31:00Z</time></trkpt><trkpt lat="31.0769606195" lon="35.0344582647"><ele>567.32</ele><time>2012-03-23T12:31:01Z</time></trkpt><trkpt lat="31.0769529082" lon="35.0344064645"><ele>567.32</ele><time>2012-03-23T12:31:02Z</time></trkpt><trkpt lat="31.0768820811" lon="35.0337970164"><ele>566.83</ele><time>2012-03-23T12:31:14Z</time></trkpt><trkpt lat="31.0768987611" lon="35.0331481732"><ele>565.39</ele><time>2012-03-23T12:31:28Z</time></trkpt><trkpt lat="31.0768436920" lon="35.0323042832"><ele>566.35</ele><time>2012-03-23T12:31:45Z</time></trkpt><trkpt lat="31.0768389981" lon="35.0322559197"><ele>566.35</ele><time>2012-03-23T12:31:46Z</time></trkpt><trkpt lat="31.0768993478" lon="35.0316173863"><ele>565.39</ele><time>2012-03-23T12:32:01Z</time></trkpt><trkpt lat="31.0772466101" lon="35.0315126963"><ele>566.35</ele><time>2012-03-23T12:32:11Z</time></trkpt><trkpt lat="31.0778145678" lon="35.0314433780"><ele>569.72</ele><time>2012-03-23T12:32:29Z</time></trkpt><trkpt lat="31.0783690307" lon="35.0313313119"><ele>572.12</ele><time>2012-03-23T12:32:48Z</time></trkpt><trkpt lat="31.0788560193" lon="35.0312846247"><ele>574.04</ele><time>2012-03-23T12:33:05Z</time></trkpt><trkpt lat="31.0792959854" lon="35.0310226064"><ele>578.85</ele><time>2012-03-23T12:33:21Z</time></trkpt><trkpt lat="31.0797276534" lon="35.0307511166"><ele>581.25</ele><time>2012-03-23T12:33:36Z</time></trkpt><trkpt lat="31.0803024005" lon="35.0304942951"><ele>583.18</ele><time>2012-03-23T12:33:55Z</time></trkpt><trkpt lat="31.0807713680" lon="35.0303812232"><ele>583.66</ele><time>2012-03-23T12:34:11Z</time></trkpt><trkpt lat="31.0812959075" lon="35.0301777106"><ele>585.58</ele><time>2012-03-23T12:34:29Z</time></trkpt><trkpt lat="31.0817354545" lon="35.0299230684"><ele>587.50</ele><time>2012-03-23T12:34:46Z</time></trkpt><trkpt lat="31.0820875783" lon="35.0296933204"><ele>588.95</ele><time>2012-03-23T12:35:00Z</time></trkpt><trkpt lat="31.0824684519" lon="35.0296563562"><ele>591.35</ele><time>2012-03-23T12:35:15Z</time></trkpt><trkpt lat="31.0826333240" lon="35.0297226571"><ele>591.35</ele><time>2012-03-23T12:35:27Z</time></trkpt></trkseg></trk></gpx>